Wetterdaten: Sonntag, 24.04.2016
Datum Zeit Temp. A. Feuchte A. Luftdruck Regen Wind Richtung Richtung Sonnenschein ET UV Solar Taupunkt Windchill Windben Empfang
24.04.2016 00:00 7,8 C 93 % 1004,9 hPa 0,0 l/m 18,2 km/h (3 Bft) W-SW 252 0 min 0,000 mm 0,0 UV-I 0 W/m 6,7 C 1,1 C 22,5 km/h (4 Bft) 100,00 %
24.04.2016 00:02 7,8 C 93 % 1004,9 hPa 0,2 l/m 22,5 km/h (4 Bft) W 269 0 min 0,000 mm 0,0 UV-I 0 W/m 6,7 C -0,4 C 35,4 km/h (5 Bft) 94,12 %
24.04.2016 00:03 7,8 C 93 % 1005,0 hPa 0,2 l/m 24,9 km/h (4 Bft) W 271 0 min 0,000 mm 0,0 UV-I 0 W/m 6,7 C -1,1 C 33,8 km/h (5 Bft) 100,00 %
24.04.2016 00:05 7,7 C 93 % 1005,0 hPa 0,2 l/m 19,7 km/h (3 Bft) W-SW 248 0 min 0,000 mm 0,0 UV-I 0 W/m 6,6 C 0,4 C 27,4 km/h (4 Bft) 100,00 %
24.04.2016 00:06 7,7 C 93 % 1005,0 hPa 0,2 l/m 20,3 km/h (4 Bft) W-SW 250 0 min 0,000 mm 0,0 UV-I 0 W/m 6,6 C 0,2 C 25,7 km/h (4 Bft) 100,00 %
24.04.2016 00:07 7,7 C 93 % 1005,1 hPa 0,0 l/m 19,4 km/h (3 Bft) W 259 0 min 0,000 mm 0,0 UV-I 0 W/m 6,6 C 0,5 C 29,0 km/h (5 Bft) 100,00 %
24.04.2016 00:08 7,6 C 93 % 1005,1 hPa 0,2 l/m 19,6 km/h (3 Bft) W 259 0 min 0,000 mm 0,0 UV-I 0 W/m 6,5 C 0,3 C 33,8 km/h (5 Bft) 91,67 %
24.04.2016 00:09 7,6 C 93 % 1005,2 hPa 0,0 l/m 21,4 km/h (4 Bft) W-SW 237 0 min 0,000 mm 0,0 UV-I 0 W/m 6,5 C -0,3 C 30,6 km/h (5 Bft) 100,00 %
24.04.2016 00:10 7,6 C 93 % 1005,3 hPa 0,0 l/m 22,0 km/h (4 Bft) W-SW 257 0 min 0,000 mm 0,0 UV-I 0 W/m 6,5 C -0,5 C 33,8 km/h (5 Bft) 96,67 %
24.04.2016 00:11 7,5 C 93 % 1005,4 hPa 0,2 l/m 22,7 km/h (4 Bft) S-SW 207 0 min 0,000 mm 0,0 UV-I 0 W/m 6,4 C -0,9 C 33,8 km/h (5 Bft) 100,00 %
24.04.2016 00:12 7,4 C 93 % 1005,4 hPa 0,0 l/m 30,2 km/h (5 Bft) W-SW 244 0 min 0,000 mm 0,0 UV-I 0 W/m 6,3 C -3,0 C 45,1 km/h (6 Bft) 91,67 %
24.04.2016 00:13 7,3 C 92 % 1005,5 hPa 0,2 l/m 23,0 km/h (4 Bft) W 267 0 min 0,000 mm 0,0 UV-I 0 W/m 6,1 C -1,2 C 33,8 km/h (5 Bft) 100,00 %
24.04.2016 00:14 7,3 C 92 % 1005,5 hPa 0,2 l/m 17,8 km/h (3 Bft) W-NW 283 0 min 0,000 mm 0,0 UV-I 0 W/m 6,1 C 0,6 C 29,0 km/h (5 Bft) 100,00 %
24.04.2016 00:15 7,2 C 92 % 1005,4 hPa 0,0 l/m 22,9 km/h (4 Bft) W 274 0 min 0,000 mm 0,0 UV-I 0 W/m 6,0 C -1,3 C 40,2 km/h (6 Bft) 100,00 %
24.04.2016 00:16 7,2 C 92 % 1005,5 hPa 0,0 l/m 24,9 km/h (4 Bft) W 269 0 min 0,000 mm 0,0 UV-I 0 W/m 6,0 C -1,9 C 38,6 km/h (5 Bft) 100,00 %
24.04.2016 00:17 7,1 C 91 % 1005,6 hPa 0,2 l/m 27,0 km/h (4 Bft) W-SW 256 0 min 0,000 mm 0,0 UV-I 0 W/m 5,7 C -2,7 C 37,0 km/h (5 Bft) 100,00 %
24.04.2016 00:18 7,0 C 91 % 1005,5 hPa 0,2 l/m 24,9 km/h (4 Bft) W-SW 258 0 min 0,000 mm 0,0 UV-I 0 W/m 5,6 C -2,2 C 35,4 km/h (5 Bft) 100,00 %
24.04.2016 00:19 6,9 C 91 % 1005,6 hPa 0,0 l/m 24,5 km/h (4 Bft) W 260 0 min 0,000 mm 0,0 UV-I 0 W/m 5,5 C -2,2 C 35,4 km/h (5 Bft) 100,00 %
24.04.2016 00:20 6,8 C 91 % 1005,7 hPa 0,0 l/m 20,4 km/h (4 Bft) W 263 0 min 0,000 mm 0,0 UV-I 0 W/m 5,4 C -1,0 C 24,1 km/h (4 Bft) 100,00 %
24.04.2016 00:21 6,8 C 91 % 1005,7 hPa 0,2 l/m 28,2 km/h (4 Bft) W 262 0 min 0,000 mm 0,0 UV-I 0 W/m 5,4 C -3,4 C 41,8 km/h (6 Bft) 100,00 %
24.04.2016 00:22 6,7 C 91 % 1005,6 hPa 0,0 l/m 23,5 km/h (4 Bft) W-SW 253 0 min 0,000 mm 0,0 UV-I 0 W/m 5,3 C -2,2 C 30,6 km/h (5 Bft) 100,00 %
24.04.2016 00:23 6,7 C 91 % 1005,7 hPa 0,2 l/m 24,8 km/h (4 Bft) W 266 0 min 0,000 mm 0,0 UV-I 0 W/m 5,3 C -2,6 C 40,2 km/h (6 Bft) 100,00 %
24.04.2016 00:24 6,6 C 91 % 1005,7 hPa 0,0 l/m 27,8 km/h (4 Bft) W 271 0 min 0,000 mm 0,0 UV-I 0 W/m 5,2 C -3,6 C 38,6 km/h (5 Bft) 100,00 %
24.04.2016 00:25 6,5 C 90 % 1005,8 hPa 0,0 l/m 31,9 km/h (5 Bft) W 264 0 min 0,000 mm 0,0 UV-I 0 W/m 5,0 C -4,7 C 46,7 km/h (6 Bft) 100,00 %
24.04.2016 00:26 6,4 C 90 % 1005,7 hPa 0,2 l/m 28,7 km/h (4 Bft) W-SW 240 0 min 0,000 mm 0,0 UV-I 0 W/m 4,9 C -4,1 C 43,5 km/h (6 Bft) 100,00 %
24.04.2016 00:27 6,4 C 90 % 1005,9 hPa 0,0 l/m 23,6 km/h (4 Bft) W-SW 251 0 min 0,000 mm 0,0 UV-I 0 W/m 4,9 C -2,6 C 33,8 km/h (5 Bft) 100,00 %
24.04.2016 00:28 6,3 C 91 % 1005,9 hPa 0,0 l/m 22,8 km/h (4 Bft) W-NW 284 0 min 0,000 mm 0,0 UV-I 0 W/m 4,9 C -2,5 C 27,4 km/h (4 Bft) 100,00 %
24.04.2016 00:29 6,3 C 91 % 1006,0 hPa 0,2 l/m 23,6 km/h (4 Bft) W-SW 246 0 min 0,000 mm 0,0 UV-I 0 W/m 4,9 C -2,7 C 32,2 km/h (5 Bft) 96,30 %
24.04.2016 00:30 6,3 C 91 % 1005,9 hPa 0,0 l/m 29,7 km/h (5 Bft) SW 225 0 min 0,000 mm 0,0 UV-I 0 W/m 4,9 C -4,5 C 38,6 km/h (5 Bft) 100,00 %
24.04.2016 00:31 6,2 C 91 % 1006,0 hPa 0,2 l/m 22,8 km/h (4 Bft) W 269 0 min 0,000 mm 0,0 UV-I 0 W/m 4,8 C -2,6 C 30,6 km/h (5 Bft) 100,00 %
24.04.2016 00:32 6,2 C 91 % 1006,0 hPa 0,0 l/m 23,1 km/h (4 Bft) W 265 0 min 0,000 mm 0,0 UV-I 0 W/m 4,8 C -2,7 C 37,0 km/h (5 Bft) 100,00 %
24.04.2016 00:33 6,1 C 91 % 1006,0 hPa 0,0 l/m 20,9 km/h (4 Bft) W-SW 257 0 min 0,000 mm 0,0 UV-I 0 W/m 4,7 C -2,1 C 33,8 km/h (5 Bft) 100,00 %
24.04.2016 00:34 6,1 C 91 % 1006,1 hPa 0,2 l/m 22,4 km/h (4 Bft) W-SW 256 0 min 0,000 mm 0,0 UV-I 0 W/m 4,7 C -2,6 C 32,2 km/h (5 Bft) 100,00 %
24.04.2016 00:35 6,1 C 91 % 1006,2 hPa 0,0 l/m 27,2 km/h (4 Bft) W 267 0 min 0,000 mm 0,0 UV-I 0 W/m 4,7 C -4,1 C 43,5 km/h (6 Bft) 94,12 %
24.04.2016 00:36 6,0 C 91 % 1006,2 hPa 0,0 l/m 25,4 km/h (4 Bft) W 269 0 min 0,000 mm 0,0 UV-I 0 W/m 4,6 C -3,7 C 33,8 km/h (5 Bft) 100,00 %
24.04.2016 00:37 6,0 C 91 % 1006,2 hPa 0,2 l/m 22,3 km/h (4 Bft) W 279 0 min 0,000 mm 0,0 UV-I 0 W/m 4,6 C -2,7 C 29,0 km/h (5 Bft) 100,00 %
24.04.2016 00:38 5,9 C 91 % 1006,2 hPa 0,0 l/m 26,0 km/h (4 Bft) W 261 0 min 0,000 mm 0,0 UV-I 0 W/m 4,5 C -4,0 C 33,8 km/h (5 Bft) 100,00 %
24.04.2016 00:39 5,9 C 91 % 1006,3 hPa 0,0 l/m 24,0 km/h (4 Bft) W-SW 253 0 min 0,000 mm 0,0 UV-I 0 W/m 4,5 C -3,4 C 40,2 km/h (6 Bft) 100,00 %
24.04.2016 00:40 5,9 C 91 % 1006,3 hPa 0,2 l/m 25,4 km/h (4 Bft) W 261 0 min 0,000 mm 0,0 UV-I 0 W/m 4,5 C -3,8 C 40,2 km/h (6 Bft) 100,00 %
24.04.2016 00:41 5,8 C 91 % 1006,4 hPa 0,0 l/m 24,2 km/h (4 Bft) W 269 0 min 0,000 mm 0,0 UV-I 0 W/m 4,4 C -3,6 C 41,8 km/h (6 Bft) 99,25 %
24.04.2016 00:42 5,8 C 91 % 1006,5 hPa 0,0 l/m 19,8 km/h (3 Bft) SW 232 0 min 0,000 mm 0,0 UV-I 0 W/m 4,4 C -2,1 C 25,7 km/h (4 Bft) 100,00 %
24.04.2016 00:43 5,8 C 91 % 1006,4 hPa 0,2 l/m 24,8 km/h (4 Bft) W-SW 249 0 min 0,000 mm 0,0 UV-I 0 W/m 4,4 C -3,8 C 32,2 km/h (5 Bft) 100,00 %
24.04.2016 00:44 5,8 C 91 % 1006,5 hPa 0,0 l/m 31,9 km/h (5 Bft) W 262 0 min 0,000 mm 0,0 UV-I 0 W/m 4,4 C -5,7 C 45,1 km/h (6 Bft) 99,30 %
24.04.2016 00:45 5,7 C 91 % 1006,4 hPa 0,0 l/m 26,6 km/h (4 Bft) W 273 0 min 0,000 mm 0,0 UV-I 0 W/m 4,3 C -4,5 C 33,8 km/h (5 Bft) 97,56 %
24.04.2016 00:46 5,7 C 91 % 1006,5 hPa 0,2 l/m 25,4 km/h (4 Bft) W-SW 250 0 min 0,000 mm 0,0 UV-I 0 W/m 4,3 C -4,1 C 33,8 km/h (5 Bft) 100,00 %
24.04.2016 00:47 5,7 C 91 % 1006,6 hPa 0,0 l/m 30,2 km/h (5 Bft) W 271 0 min 0,000 mm 0,0 UV-I 0 W/m 4,3 C -5,4 C 48,3 km/h (6 Bft) 99,25 %
24.04.2016 00:48 5,6 C 91 % 1006,6 hPa 0,0 l/m 24,6 km/h (4 Bft) W-SW 252 0 min 0,000 mm 0,0 UV-I 0 W/m 4,2 C -4,0 C 43,5 km/h (6 Bft) 100,00 %
24.04.2016 00:49 5,6 C 91 % 1006,6 hPa 0,2 l/m 18,8 km/h (3 Bft) W 272 0 min 0,000 mm 0,0 UV-I 0 W/m 4,2 C -1,9 C 32,2 km/h (5 Bft) 96,15 %
24.04.2016 00:50 5,5 C 91 % 1006,6 hPa 0,0 l/m 25,2 km/h (4 Bft) SW 234 0 min 0,000 mm 0,0 UV-I 0 W/m 4,2 C -4,3 C 30,6 km/h (5 Bft) 100,00 %
24.04.2016 00:51 5,5 C 91 % 1006,6 hPa 0,0 l/m 24,5 km/h (4 Bft) W-NW 289 0 min 0,000 mm 0,0 UV-I 0 W/m 4,2 C -4,1 C 32,2 km/h (5 Bft) 100,00 %
24.04.2016 00:52 5,4 C 90 % 1006,6 hPa 0,2 l/m 21,9 km/h (4 Bft) W 277 0 min 0,000 mm 0,0 UV-I 0 W/m 3,9 C -3,4 C 27,4 km/h (4 Bft) 100,00 %
24.04.2016 00:53 5,4 C 90 % 1006,7 hPa 0,0 l/m 28,9 km/h (5 Bft) W 270 0 min 0,000 mm 0,0 UV-I 0 W/m 3,9 C -5,5 C 41,8 km/h (6 Bft) 100,00 %
24.04.2016 00:54 5,3 C 90 % 1006,7 hPa 0,0 l/m 21,4 km/h (4 Bft) W 260 0 min 0,000 mm 0,0 UV-I 0 W/m 3,8 C -3,3 C 29,0 km/h (5 Bft) 100,00 %
24.04.2016 00:55 5,3 C 90 % 1006,7 hPa 0,0 l/m 15,5 km/h (3 Bft) W 278 0 min 0,000 mm 0,0 UV-I 0 W/m 3,8 C -0,8 C 22,5 km/h (4 Bft) 95,83 %
24.04.2016 00:56 5,3 C 91 % 1006,8 hPa 0,2 l/m 24,6 km/h (4 Bft) W-SW 246 0 min 0,000 mm 0,0 UV-I 0 W/m 4,0 C -4,4 C 33,8 km/h (5 Bft) 100,00 %
24.04.2016 00:57 5,2 C 91 % 1006,8 hPa 0,0 l/m 19,1 km/h (3 Bft) W 273 0 min 0,000 mm 0,0 UV-I 0 W/m 3,9 C -2,6 C 27,4 km/h (4 Bft) 95,83 %
24.04.2016 00:58 5,2 C 91 % 1006,9 hPa 0,0 l/m 20,3 km/h (4 Bft) W 259 0 min 0,000 mm 0,0 UV-I 0 W/m 3,9 C -3,0 C 29,0 km/h (5 Bft) 100,00 %
24.04.2016 00:59 5,2 C 91 % 1006,9 hPa 0,0 l/m 20,3 km/h (4 Bft) W 271 0 min 0,000 mm 0,0 UV-I 0 W/m 3,9 C -3,0 C 30,6 km/h (5 Bft) 100,00 %
24.04.2016 01:00 5,2 C 91 % 1006,9 hPa 0,2 l/m 21,3 km/h (4 Bft) SW 234 0 min 0,025 mm 0,0 UV-I 0 W/m 3,9 C -3,4 C 33,8 km/h (5 Bft) 100,00 %
24.04.2016 01:01 5,1 C 91 % 1007,0 hPa 0,0 l/m 25,2 km/h (4 Bft) W-SW 241 0 min 0,000 mm 0,0 UV-I 0 W/m 3,8 C -4,9 C 40,2 km/h (6 Bft) 100,00 %
24.04.2016 01:02 5,1 C 91 % 1007,0 hPa 0,0 l/m 26,9 km/h (4 Bft) W-SW 250 0 min 0,000 mm 0,0 UV-I 0 W/m 3,8 C -5,4 C 35,4 km/h (5 Bft) 100,00 %
24.04.2016 01:03 5,0 C 91 % 1007,0 hPa 0,0 l/m 24,1 km/h (4 Bft) W-SW 248 0 min 0,000 mm 0,0 UV-I 0 W/m 3,7 C -4,7 C 30,6 km/h (5 Bft) 100,00 %
24.04.2016 01:04 5,0 C 91 % 1007,1 hPa 0,0 l/m 25,1 km/h (4 Bft) W-SW 241 0 min 0,000 mm 0,0 UV-I 0 W/m 3,7 C -5,0 C 41,8 km/h (6 Bft) 100,00 %
24.04.2016 01:05 4,9 C 91 % 1007,1 hPa 0,0 l/m 23,5 km/h (4 Bft) W 269 0 min 0,000 mm 0,0 UV-I 0 W/m 3,6 C -4,6 C 32,2 km/h (5 Bft) 86,67 %
24.04.2016 01:06 4,9 C 90 % 1007,0 hPa 0,2 l/m 21,3 km/h (4 Bft) W-SW 242 0 min 0,000 mm 0,0 UV-I 0 W/m 3,4 C -3,8 C 32,2 km/h (5 Bft) 100,00 %
24.04.2016 01:07 4,8 C 91 % 1007,1 hPa 0,0 l/m 25,6 km/h (4 Bft) W-SW 243 0 min 0,000 mm 0,0 UV-I 0 W/m 3,5 C -5,4 C 38,6 km/h (5 Bft) 93,33 %
24.04.2016 01:08 4,8 C 91 % 1007,1 hPa 0,0 l/m 31,5 km/h (5 Bft) W 261 0 min 0,000 mm 0,0 UV-I 0 W/m 3,5 C -7,0 C 38,6 km/h (5 Bft) 100,00 %
24.04.2016 01:09 4,8 C 90 % 1007,2 hPa 0,0 l/m 26,7 km/h (4 Bft) W 271 0 min 0,000 mm 0,0 UV-I 0 W/m 3,3 C -5,7 C 41,8 km/h (6 Bft) 96,55 %
24.04.2016 01:10 4,8 C 90 % 1007,2 hPa 0,0 l/m 19,3 km/h (3 Bft) W-SW 244 0 min 0,000 mm 0,0 UV-I 0 W/m 3,3 C -3,1 C 32,2 km/h (5 Bft) 95,65 %
24.04.2016 01:11 4,7 C 91 % 1007,3 hPa 0,2 l/m 18,4 km/h (3 Bft) W-SW 257 0 min 0,000 mm 0,0 UV-I 0 W/m 3,4 C -2,9 C 29,0 km/h (5 Bft) 100,00 %
24.04.2016 01:12 4,7 C 91 % 1007,3 hPa 0,0 l/m 16,7 km/h (3 Bft) W 262 0 min 0,000 mm 0,0 UV-I 0 W/m 3,4 C -2,1 C 25,7 km/h (4 Bft) 95,65 %
24.04.2016 01:13 4,7 C 91 % 1007,4 hPa 0,0 l/m 28,8 km/h (4 Bft) W 275 0 min 0,000 mm 0,0 UV-I 0 W/m 3,4 C -6,5 C 43,5 km/h (6 Bft) 96,30 %
24.04.2016 01:14 4,6 C 91 % 1007,3 hPa 0,0 l/m 24,9 km/h (4 Bft) W-NW 283 0 min 0,000 mm 0,0 UV-I 0 W/m 3,3 C -5,5 C 35,4 km/h (5 Bft) 91,67 %
24.04.2016 01:15 4,6 C 91 % 1007,4 hPa 0,0 l/m 17,9 km/h (3 Bft) W-SW 256 0 min 0,000 mm 0,0 UV-I 0 W/m 3,3 C -2,8 C 29,0 km/h (5 Bft) 100,00 %
24.04.2016 01:16 4,5 C 91 % 1007,4 hPa 0,0 l/m 20,1 km/h (4 Bft) W-SW 237 0 min 0,000 mm 0,0 UV-I 0 W/m 3,2 C -3,9 C 35,4 km/h (5 Bft) 96,30 %
24.04.2016 01:17 4,5 C 91 % 1007,5 hPa 0,2 l/m 28,9 km/h (5 Bft) W 277 0 min 0,000 mm 0,0 UV-I 0 W/m 3,2 C -6,8 C 43,5 km/h (6 Bft) 96,15 %
24.04.2016 01:18 4,4 C 91 % 1007,4 hPa 0,0 l/m 20,2 km/h (4 Bft) W 278 0 min 0,000 mm 0,0 UV-I 0 W/m 3,1 C -4,0 C 30,6 km/h (5 Bft) 100,00 %
24.04.2016 01:19 4,4 C 91 % 1007,5 hPa 0,0 l/m 22,0 km/h (4 Bft) W 262 0 min 0,000 mm 0,0 UV-I 0 W/m 3,1 C -4,7 C 35,4 km/h (5 Bft) 85,71 %
24.04.2016 01:20 4,4 C 91 % 1007,6 hPa 0,2 l/m 22,2 km/h (4 Bft) W 259 0 min 0,000 mm 0,0 UV-I 0 W/m 3,1 C -4,8 C 29,0 km/h (5 Bft) 100,00 %
24.04.2016 01:21 4,3 C 91 % 1007,6 hPa 0,0 l/m 16,9 km/h (3 Bft) SW 227 0 min 0,000 mm 0,0 UV-I 0 W/m 3,0 C -2,7 C 22,5 km/h (4 Bft) 96,30 %
24.04.2016 01:22 4,3 C 91 % 1007,7 hPa 0,0 l/m 29,7 km/h (5 Bft) W-SW 250 0 min 0,000 mm 0,0 UV-I 0 W/m 3,0 C -7,3 C 40,2 km/h (6 Bft) 100,00 %
24.04.2016 01:23 4,3 C 91 % 1007,7 hPa 0,2 l/m 19,9 km/h (4 Bft) W 279 0 min 0,000 mm 0,0 UV-I 0 W/m 3,0 C -4,0 C 29,0 km/h (5 Bft) 96,15 %
24.04.2016 01:24 4,3 C 91 % 1007,7 hPa 0,0 l/m 15,2 km/h (3 Bft) W-SW 257 0 min 0,000 mm 0,0 UV-I 0 W/m 3,0 C -1,9 C 29,0 km/h (5 Bft) 96,30 %
24.04.2016 01:25 4,2 C 91 % 1007,7 hPa 0,0 l/m 20,9 km/h (4 Bft) W-SW 240 0 min 0,000 mm 0,0 UV-I 0 W/m 2,9 C -4,6 C 29,0 km/h (5 Bft) 95,65 %
24.04.2016 01:26 4,2 C 92 % 1007,7 hPa 0,2 l/m 19,0 km/h (3 Bft) SW 223 0 min 0,000 mm 0,0 UV-I 0 W/m 3,0 C -3,8 C 30,6 km/h (5 Bft) 91,67 %
24.04.2016 01:27 4,2 C 92 % 1007,8 hPa 0,0 l/m 21,6 km/h (4 Bft) SW 234 0 min 0,000 mm 0,0 UV-I 0 W/m 3,0 C -4,8 C 29,0 km/h (5 Bft) 100,00 %
24.04.2016 01:28 4,2 C 92 % 1007,8 hPa 0,0 l/m 19,6 km/h (3 Bft) W 278 0 min 0,000 mm 0,0 UV-I 0 W/m 3,0 C -4,0 C 29,0 km/h (5 Bft) 96,15 %
24.04.2016 01:29 4,2 C 92 % 1007,8 hPa 0,0 l/m 19,6 km/h (3 Bft) W-SW 242 0 min 0,000 mm 0,0 UV-I 0 W/m 3,0 C -4,0 C 32,2 km/h (5 Bft) 100,00 %
24.04.2016 01:30 4,1 C 92 % 1007,7 hPa 0,0 l/m 25,9 km/h (4 Bft) SW 235 0 min 0,000 mm 0,0 UV-I 0 W/m 2,9 C -6,5 C 32,2 km/h (5 Bft) 96,15 %
24.04.2016 01:31 4,1 C 92 % 1007,9 hPa 0,2 l/m 27,9 km/h (4 Bft) W-SW 239 0 min 0,000 mm 0,0 UV-I 0 W/m 2,9 C -7,1 C 40,2 km/h (6 Bft) 100,00 %
24.04.2016 01:32 4,1 C 92 % 1007,9 hPa 0,0 l/m 21,9 km/h (4 Bft) SW 222 0 min 0,000 mm 0,0 UV-I 0 W/m 2,9 C -5,1 C 32,2 km/h (5 Bft) 95,83 %
24.04.2016 01:33 4,1 C 92 % 1008,0 hPa 0,0 l/m 18,6 km/h (3 Bft) W-SW 252 0 min 0,000 mm 0,0 UV-I 0 W/m 2,9 C -3,7 C 25,7 km/h (4 Bft) 100,00 %
24.04.2016 01:34 4,1 C 92 % 1007,9 hPa 0,0 l/m 17,5 km/h (3 Bft) W 264 0 min 0,000 mm 0,0 UV-I 0 W/m 2,9 C -3,2 C 25,7 km/h (4 Bft) 96,15 %
24.04.2016 01:35 4,0 C 92 % 1008,0 hPa 0,0 l/m 19,2 km/h (3 Bft) W 279 0 min 0,000 mm 0,0 UV-I 0 W/m 2,8 C -4,1 C 25,7 km/h (4 Bft) 96,30 %
24.04.2016 01:36 4,0 C 92 % 1008,0 hPa 0,0 l/m 20,0 km/h (4 Bft) W-SW 254 0 min 0,000 mm 0,0 UV-I 0 W/m 2,8 C -4,5 C 27,4 km/h (4 Bft) 93,10 %
24.04.2016 01:37 3,9 C 92 % 1008,0 hPa 0,2 l/m 18,4 km/h (3 Bft) W-SW 255 0 min 0,000 mm 0,0 UV-I 0 W/m 2,7 C -3,9 C 25,7 km/h (4 Bft) 91,67 %
24.04.2016 01:38 3,9 C 92 % 1008,1 hPa 0,0 l/m 18,4 km/h (3 Bft) W 267 0 min 0,000 mm 0,0 UV-I 0 W/m 2,7 C -3,9 C 22,5 km/h (4 Bft) 96,15 %
24.04.2016 01:39 3,9 C 92 % 1008,1 hPa 0,0 l/m 15,6 km/h (3 Bft) W-SW 241 0 min 0,000 mm 0,0 UV-I 0 W/m 2,7 C -2,6 C 19,3 km/h (3 Bft) 100,00 %
24.04.2016 01:40 3,9 C 92 % 1008,1 hPa 0,0 l/m 23,8 km/h (4 Bft) SW 234 0 min 0,000 mm 0,0 UV-I 0 W/m 2,7 C -6,0 C 37,0 km/h (5 Bft) 100,00 %
24.04.2016 01:41 3,9 C 92 % 1008,1 hPa 0,0 l/m 23,3 km/h (4 Bft) W 262 0 min 0,000 mm 0,0 UV-I 0 W/m 2,7 C -5,9 C 33,8 km/h (5 Bft) 96,30 %
24.04.2016 01:42 3,9 C 92 % 1008,1 hPa 0,0 l/m 16,9 km/h (3 Bft) SW 234 0 min 0,000 mm 0,0 UV-I 0 W/m 2,7 C -3,2 C 20,9 km/h (4 Bft) 100,00 %
24.04.2016 01:43 3,9 C 92 % 1008,1 hPa 0,0 l/m 22,7 km/h (4 Bft) W-SW 242 0 min 0,000 mm 0,0 UV-I 0 W/m 2,7 C -5,6 C 33,8 km/h (5 Bft) 100,00 %
24.04.2016 01:44 3,9 C 92 % 1008,1 hPa 0,0 l/m 19,9 km/h (4 Bft) W-NW 285 0 min 0,000 mm 0,0 UV-I 0 W/m 2,7 C -4,6 C 33,8 km/h (5 Bft) 100,00 %
24.04.2016 01:45 3,8 C 92 % 1008,1 hPa 0,2 l/m 22,3 km/h (4 Bft) W-SW 256 0 min 0,000 mm 0,0 UV-I 0 W/m 2,6 C -5,6 C 37,0 km/h (5 Bft) 100,00 %
24.04.2016 01:46 3,8 C 92 % 1008,1 hPa 0,0 l/m 21,7 km/h (4 Bft) SW 236 0 min 0,000 mm 0,0 UV-I 0 W/m 2,6 C -5,4 C 37,0 km/h (5 Bft) 100,00 %
24.04.2016 01:47 3,8 C 92 % 1008,1 hPa 0,0 l/m 21,9 km/h (4 Bft) W 281 0 min 0,000 mm 0,0 UV-I 0 W/m 2,6 C -5,5 C 30,6 km/h (5 Bft) 100,00 %
24.04.2016 01:48 3,8 C 92 % 1008,2 hPa 0,0 l/m 24,8 km/h (4 Bft) W-SW 248 0 min 0,000 mm 0,0 UV-I 0 W/m 2,6 C -6,5 C 37,0 km/h (5 Bft) 100,00 %
24.04.2016 01:49 3,8 C 92 % 1008,3 hPa 0,0 l/m 20,8 km/h (4 Bft) W-SW 241 0 min 0,000 mm 0,0 UV-I 0 W/m 2,6 C -5,0 C 32,2 km/h (5 Bft) 100,00 %
24.04.2016 01:50 3,8 C 92 % 1008,3 hPa 0,0 l/m 20,6 km/h (4 Bft) W-SW 255 0 min 0,000 mm 0,0 UV-I 0 W/m 2,6 C -5,0 C 29,0 km/h (5 Bft) 92,31 %
24.04.2016 01:51 3,8 C 92 % 1008,3 hPa 0,0 l/m 20,2 km/h (4 Bft) W-SW 257 0 min 0,000 mm 0,0 UV-I 0 W/m 2,6 C -4,8 C 27,4 km/h (4 Bft) 100,00 %
24.04.2016 01:52 3,8 C 92 % 1008,3 hPa 0,2 l/m 13,6 km/h (3 Bft) W 269 0 min 0,000 mm 0,0 UV-I 0 W/m 2,6 C -1,6 C 27,4 km/h (4 Bft) 100,00 %
24.04.2016 01:53 3,8 C 92 % 1008,3 hPa 0,0 l/m 14,6 km/h (3 Bft) W-SW 256 0 min 0,000 mm 0,0 UV-I 0 W/m 2,6 C -2,2 C 17,7 km/h (3 Bft) 100,00 %
24.04.2016 01:54 3,8 C 92 % 1008,4 hPa 0,0 l/m 14,7 km/h (3 Bft) W-SW 254 0 min 0,000 mm 0,0 UV-I 0 W/m 2,6 C -2,2 C 17,7 km/h (3 Bft) 96,00 %
24.04.2016 01:55 3,8 C 93 % 1008,4 hPa 0,0 l/m 19,1 km/h (3 Bft) W 271 0 min 0,000 mm 0,0 UV-I 0 W/m 2,8 C -4,3 C 25,7 km/h (4 Bft) 100,00 %
24.04.2016 01:56 3,8 C 93 % 1008,3 hPa 0,0 l/m 21,1 km/h (4 Bft) W-SW 252 0 min 0,000 mm 0,0 UV-I 0 W/m 2,8 C -5,2 C 29,0 km/h (5 Bft) 100,00 %
24.04.2016 01:57 3,8 C 93 % 1008,4 hPa 0,0 l/m 14,8 km/h (3 Bft) W-SW 248 0 min 0,000 mm 0,0 UV-I 0 W/m 2,8 C -2,3 C 19,3 km/h (3 Bft) 100,00 %
24.04.2016 01:58 3,8 C 93 % 1008,4 hPa 0,0 l/m 17,0 km/h (3 Bft) W 277 0 min 0,000 mm 0,0 UV-I 0 W/m 2,8 C -3,4 C 25,7 km/h (4 Bft) 100,00 %
24.04.2016 01:59 3,8 C 93 % 1008,4 hPa 0,0 l/m 17,8 km/h (3 Bft) W-SW 242 0 min 0,000 mm 0,0 UV-I 0 W/m 2,8 C -3,8 C 27,4 km/h (4 Bft) 100,00 %
24.04.2016 02:00 3,8 C 93 % 1008,5 hPa 0,0 l/m 17,5 km/h (3 Bft) W-SW 256 0 min 0,000 mm 0,0 UV-I 0 W/m 2,8 C -3,6 C 25,7 km/h (4 Bft) 100,00 %
24.04.2016 02:01 3,7 C 93 % 1008,5 hPa 0,0 l/m 21,1 km/h (4 Bft) W-SW 253 0 min 0,025 mm 0,0 UV-I 0 W/m 2,7 C -5,3 C 29,0 km/h (5 Bft) 100,00 %
24.04.2016 02:02 3,7 C 93 % 1008,5 hPa 0,0 l/m 23,9 km/h (4 Bft) W-SW 251 0 min 0,001 mm 0,0 UV-I 0 W/m 2,7 C -6,3 C 30,6 km/h (5 Bft) 100,00 %
24.04.2016 02:03 3,7 C 93 % 1008,5 hPa 0,0 l/m 25,3 km/h (4 Bft) SW 219 0 min 0,000 mm 0,0 UV-I 0 W/m 2,7 C -6,8 C 38,6 km/h (5 Bft) 96,30 %
24.04.2016 02:04 3,7 C 92 % 1008,5 hPa 0,0 l/m 18,3 km/h (3 Bft) W-SW 245 0 min 0,000 mm 0,0 UV-I 0 W/m 2,5 C -4,1 C 35,4 km/h (5 Bft) 100,00 %
24.04.2016 02:05 3,7 C 93 % 1008,5 hPa 0,0 l/m 14,7 km/h (3 Bft) W 265 0 min 0,000 mm 0,0 UV-I 0 W/m 2,7 C -2,3 C 24,1 km/h (4 Bft) 100,00 %
24.04.2016 02:06 3,7 C 93 % 1008,5 hPa 0,0 l/m 17,5 km/h (3 Bft) W-SW 257 0 min 0,000 mm 0,0 UV-I 0 W/m 2,7 C -3,8 C 20,9 km/h (4 Bft) 100,00 %
24.04.2016 02:07 3,7 C 93 % 1008,6 hPa 0,0 l/m 18,9 km/h (3 Bft) SW 229 0 min 0,000 mm 0,0 UV-I 0 W/m 2,7 C -4,4 C 27,4 km/h (4 Bft) 100,00 %
24.04.2016 02:08 3,7 C 93 % 1008,6 hPa 0,0 l/m 16,7 km/h (3 Bft) W 277 0 min 0,000 mm 0,0 UV-I 0 W/m 2,7 C -3,4 C 27,4 km/h (4 Bft) 100,00 %
24.04.2016 02:09 3,7 C 93 % 1008,6 hPa 0,2 l/m 15,9 km/h (3 Bft) W-NW 288 0 min 0,000 mm 0,0 UV-I 0 W/m 2,7 C -3,0 C 19,3 km/h (3 Bft) 95,83 %
24.04.2016 02:10 3,7 C 93 % 1008,6 hPa 0,0 l/m 14,2 km/h (3 Bft) SW 234 0 min 0,000 mm 0,0 UV-I 0 W/m 2,7 C -2,1 C 20,9 km/h (4 Bft) 100,00 %
24.04.2016 02:11 3,6 C 93 % 1008,6 hPa 0,0 l/m 20,0 km/h (4 Bft) W 267 0 min 0,000 mm 0,0 UV-I 0 W/m 2,6 C -5,0 C 27,4 km/h (4 Bft) 95,83 %
24.04.2016 02:12 3,6 C 93 % 1008,6 hPa 0,0 l/m 17,6 km/h (3 Bft) W-SW 253 0 min 0,000 mm 0,0 UV-I 0 W/m 2,6 C -3,9 C 27,4 km/h (4 Bft) 100,00 %
24.04.2016 02:13 3,6 C 93 % 1008,7 hPa 0,0 l/m 15,0 km/h (3 Bft) W 271 0 min 0,000 mm 0,0 UV-I 0 W/m 2,6 C -2,6 C 20,9 km/h (4 Bft) 100,00 %
24.04.2016 02:14 3,6 C 93 % 1008,7 hPa 0,0 l/m 13,2 km/h (3 Bft) W-SW 250 0 min 0,000 mm 0,0 UV-I 0 W/m 2,6 C -1,6 C 19,3 km/h (3 Bft) 100,00 %
24.04.2016 02:15 3,6 C 93 % 1008,7 hPa 0,2 l/m 17,4 km/h (3 Bft) W 269 0 min 0,000 mm 0,0 UV-I 0 W/m 2,6 C -3,8 C 27,4 km/h (4 Bft) 100,00 %
24.04.2016 02:16 3,6 C 93 % 1008,7 hPa 0,0 l/m 11,4 km/h (2 Bft) W-SW 242 0 min 0,000 mm 0,0 UV-I 0 W/m 2,6 C -0,5 C 17,7 km/h (3 Bft) 100,00 %
24.04.2016 02:17 3,6 C 93 % 1008,7 hPa 0,0 l/m 14,8 km/h (3 Bft) W-SW 247 0 min 0,000 mm 0,0 UV-I 0 W/m 2,6 C -2,5 C 24,1 km/h (4 Bft) 100,00 %
24.04.2016 02:18 3,6 C 93 % 1008,7 hPa 0,0 l/m 16,6 km/h (3 Bft) W 263 0 min 0,000 mm 0,0 UV-I 0 W/m 2,6 C -3,4 C 27,4 km/h (4 Bft) 100,00 %
24.04.2016 02:19 3,5 C 93 % 1008,7 hPa 0,0 l/m 16,3 km/h (3 Bft) SW 223 0 min 0,000 mm 0,0 UV-I 0 W/m 2,5 C -3,4 C 22,5 km/h (4 Bft) 100,00 %
24.04.2016 02:20 3,5 C 93 % 1008,7 hPa 0,0 l/m 14,3 km/h (3 Bft) SW 233 0 min 0,000 mm 0,0 UV-I 0 W/m 2,5 C -2,4 C 22,5 km/h (4 Bft) 100,00 %
24.04.2016 02:21 3,5 C 93 % 1008,8 hPa 0,0 l/m 10,1 km/h (2 Bft) W 261 0 min 0,000 mm 0,0 UV-I 0 W/m 2,5 C 0,3 C 14,5 km/h (3 Bft) 100,00 %
24.04.2016 02:22 3,5 C 93 % 1008,8 hPa 0,0 l/m 11,1 km/h (2 Bft) W-SW 248 0 min 0,000 mm 0,0 UV-I 0 W/m 2,5 C -0,4 C 17,7 km/h (3 Bft) 100,00 %
24.04.2016 02:23 3,5 C 93 % 1008,8 hPa 0,0 l/m 13,5 km/h (3 Bft) W-SW 247 0 min 0,000 mm 0,0 UV-I 0 W/m 2,5 C -1,9 C 16,1 km/h (3 Bft) 100,00 %
24.04.2016 02:24 3,5 C 93 % 1008,8 hPa 0,0 l/m 15,1 km/h (3 Bft) W-SW 257 0 min 0,000 mm 0,0 UV-I 0 W/m 2,5 C -2,8 C 22,5 km/h (4 Bft) 100,00 %
24.04.2016 02:25 3,5 C 93 % 1008,8 hPa 0,2 l/m 18,2 km/h (3 Bft) W-SW 246 0 min 0,000 mm 0,0 UV-I 0 W/m 2,5 C -4,3 C 25,7 km/h (4 Bft) 100,00 %
24.04.2016 02:26 3,5 C 93 % 1008,8 hPa 0,0 l/m 16,0 km/h (3 Bft) W 261 0 min 0,000 mm 0,0 UV-I 0 W/m 2,5 C -3,3 C 24,1 km/h (4 Bft) 95,65 %
24.04.2016 02:27 3,5 C 93 % 1008,8 hPa 0,0 l/m 11,9 km/h (2 Bft) W 265 0 min 0,000 mm 0,0 UV-I 0 W/m 2,5 C -0,9 C 14,5 km/h (3 Bft) 100,00 %
24.04.2016 02:28 3,5 C 93 % 1008,8 hPa 0,0 l/m 11,6 km/h (2 Bft) W-SW 242 0 min 0,000 mm 0,0 UV-I 0 W/m 2,5 C -0,7 C 22,5 km/h (4 Bft) 91,67 %
24.04.2016 02:29 3,4 C 93 % 1008,8 hPa 0,0 l/m 18,9 km/h (3 Bft) W 271 0 min 0,000 mm 0,0 UV-I 0 W/m 2,4 C -4,8 C 25,7 km/h (4 Bft) 100,00 %
24.04.2016 02:30 3,4 C 93 % 1008,8 hPa 0,0 l/m 14,6 km/h (3 Bft) W 270 0 min 0,000 mm 0,0 UV-I 0 W/m 2,4 C -2,6 C 24,1 km/h (4 Bft) 100,00 %
24.04.2016 02:31 3,4 C 93 % 1008,8 hPa 0,0 l/m 12,1 km/h (2 Bft) W-NW 288 0 min 0,000 mm 0,0 UV-I 0 W/m 2,4 C -1,2 C 17,7 km/h (3 Bft) 100,00 %
24.04.2016 02:32 3,4 C 93 % 1008,8 hPa 0,0 l/m 10,8 km/h (2 Bft) W-NW 282 0 min 0,000 mm 0,0 UV-I 0 W/m 2,4 C -0,3 C 12,9 km/h (3 Bft) 100,00 %
24.04.2016 02:33 3,4 C 93 % 1008,8 hPa 0,0 l/m 8,0 km/h (2 Bft) W 271 0 min 0,000 mm 0,0 UV-I 0 W/m 2,4 C 1,9 C 12,9 km/h (3 Bft) 96,15 %
24.04.2016 02:34 3,4 C 93 % 1008,8 hPa 0,0 l/m 12,9 km/h (3 Bft) W 281 0 min 0,000 mm 0,0 UV-I 0 W/m 2,4 C -1,7 C 16,1 km/h (3 Bft) 100,00 %
24.04.2016 02:35 3,4 C 93 % 1008,8 hPa 0,0 l/m 10,3 km/h (2 Bft) NW 325 0 min 0,000 mm 0,0 UV-I 0 W/m 2,4 C 0,1 C 14,5 km/h (3 Bft) 92,86 %
24.04.2016 02:36 3,4 C 94 % 1008,9 hPa 0,0 l/m 13,6 km/h (3 Bft) W-SW 251 0 min 0,000 mm 0,0 UV-I 0 W/m 2,5 C -2,1 C 17,7 km/h (3 Bft) 100,00 %
24.04.2016 02:37 3,4 C 93 % 1008,9 hPa 0,0 l/m 11,2 km/h (2 Bft) W 262 0 min 0,000 mm 0,0 UV-I 0 W/m 2,4 C -0,6 C 14,5 km/h (3 Bft) 100,00 %
24.04.2016 02:38 3,4 C 93 % 1008,9 hPa 0,2 l/m 14,8 km/h (3 Bft) W-NW 288 0 min 0,000 mm 0,0 UV-I 0 W/m 2,4 C -2,8 C 19,3 km/h (3 Bft) 96,67 %
24.04.2016 02:39 3,4 C 93 % 1008,9 hPa 0,0 l/m 16,3 km/h (3 Bft) W 259 0 min 0,000 mm 0,0 UV-I 0 W/m 2,4 C -3,5 C 25,7 km/h (4 Bft) 100,00 %
24.04.2016 02:40 3,4 C 93 % 1008,9 hPa 0,0 l/m 11,4 km/h (2 Bft) W 260 0 min 0,000 mm 0,0 UV-I 0 W/m 2,4 C -0,7 C 16,1 km/h (3 Bft) 100,00 %
24.04.2016 02:41 3,4 C 93 % 1008,9 hPa 0,0 l/m 17,0 km/h (3 Bft) W-SW 255 0 min 0,000 mm 0,0 UV-I 0 W/m 2,4 C -3,9 C 20,9 km/h (4 Bft) 100,00 %
24.04.2016 02:42 3,4 C 93 % 1008,9 hPa 0,0 l/m 14,2 km/h (3 Bft) W-SW 242 0 min 0,000 mm 0,0 UV-I 0 W/m 2,4 C -2,4 C 19,3 km/h (3 Bft) 100,00 %
24.04.2016 02:43 3,4 C 93 % 1008,9 hPa 0,0 l/m 9,8 km/h (2 Bft) W-SW 256 0 min 0,000 mm 0,0 UV-I 0 W/m 2,4 C 0,5 C 16,1 km/h (3 Bft) 100,00 %
24.04.2016 02:44 3,4 C 93 % 1009,0 hPa 0,0 l/m 9,0 km/h (2 Bft) W-SW 254 0 min 0,000 mm 0,0 UV-I 0 W/m 2,4 C 1,1 C 11,3 km/h (2 Bft) 100,00 %
24.04.2016 02:45 3,4 C 93 % 1009,0 hPa 0,0 l/m 7,6 km/h (2 Bft) W-SW 252 0 min 0,000 mm 0,0 UV-I 0 W/m 2,4 C 2,3 C 12,9 km/h (3 Bft) 96,15 %
24.04.2016 02:46 3,4 C 94 % 1009,0 hPa 0,0 l/m 10,3 km/h (2 Bft) W 259 0 min 0,000 mm 0,0 UV-I 0 W/m 2,5 C 0,1 C 14,5 km/h (3 Bft) 100,00 %
24.04.2016 02:47 3,4 C 94 % 1009,0 hPa 0,0 l/m 10,6 km/h (2 Bft) W 270 0 min 0,000 mm 0,0 UV-I 0 W/m 2,5 C -0,1 C 16,1 km/h (3 Bft) 100,00 %
24.04.2016 02:48 3,4 C 94 % 1008,9 hPa 0,0 l/m 9,9 km/h (2 Bft) W-SW 245 0 min 0,000 mm 0,0 UV-I 0 W/m 2,5 C 0,4 C 16,1 km/h (3 Bft) 100,00 %
24.04.2016 02:49 3,4 C 94 % 1009,0 hPa 0,0 l/m 9,3 km/h (2 Bft) W 260 0 min 0,000 mm 0,0 UV-I 0 W/m 2,5 C 0,8 C 19,3 km/h (3 Bft) 100,00 %
24.04.2016 02:50 3,4 C 94 % 1009,0 hPa 0,0 l/m 7,0 km/h (2 Bft) SW 233 0 min 0,000 mm 0,0 UV-I 0 W/m 2,5 C 2,8 C 9,7 km/h (2 Bft) 100,00 %
24.04.2016 02:51 3,4 C 94 % 1009,0 hPa 0,0 l/m 8,2 km/h (2 Bft) W 272 0 min 0,000 mm 0,0 UV-I 0 W/m 2,5 C 1,7 C 11,3 km/h (2 Bft) 100,00 %
24.04.2016 02:52 3,4 C 94 % 1009,0 hPa 0,0 l/m 9,6 km/h (2 Bft) W 273 0 min 0,000 mm 0,0 UV-I 0 W/m 2,5 C 0,6 C 14,5 km/h (3 Bft) 100,00 %
24.04.2016 02:53 3,4 C 94 % 1009,0 hPa 0,0 l/m 10,1 km/h (2 Bft) W-SW 242 0 min 0,000 mm 0,0 UV-I 0 W/m 2,5 C 0,2 C 16,1 km/h (3 Bft) 100,00 %
24.04.2016 02:54 3,4 C 94 % 1009,1 hPa 0,0 l/m 9,7 km/h (2 Bft) W-SW 255 0 min 0,000 mm 0,0 UV-I 0 W/m 2,5 C 0,5 C 14,5 km/h (3 Bft) 100,00 %
24.04.2016 02:55 3,4 C 94 % 1009,1 hPa 0,0 l/m 10,9 km/h (2 Bft) W-SW 250 0 min 0,000 mm 0,0 UV-I 0 W/m 2,5 C -0,3 C 14,5 km/h (3 Bft) 100,00 %
24.04.2016 02:56 3,5 C 94 % 1009,1 hPa 0,0 l/m 10,9 km/h (2 Bft) W-SW 251 0 min 0,000 mm 0,0 UV-I 0 W/m 2,6 C -0,2 C 14,5 km/h (3 Bft) 100,00 %
24.04.2016 02:57 3,4 C 94 % 1009,1 hPa 0,0 l/m 9,0 km/h (2 Bft) W 278 0 min 0,000 mm 0,0 UV-I 0 W/m 2,5 C 1,1 C 12,9 km/h (3 Bft) 96,30 %
24.04.2016 02:58 3,5 C 94 % 1009,1 hPa 0,0 l/m 7,2 km/h (2 Bft) W 259 0 min 0,000 mm 0,0 UV-I 0 W/m 2,6 C 2,8 C 16,1 km/h (3 Bft) 100,00 %
24.04.2016 02:59 3,5 C 94 % 1009,1 hPa 0,2 l/m 13,3 km/h (3 Bft) W-SW 257 0 min 0,000 mm 0,0 UV-I 0 W/m 2,6 C -1,8 C 17,7 km/h (3 Bft) 100,00 %
24.04.2016 03:00 3,5 C 94 % 1009,1 hPa 0,0 l/m 8,6 km/h (2 Bft) W-SW 240 0 min 0,000 mm 0,0 UV-I 0 W/m 2,6 C 1,5 C 11,3 km/h (2 Bft) 100,00 %
24.04.2016 03:02 3,5 C 94 % 1009,1 hPa 0,0 l/m 5,9 km/h (2 Bft) W-SW 258 0 min 0,000 mm 0,0 UV-I 0 W/m 2,6 C 3,5 C 11,3 km/h (2 Bft) 100,00 %
24.04.2016 03:05 3,5 C 94 % 1009,1 hPa 0,0 l/m 9,7 km/h (2 Bft) W 270 0 min 0,000 mm 0,0 UV-I 0 W/m 2,6 C 0,6 C 20,9 km/h (4 Bft) 99,12 %
24.04.2016 03:10 3,6 C 94 % 1009,2 hPa 0,0 l/m 8,0 km/h (2 Bft) W 270 0 min 0,000 mm 0,0 UV-I 0 W/m 2,7 C 2,1 C 16,1 km/h (3 Bft) 100,00 %
24.04.2016 03:15 3,6 C 94 % 1009,2 hPa 0,0 l/m 9,7 km/h (2 Bft) W-SW 247 0 min 0,000 mm 0,0 UV-I 0 W/m 2,7 C 0,8 C 16,1 km/h (3 Bft) 100,00 %
24.04.2016 03:20 3,7 C 94 % 1009,3 hPa 0,0 l/m 6,4 km/h (2 Bft) W-SW 247 0 min 0,000 mm 0,0 UV-I 0 W/m 2,8 C 3,7 C 11,3 km/h (2 Bft) 100,00 %
24.04.2016 03:25 3,7 C 94 % 1009,2 hPa 0,0 l/m 8,0 km/h (2 Bft) W 270 0 min 0,000 mm 0,0 UV-I 0 W/m 2,8 C 2,2 C 12,9 km/h (3 Bft) 100,00 %
24.04.2016 03:30 3,7 C 94 % 1009,3 hPa 0,0 l/m 6,4 km/h (2 Bft) W 270 0 min 0,000 mm 0,0 UV-I 0 W/m 2,8 C 3,7 C 16,1 km/h (3 Bft) 100,00 %
24.04.2016 03:35 3,7 C 94 % 1009,4 hPa 0,0 l/m 6,4 km/h (2 Bft) W-SW 247 0 min 0,000 mm 0,0 UV-I 0 W/m 2,8 C 3,7 C 12,9 km/h (3 Bft) 100,00 %
24.04.2016 03:40 3,6 C 94 % 1009,3 hPa 0,0 l/m 8,0 km/h (2 Bft) W 270 0 min 0,000 mm 0,0 UV-I 0 W/m 2,7 C 2,1 C 17,7 km/h (3 Bft) 99,12 %
24.04.2016 03:45 3,6 C 94 % 1009,4 hPa 0,0 l/m 9,7 km/h (2 Bft) W-SW 247 0 min 0,000 mm 0,0 UV-I 0 W/m 2,7 C 0,8 C 16,1 km/h (3 Bft) 99,12 %
24.04.2016 03:50 3,6 C 93 % 1009,4 hPa 0,0 l/m 9,7 km/h (2 Bft) W 270 0 min 0,000 mm 0,0 UV-I 0 W/m 2,6 C 0,8 C 20,9 km/h (4 Bft) 97,37 %
24.04.2016 03:55 3,4 C 92 % 1009,5 hPa 0,0 l/m 8,0 km/h (2 Bft) W-SW 247 0 min 0,000 mm 0,0 UV-I 0 W/m 2,2 C 1,9 C 14,5 km/h (3 Bft) 97,37 %
24.04.2016 04:00 3,3 C 91 % 1009,5 hPa 0,0 l/m 9,7 km/h (2 Bft) W 270 0 min 0,000 mm 0,0 UV-I 0 W/m 2,0 C 0,4 C 20,9 km/h (4 Bft) 97,37 %
24.04.2016 04:05 3,2 C 90 % 1009,6 hPa 0,2 l/m 11,3 km/h (2 Bft) W 270 0 min 0,000 mm 0,0 UV-I 0 W/m 1,7 C -0,8 C 27,4 km/h (4 Bft) 97,37 %
24.04.2016 04:10 3,1 C 91 % 1009,7 hPa 0,0 l/m 4,8 km/h (1 Bft) W-SW 247 0 min 0,000 mm 0,0 UV-I 0 W/m 1,8 C 3,1 C 11,3 km/h (2 Bft) 97,37 %
24.04.2016 04:15 2,9 C 90 % 1009,6 hPa 0,0 l/m 4,8 km/h (1 Bft) W 270 0 min 0,000 mm 0,0 UV-I 0 W/m 1,4 C 2,9 C 11,3 km/h (2 Bft) 97,37 %
24.04.2016 04:20 2,8 C 91 % 1009,6 hPa 0,0 l/m 3,2 km/h (1 Bft) W 270 0 min 0,000 mm 0,0 UV-I 0 W/m 1,5 C 2,8 C 6,4 km/h (2 Bft) 99,12 %
24.04.2016 04:25 2,8 C 92 % 1009,6 hPa 0,0 l/m 3,2 km/h (1 Bft) W-SW 247 0 min 0,000 mm 0,0 UV-I 0 W/m 1,6 C 2,8 C 9,7 km/h (2 Bft) 100,00 %
24.04.2016 04:30 2,8 C 92 % 1009,6 hPa 0,0 l/m 6,4 km/h (2 Bft) W 270 0 min 0,000 mm 0,0 UV-I 0 W/m 1,6 C 2,8 C 12,9 km/h (3 Bft) 99,12 %
24.04.2016 04:35 2,8 C 92 % 1009,5 hPa 0,0 l/m 6,4 km/h (2 Bft) W-SW 247 0 min 0,000 mm 0,0 UV-I 0 W/m 1,6 C 2,8 C 11,3 km/h (2 Bft) 100,00 %
24.04.2016 04:40 2,9 C 93 % 1009,5 hPa 0,0 l/m 4,8 km/h (1 Bft) W-SW 247 0 min 0,000 mm 0,0 UV-I 0 W/m 1,9 C 2,9 C 11,3 km/h (2 Bft) 100,00 %
24.04.2016 04:45 3,0 C 93 % 1009,5 hPa 0,0 l/m 4,8 km/h (1 Bft) SW 225 0 min 0,000 mm 0,0 UV-I 0 W/m 2,0 C 3,0 C 9,7 km/h (2 Bft) 100,00 %
24.04.2016 04:50 3,1 C 93 % 1009,5 hPa 0,0 l/m 6,4 km/h (2 Bft) SW 225 0 min 0,000 mm 0,0 UV-I 0 W/m 2,1 C 3,1 C 12,9 km/h (3 Bft) 99,12 %
24.04.2016 04:55 3,2 C 94 % 1009,5 hPa 0,0 l/m 8,0 km/h (2 Bft) W-SW 247 0 min 0,000 mm 0,0 UV-I 0 W/m 2,3 C 1,7 C 17,7 km/h (3 Bft) 100,00 %
24.04.2016 05:00 3,3 C 94 % 1009,5 hPa 0,0 l/m 9,7 km/h (2 Bft) W-SW 247 0 min 0,000 mm 0,0 UV-I 0 W/m 2,4 C 0,4 C 19,3 km/h (3 Bft) 100,00 %
24.04.2016 05:05 3,3 C 93 % 1009,5 hPa 0,0 l/m 12,9 km/h (3 Bft) W-SW 247 0 min 0,000 mm 0,0 UV-I 0 W/m 2,3 C -1,8 C 19,3 km/h (3 Bft) 100,00 %
24.04.2016 05:10 3,3 C 93 % 1009,5 hPa 0,0 l/m 11,3 km/h (2 Bft) W-SW 247 0 min 0,000 mm 0,0 UV-I 0 W/m 2,3 C -0,7 C 20,9 km/h (4 Bft) 100,00 %
24.04.2016 05:15 3,4 C 93 % 1009,4 hPa 0,0 l/m 14,5 km/h (3 Bft) W-SW 247 0 min 0,000 mm 0,0 UV-I 0 W/m 2,4 C -2,6 C 25,7 km/h (4 Bft) 99,12 %
24.04.2016 05:20 3,4 C 93 % 1009,5 hPa 0,0 l/m 11,3 km/h (2 Bft) W 270 0 min 0,000 mm 0,0 UV-I 0 W/m 2,4 C -0,6 C 19,3 km/h (3 Bft) 100,00 %
24.04.2016 05:25 3,5 C 93 % 1009,5 hPa 0,2 l/m 14,5 km/h (3 Bft) W-SW 247 0 min 0,000 mm 0,0 UV-I 0 W/m 2,5 C -2,5 C 22,5 km/h (4 Bft) 100,00 %
24.04.2016 05:30 3,5 C 92 % 1009,4 hPa 0,0 l/m 12,9 km/h (3 Bft) W-SW 247 0 min 0,000 mm 0,0 UV-I 0 W/m 2,3 C -1,5 C 22,5 km/h (4 Bft) 100,00 %
24.04.2016 05:35 3,5 C 92 % 1009,5 hPa 0,0 l/m 11,3 km/h (2 Bft) W-SW 247 0 min 0,000 mm 0,0 UV-I 0 W/m 2,3 C -0,5 C 22,5 km/h (4 Bft) 100,00 %
24.04.2016 05:40 3,5 C 92 % 1009,5 hPa 0,0 l/m 12,9 km/h (3 Bft) W 270 0 min 0,000 mm 0,0 UV-I 0 W/m 2,3 C -1,5 C 20,9 km/h (4 Bft) 98,25 %
24.04.2016 05:45 3,5 C 92 % 1009,6 hPa 0,0 l/m 11,3 km/h (2 Bft) W 270 0 min 0,000 mm 0,0 UV-I 0 W/m 2,3 C -0,5 C 20,9 km/h (4 Bft) 100,00 %
24.04.2016 05:50 3,4 C 92 % 1009,7 hPa 0,0 l/m 9,7 km/h (2 Bft) W-SW 247 0 min 0,000 mm 0,0 UV-I 0 W/m 2,2 C 0,5 C 19,3 km/h (3 Bft) 97,37 %
24.04.2016 05:55 3,4 C 92 % 1009,6 hPa 0,0 l/m 11,3 km/h (2 Bft) W 270 0 min 0,000 mm 0,0 UV-I 0 W/m 2,2 C -0,6 C 20,9 km/h (4 Bft) 96,49 %
24.04.2016 06:00 3,4 C 91 % 1009,6 hPa 0,0 l/m 14,5 km/h (3 Bft) W 270 0 min 0,000 mm 0,0 UV-I 0 W/m 2,1 C -2,6 C 32,2 km/h (5 Bft) 98,25 %
24.04.2016 06:05 3,4 C 92 % 1009,5 hPa 0,0 l/m 11,3 km/h (2 Bft) W 270 0 min 0,000 mm 0,0 UV-I 0 W/m 2,2 C -0,6 C 19,3 km/h (3 Bft) 97,37 %
24.04.2016 06:10 3,3 C 92 % 1009,6 hPa 0,0 l/m 11,3 km/h (2 Bft) W-SW 247 0 min 0,000 mm 0,0 UV-I 0 W/m 2,1 C -0,7 C 20,9 km/h (4 Bft) 95,61 %
24.04.2016 06:15 3,3 C 91 % 1009,7 hPa 0,0 l/m 14,5 km/h (3 Bft) W-SW 247 0 min 0,000 mm 0,0 UV-I 5 W/m 2,0 C -2,7 C 24,1 km/h (4 Bft) 97,37 %
24.04.2016 06:20 3,3 C 91 % 1009,7 hPa 0,0 l/m 12,9 km/h (3 Bft) W 270 0 min 0,000 mm 0,0 UV-I 6 W/m 2,0 C -1,8 C 20,9 km/h (4 Bft) 98,25 %
24.04.2016 06:25 3,3 C 91 % 1009,7 hPa 0,0 l/m 11,3 km/h (2 Bft) W 270 0 min 0,000 mm 0,0 UV-I 7 W/m 2,0 C -0,7 C 20,9 km/h (4 Bft) 98,25 %
24.04.2016 06:30 3,3 C 91 % 1009,8 hPa 0,0 l/m 11,3 km/h (2 Bft) W 270 0 min 0,000 mm 0,0 UV-I 9 W/m 2,0 C -0,7 C 22,5 km/h (4 Bft) 100,00 %
24.04.2016 06:35 3,3 C 91 % 1009,8 hPa 0,0 l/m 11,3 km/h (2 Bft) W 270 0 min 0,000 mm 0,0 UV-I 11 W/m 2,0 C -0,7 C 17,7 km/h (3 Bft) 100,00 %
24.04.2016 06:40 3,3 C 91 % 1009,9 hPa 0,0 l/m 9,7 km/h (2 Bft) W 270 0 min 0,000 mm 0,0 UV-I 15 W/m 2,0 C 0,4 C 20,9 km/h (4 Bft) 100,00 %
24.04.2016 06:45 3,3 C 91 % 1009,9 hPa 0,0 l/m 8,0 km/h (2 Bft) W 270 0 min 0,000 mm 0,0 UV-I 19 W/m 2,0 C 1,8 C 16,1 km/h (3 Bft) 99,12 %
24.04.2016 06:50 3,3 C 91 % 1010,0 hPa 0,0 l/m 11,3 km/h (2 Bft) W-SW 247 0 min 0,000 mm 0,0 UV-I 26 W/m 2,0 C -0,7 C 19,3 km/h (3 Bft) 99,12 %
24.04.2016 06:55 3,3 C 91 % 1009,9 hPa 0,0 l/m 11,3 km/h (2 Bft) W-SW 247 0 min 0,000 mm 0,0 UV-I 30 W/m 2,0 C -0,7 C 24,1 km/h (4 Bft) 100,00 %
24.04.2016 07:00 3,3 C 91 % 1010,0 hPa 0,0 l/m 9,7 km/h (2 Bft) W 270 0 min 0,025 mm 0,0 UV-I 35 W/m 2,0 C 0,4 C 16,1 km/h (3 Bft) 100,00 %
24.04.2016 07:05 3,3 C 90 % 1010,0 hPa 0,0 l/m 11,3 km/h (2 Bft) W-SW 247 0 min 0,000 mm 0,0 UV-I 37 W/m 1,8 C -0,7 C 19,3 km/h (3 Bft) 100,00 %
24.04.2016 07:10 3,3 C 90 % 1010,0 hPa 0,0 l/m 11,3 km/h (2 Bft) W 270 0 min 0,000 mm 0,0 UV-I 41 W/m 1,8 C -0,7 C 17,7 km/h (3 Bft) 100,00 %
24.04.2016 07:15 3,3 C 90 % 1010,1 hPa 0,0 l/m 11,3 km/h (2 Bft) W-SW 247 0 min 0,000 mm 0,0 UV-I 46 W/m 1,8 C -0,7 C 20,9 km/h (4 Bft) 100,00 %
24.04.2016 07:20 3,4 C 89 % 1010,2 hPa 0,0 l/m 8,0 km/h (2 Bft) W-SW 247 0 min 0,000 mm 0,0 UV-I 58 W/m 1,8 C 1,9 C 25,7 km/h (4 Bft) 99,12 %
24.04.2016 07:25 3,4 C 90 % 1010,2 hPa 0,0 l/m 8,0 km/h (2 Bft) W-SW 247 0 min 0,000 mm 0,0 UV-I 69 W/m 1,9 C 1,9 C 14,5 km/h (3 Bft) 100,00 %
24.04.2016 07:30 3,4 C 90 % 1010,2 hPa 0,0 l/m 8,0 km/h (2 Bft) W-SW 247 0 min 0,000 mm 0,0 UV-I 91 W/m 1,9 C 1,9 C 16,1 km/h (3 Bft) 100,00 %
24.04.2016 07:35 3,6 C 90 % 1010,2 hPa 0,0 l/m 9,7 km/h (2 Bft) W-SW 247 0 min 0,000 mm 0,0 UV-I 112 W/m 2,1 C 0,8 C 16,1 km/h (3 Bft) 100,00 %
24.04.2016 07:40 3,7 C 91 % 1010,3 hPa 0,0 l/m 8,0 km/h (2 Bft) W-SW 247 0 min 0,000 mm 0,0 UV-I 126 W/m 2,4 C 2,2 C 14,5 km/h (3 Bft) 100,00 %
24.04.2016 07:45 3,8 C 90 % 1010,2 hPa 0,0 l/m 8,0 km/h (2 Bft) W 270 0 min 0,000 mm 0,0 UV-I 127 W/m 2,3 C 2,3 C 14,5 km/h (3 Bft) 99,12 %
24.04.2016 07:50 3,9 C 90 % 1010,3 hPa 0,0 l/m 6,4 km/h (2 Bft) W-SW 247 0 min 0,000 mm 0,0 UV-I 124 W/m 2,4 C 3,9 C 12,9 km/h (3 Bft) 100,00 %
24.04.2016 07:55 3,9 C 89 % 1010,3 hPa 0,0 l/m 11,3 km/h (2 Bft) W 270 0 min 0,000 mm 0,0 UV-I 125 W/m 2,3 C -0,1 C 20,9 km/h (4 Bft) 95,61 %
24.04.2016 08:00 3,9 C 90 % 1010,3 hPa 0,0 l/m 6,4 km/h (2 Bft) W 270 0 min 0,051 mm 0,0 UV-I 139 W/m 2,4 C 3,9 C 14,5 km/h (3 Bft) 97,37 %
24.04.2016 08:05 4,0 C 90 % 1010,4 hPa 0,0 l/m 6,4 km/h (2 Bft) W-SW 247 0 min 0,000 mm 0,0 UV-I 156 W/m 2,5 C 4,0 C 12,9 km/h (3 Bft) 98,25 %
24.04.2016 08:10 4,1 C 90 % 1010,4 hPa 0,0 l/m 6,4 km/h (2 Bft) W-SW 247 0 min 0,000 mm 0,0 UV-I 151 W/m 2,6 C 4,1 C 14,5 km/h (3 Bft) 97,37 %
24.04.2016 08:15 4,2 C 89 % 1010,4 hPa 0,0 l/m 9,7 km/h (2 Bft) W-SW 247 0 min 0,000 mm 0,1 UV-I 166 W/m 2,6 C 1,4 C 16,1 km/h (3 Bft) 94,74 %
24.04.2016 08:20 4,3 C 87 % 1010,3 hPa 0,0 l/m 8,0 km/h (2 Bft) W 270 5 min 0,000 mm 0,5 UV-I 212 W/m 2,3 C 2,9 C 19,3 km/h (3 Bft) 97,37 %
24.04.2016 08:25 4,3 C 86 % 1010,2 hPa 0,0 l/m 9,7 km/h (2 Bft) W-SW 247 5 min 0,000 mm 0,6 UV-I 228 W/m 2,2 C 1,5 C 20,9 km/h (4 Bft) 98,25 %
24.04.2016 08:30 4,4 C 87 % 1010,3 hPa 0,0 l/m 9,7 km/h (2 Bft) W-SW 247 5 min 0,000 mm 0,7 UV-I 262 W/m 2,4 C 1,6 C 19,3 km/h (3 Bft) 99,12 %
24.04.2016 08:35 4,6 C 85 % 1010,3 hPa 0,0 l/m 11,3 km/h (2 Bft) W-SW 247 5 min 0,000 mm 0,7 UV-I 287 W/m 2,3 C 0,7 C 19,3 km/h (3 Bft) 99,12 %
24.04.2016 08:40 4,6 C 84 % 1010,4 hPa 0,0 l/m 12,9 km/h (3 Bft) W-SW 247 5 min 0,000 mm 0,7 UV-I 258 W/m 2,1 C -0,2 C 20,9 km/h (4 Bft) 100,00 %
24.04.2016 08:45 4,4 C 84 % 1010,4 hPa 0,0 l/m 14,5 km/h (3 Bft) W-SW 247 5 min 0,000 mm 0,7 UV-I 253 W/m 1,9 C -1,4 C 20,9 km/h (4 Bft) 100,00 %
24.04.2016 08:50 4,6 C 86 % 1010,4 hPa 0,0 l/m 11,3 km/h (2 Bft) W 270 5 min 0,000 mm 0,8 UV-I 264 W/m 2,5 C 0,7 C 22,5 km/h (4 Bft) 100,00 %
24.04.2016 08:55 4,6 C 84 % 1010,3 hPa 0,0 l/m 12,9 km/h (3 Bft) W 270 0 min 0,000 mm 0,8 UV-I 247 W/m 2,1 C -0,2 C 20,9 km/h (4 Bft) 100,00 %
24.04.2016 09:00 4,5 C 83 % 1010,3 hPa 0,0 l/m 12,9 km/h (3 Bft) W-SW 247 0 min 0,102 mm 0,8 UV-I 230 W/m 1,9 C -0,4 C 19,3 km/h (3 Bft) 100,00 %
24.04.2016 09:05 4,4 C 83 % 1010,4 hPa 0,0 l/m 11,3 km/h (2 Bft) W-SW 247 0 min 0,000 mm 0,8 UV-I 221 W/m 1,8 C 0,5 C 19,3 km/h (3 Bft) 99,12 %
24.04.2016 09:10 4,6 C 83 % 1010,4 hPa 0,0 l/m 9,7 km/h (2 Bft) W 270 0 min 0,000 mm 0,8 UV-I 217 W/m 2,0 C 1,8 C 20,9 km/h (4 Bft) 99,12 %
24.04.2016 09:15 4,6 C 83 % 1010,4 hPa 0,0 l/m 8,0 km/h (2 Bft) W-SW 247 0 min 0,000 mm 0,8 UV-I 211 W/m 2,0 C 3,2 C 14,5 km/h (3 Bft) 93,86 %
24.04.2016 09:20 4,6 C 81 % 1010,3 hPa 0,0 l/m 11,3 km/h (2 Bft) W 270 0 min 0,000 mm 0,9 UV-I 216 W/m 1,6 C 0,7 C 24,1 km/h (4 Bft) 100,00 %
24.04.2016 09:22 4,5 C 81 % 1010,3 hPa 0,0 l/m 9,6 km/h (2 Bft) W-SW 249 0 min 0,000 mm 0,9 UV-I 227 W/m 1,5 C 1,8 C 14,5 km/h (3 Bft) 97,67 %
24.04.2016 09:23 4,5 C 81 % 1010,3 hPa 0,0 l/m 9,7 km/h (2 Bft) W 260 0 min 0,000 mm 0,9 UV-I 228 W/m 1,5 C 1,7 C 14,5 km/h (3 Bft) 96,30 %
24.04.2016 09:24 4,6 C 82 % 1010,3 hPa 0,0 l/m 13,7 km/h (3 Bft) W-NW 302 0 min 0,000 mm 0,9 UV-I 221 W/m 1,8 C -0,7 C 20,9 km/h (4 Bft) 100,00 %
24.04.2016 09:25 4,6 C 82 % 1010,3 hPa 0,0 l/m 13,7 km/h (3 Bft) W-NW 302 0 min 0,000 mm 0,9 UV-I 217 W/m 1,8 C -0,7 C 17,7 km/h (3 Bft) 91,67 %
24.04.2016 09:26 4,6 C 82 % 1010,3 hPa 0,0 l/m 14,1 km/h (3 Bft) W 266 0 min 0,000 mm 0,9 UV-I 220 W/m 1,8 C -0,9 C 19,3 km/h (3 Bft) 96,15 %
24.04.2016 09:27 4,6 C 81 % 1010,3 hPa 0,0 l/m 13,7 km/h (3 Bft) W 265 0 min 0,000 mm 0,9 UV-I 220 W/m 1,6 C -0,7 C 19,3 km/h (3 Bft) 96,30 %
24.04.2016 09:28 4,5 C 81 % 1010,3 hPa 0,0 l/m 11,3 km/h (2 Bft) W 262 0 min 0,000 mm 1,0 UV-I 231 W/m 1,5 C 0,6 C 14,5 km/h (3 Bft) 100,00 %
24.04.2016 09:29 4,6 C 81 % 1010,3 hPa 0,0 l/m 16,8 km/h (3 Bft) W 264 0 min 0,000 mm 1,0 UV-I 250 W/m 1,6 C -2,3 C 20,9 km/h (4 Bft) 92,59 %
24.04.2016 09:30 4,6 C 82 % 1010,3 hPa 0,0 l/m 13,0 km/h (3 Bft) W 277 0 min 0,000 mm 1,1 UV-I 272 W/m 1,8 C -0,3 C 16,1 km/h (3 Bft) 96,15 %
24.04.2016 09:31 4,5 C 81 % 1010,3 hPa 0,0 l/m 12,5 km/h (3 Bft) W-SW 252 0 min 0,000 mm 1,1 UV-I 284 W/m 1,5 C -0,1 C 19,3 km/h (3 Bft) 100,00 %
24.04.2016 09:32 4,6 C 81 % 1010,2 hPa 0,0 l/m 13,6 km/h (3 Bft) W 265 0 min 0,000 mm 1,1 UV-I 285 W/m 1,6 C -0,7 C 22,5 km/h (4 Bft) 96,67 %
24.04.2016 09:33 4,6 C 81 % 1010,3 hPa 0,0 l/m 14,2 km/h (3 Bft) NW 309 0 min 0,000 mm 1,1 UV-I 283 W/m 1,6 C -1,0 C 20,9 km/h (4 Bft) 100,00 %
24.04.2016 09:34 4,6 C 81 % 1010,3 hPa 0,0 l/m 7,5 km/h (2 Bft) W-SW 246 0 min 0,000 mm 1,1 UV-I 283 W/m 1,6 C 3,6 C 11,3 km/h (2 Bft) 95,83 %
24.04.2016 09:35 4,6 C 81 % 1010,2 hPa 0,0 l/m 9,7 km/h (2 Bft) W-SW 250 0 min 0,000 mm 1,1 UV-I 278 W/m 1,6 C 1,8 C 12,9 km/h (3 Bft) 96,15 %
24.04.2016 09:36 4,6 C 83 % 1010,2 hPa 0,0 l/m 5,4 km/h (1 Bft) W-SW 254 0 min 0,000 mm 1,1 UV-I 268 W/m 2,0 C 4,6 C 9,7 km/h (2 Bft) 100,00 %
24.04.2016 09:37 4,7 C 83 % 1010,2 hPa 0,0 l/m 9,3 km/h (2 Bft) W-SW 246 0 min 0,000 mm 1,1 UV-I 277 W/m 2,1 C 2,3 C 19,3 km/h (3 Bft) 100,00 %
24.04.2016 09:38 4,7 C 82 % 1010,3 hPa 0,0 l/m 13,6 km/h (3 Bft) W-SW 250 0 min 0,000 mm 1,2 UV-I 296 W/m 1,9 C -0,5 C 19,3 km/h (3 Bft) 95,83 %
24.04.2016 09:39 4,7 C 81 % 1010,3 hPa 0,0 l/m 15,1 km/h (3 Bft) W-SW 258 0 min 0,000 mm 1,2 UV-I 310 W/m 1,7 C -1,3 C 19,3 km/h (3 Bft) 96,55 %
24.04.2016 09:40 4,7 C 81 % 1010,3 hPa 0,0 l/m 14,5 km/h (3 Bft) W 268 0 min 0,000 mm 1,2 UV-I 295 W/m 1,7 C -1,0 C 20,9 km/h (4 Bft) 100,00 %
24.04.2016 09:41 4,8 C 81 % 1010,2 hPa 0,0 l/m 12,3 km/h (3 Bft) W-NW 284 0 min 0,000 mm 1,2 UV-I 304 W/m 1,8 C 0,3 C 17,7 km/h (3 Bft) 95,65 %
24.04.2016 09:42 4,8 C 80 % 1010,2 hPa 0,0 l/m 8,9 km/h (2 Bft) W-SW 248 0 min 0,000 mm 1,2 UV-I 305 W/m 1,6 C 2,7 C 12,9 km/h (3 Bft) 96,30 %
24.04.2016 09:43 4,8 C 80 % 1010,3 hPa 0,0 l/m 10,5 km/h (2 Bft) W 271 0 min 0,000 mm 1,2 UV-I 297 W/m 1,6 C 1,5 C 17,7 km/h (3 Bft) 96,15 %
24.04.2016 09:44 4,8 C 81 % 1010,3 hPa 0,0 l/m 17,5 km/h (3 Bft) W-SW 258 0 min 0,000 mm 1,3 UV-I 315 W/m 1,8 C -2,4 C 25,7 km/h (4 Bft) 100,00 %
24.04.2016 09:45 4,8 C 81 % 1010,3 hPa 0,0 l/m 11,1 km/h (2 Bft) W-NW 285 0 min 0,000 mm 1,3 UV-I 312 W/m 1,8 C 1,1 C 17,7 km/h (3 Bft) 96,55 %
24.04.2016 09:46 4,8 C 81 % 1010,3 hPa 0,0 l/m 5,7 km/h (1 Bft) SW 236 0 min 0,000 mm 1,3 UV-I 317 W/m 1,8 C 4,8 C 9,7 km/h (2 Bft) 100,00 %
24.04.2016 09:47 4,8 C 81 % 1010,3 hPa 0,0 l/m 9,2 km/h (2 Bft) W-SW 242 1 min 0,000 mm 1,3 UV-I 328 W/m 1,8 C 2,4 C 14,5 km/h (3 Bft) 96,30 %
24.04.2016 09:48 4,9 C 82 % 1010,3 hPa 0,0 l/m 10,3 km/h (2 Bft) W 275 0 min 0,000 mm 1,3 UV-I 324 W/m 2,1 C 1,8 C 14,5 km/h (3 Bft) 96,30 %
24.04.2016 09:49 4,9 C 81 % 1010,3 hPa 0,0 l/m 10,8 km/h (2 Bft) W-NW 287 0 min 0,000 mm 1,3 UV-I 305 W/m 1,9 C 1,4 C 16,1 km/h (3 Bft) 100,00 %
24.04.2016 09:50 4,9 C 80 % 1010,3 hPa 0,0 l/m 3,3 km/h (1 Bft) W 278 0 min 0,000 mm 1,3 UV-I 306 W/m 1,7 C 4,9 C 6,4 km/h (2 Bft) 96,15 %
24.04.2016 09:51 4,9 C 82 % 1010,3 hPa 0,0 l/m 5,2 km/h (1 Bft) W-SW 242 0 min 0,000 mm 1,3 UV-I 312 W/m 2,1 C 4,9 C 11,3 km/h (2 Bft) 100,00 %
24.04.2016 09:52 4,9 C 80 % 1010,3 hPa 0,0 l/m 9,1 km/h (2 Bft) W 261 0 min 0,000 mm 1,3 UV-I 307 W/m 1,7 C 2,6 C 16,1 km/h (3 Bft) 91,67 %
24.04.2016 09:53 4,9 C 80 % 1010,3 hPa 0,0 l/m 12,3 km/h (3 Bft) W-SW 257 0 min 0,000 mm 1,4 UV-I 325 W/m 1,7 C 0,5 C 17,7 km/h (3 Bft) 100,00 %
24.04.2016 09:54 4,9 C 79 % 1010,3 hPa 0,0 l/m 11,7 km/h (2 Bft) W-SW 238 1 min 0,000 mm 1,5 UV-I 335 W/m 1,6 C 0,8 C 19,3 km/h (3 Bft) 95,65 %
24.04.2016 09:55 4,8 C 78 % 1010,3 hPa 0,0 l/m 10,2 km/h (2 Bft) W-SW 240 1 min 0,000 mm 1,4 UV-I 347 W/m 1,3 C 1,7 C 16,1 km/h (3 Bft) 100,00 %
24.04.2016 09:56 4,9 C 79 % 1010,3 hPa 0,0 l/m 12,0 km/h (2 Bft) W 259 1 min 0,000 mm 1,4 UV-I 350 W/m 1,6 C 0,6 C 16,1 km/h (3 Bft) 100,00 %
24.04.2016 09:57 4,9 C 80 % 1010,3 hPa 0,0 l/m 9,9 km/h (2 Bft) N-NO 19 1 min 0,000 mm 1,4 UV-I 347 W/m 1,7 C 2,0 C 14,5 km/h (3 Bft) 100,00 %
24.04.2016 09:58 4,9 C 79 % 1010,3 hPa 0,0 l/m 12,6 km/h (3 Bft) W-NW 285 1 min 0,000 mm 1,4 UV-I 351 W/m 1,6 C 0,3 C 19,3 km/h (3 Bft) 96,55 %
24.04.2016 09:59 4,9 C 79 % 1010,3 hPa 0,0 l/m 10,5 km/h (2 Bft) W 275 0 min 0,000 mm 1,4 UV-I 330 W/m 1,6 C 1,6 C 12,9 km/h (3 Bft) 100,00 %
24.04.2016 10:00 4,9 C 78 % 1010,3 hPa 0,0 l/m 10,6 km/h (2 Bft) W-SW 255 0 min 0,127 mm 1,4 UV-I 326 W/m 1,4 C 1,5 C 14,5 km/h (3 Bft) 100,00 %
24.04.2016 10:01 4,8 C 78 % 1010,3 hPa 0,0 l/m 9,6 km/h (2 Bft) W-SW 250 0 min 0,000 mm 1,4 UV-I 339 W/m 1,3 C 2,1 C 14,5 km/h (3 Bft) 100,00 %
24.04.2016 10:02 4,8 C 78 % 1010,3 hPa 0,0 l/m 10,6 km/h (2 Bft) W-SW 252 0 min 0,000 mm 1,5 UV-I 342 W/m 1,3 C 1,4 C 16,1 km/h (3 Bft) 100,00 %
24.04.2016 10:03 4,8 C 79 % 1010,4 hPa 0,0 l/m 9,7 km/h (2 Bft) W-SW 246 0 min 0,000 mm 1,5 UV-I 330 W/m 1,5 C 2,1 C 16,1 km/h (3 Bft) 96,30 %
24.04.2016 10:04 4,8 C 79 % 1010,4 hPa 0,0 l/m 11,9 km/h (2 Bft) W 267 0 min 0,000 mm 1,5 UV-I 334 W/m 1,5 C 0,6 C 19,3 km/h (3 Bft) 100,00 %
24.04.2016 10:05 4,8 C 78 % 1010,4 hPa 0,0 l/m 7,5 km/h (2 Bft) W 273 0 min 0,000 mm 1,5 UV-I 330 W/m 1,3 C 3,8 C 16,1 km/h (3 Bft) 97,91 %
24.04.2016 10:06 4,8 C 79 % 1010,4 hPa 0,0 l/m 6,6 km/h (2 Bft) NW 318 0 min 0,000 mm 1,5 UV-I 335 W/m 1,5 C 4,6 C 12,9 km/h (3 Bft) 100,00 %
24.04.2016 10:07 4,8 C 79 % 1010,3 hPa 0,0 l/m 12,2 km/h (2 Bft) W-SW 240 0 min 0,000 mm 1,5 UV-I 330 W/m 1,5 C 0,4 C 19,3 km/h (3 Bft) 100,00 %
24.04.2016 10:08 4,9 C 79 % 1010,3 hPa 0,0 l/m 11,9 km/h (2 Bft) W-SW 250 0 min 0,000 mm 1,5 UV-I 328 W/m 1,6 C 0,7 C 16,1 km/h (3 Bft) 100,00 %
24.04.2016 10:09 4,9 C 79 % 1010,4 hPa 0,0 l/m 11,0 km/h (2 Bft) W-SW 244 0 min 0,000 mm 1,5 UV-I 334 W/m 1,6 C 1,3 C 14,5 km/h (3 Bft) 98,06 %
24.04.2016 10:10 4,9 C 79 % 1010,4 hPa 0,0 l/m 9,2 km/h (2 Bft) W-SW 249 0 min 0,000 mm 1,6 UV-I 347 W/m 1,6 C 2,5 C 14,5 km/h (3 Bft) 97,87 %
24.04.2016 10:11 4,9 C 80 % 1010,4 hPa 0,0 l/m 8,9 km/h (2 Bft) W-SW 257 1 min 0,000 mm 1,6 UV-I 354 W/m 1,7 C 2,8 C 12,9 km/h (3 Bft) 100,00 %
24.04.2016 10:12 4,9 C 80 % 1010,3 hPa 0,0 l/m 9,0 km/h (2 Bft) W 259 1 min 0,000 mm 1,6 UV-I 365 W/m 1,7 C 2,7 C 16,1 km/h (3 Bft) 100,00 %
24.04.2016 10:13 5,0 C 80 % 1010,4 hPa 0,0 l/m 9,2 km/h (2 Bft) SW 227 1 min 0,000 mm 1,7 UV-I 377 W/m 1,8 C 2,7 C 14,5 km/h (3 Bft) 100,00 %
24.04.2016 10:14 5,1 C 82 % 1010,4 hPa 0,0 l/m 5,3 km/h (1 Bft) NW 313 1 min 0,000 mm 1,6 UV-I 358 W/m 2,3 C 5,1 C 9,7 km/h (2 Bft) 100,00 %
24.04.2016 10:15 5,1 C 80 % 1010,3 hPa 0,0 l/m 5,7 km/h (1 Bft) W-NW 296 0 min 0,000 mm 1,6 UV-I 353 W/m 1,9 C 5,1 C 12,9 km/h (3 Bft) 100,00 %
24.04.2016 10:16 5,2 C 80 % 1010,3 hPa 0,0 l/m 10,2 km/h (2 Bft) W 281 0 min 0,000 mm 1,5 UV-I 331 W/m 2,0 C 2,2 C 17,7 km/h (3 Bft) 100,00 %
24.04.2016 10:17 5,2 C 80 % 1010,4 hPa 0,0 l/m 5,4 km/h (1 Bft) W-NW 300 0 min 0,000 mm 1,5 UV-I 336 W/m 2,0 C 5,2 C 11,3 km/h (2 Bft) 100,00 %
24.04.2016 10:18 5,2 C 79 % 1010,4 hPa 0,0 l/m 5,4 km/h (1 Bft) W-NW 293 0 min 0,000 mm 1,6 UV-I 300 W/m 1,9 C 5,2 C 8,0 km/h (2 Bft) 100,00 %
24.04.2016 10:19 5,2 C 79 % 1010,4 hPa 0,0 l/m 4,9 km/h (1 Bft) W-SW 258 0 min 0,000 mm 1,7 UV-I 312 W/m 1,9 C 5,2 C 8,0 km/h (2 Bft) 98,27 %
24.04.2016 10:20 5,2 C 80 % 1010,4 hPa 0,0 l/m 10,3 km/h (2 Bft) W 279 0 min 0,000 mm 1,7 UV-I 330 W/m 2,0 C 2,1 C 19,3 km/h (3 Bft) 100,00 %
24.04.2016 10:21 5,2 C 79 % 1010,4 hPa 0,0 l/m 11,8 km/h (2 Bft) W-SW 245 0 min 0,000 mm 1,8 UV-I 350 W/m 1,9 C 1,1 C 16,1 km/h (3 Bft) 100,00 %
24.04.2016 10:22 5,2 C 78 % 1010,5 hPa 0,0 l/m 10,0 km/h (2 Bft) W 267 0 min 0,000 mm 1,7 UV-I 334 W/m 1,7 C 2,3 C 17,7 km/h (3 Bft) 100,00 %
24.04.2016 10:23 5,2 C 78 % 1010,4 hPa 0,0 l/m 6,9 km/h (2 Bft) W 275 0 min 0,000 mm 1,8 UV-I 325 W/m 1,7 C 4,8 C 12,9 km/h (3 Bft) 100,00 %
24.04.2016 10:24 5,2 C 78 % 1010,4 hPa 0,0 l/m 4,3 km/h (1 Bft) W-SW 251 0 min 0,000 mm 1,7 UV-I 325 W/m 1,7 C 5,2 C 11,3 km/h (2 Bft) 100,00 %
24.04.2016 10:25 5,2 C 79 % 1010,4 hPa 0,0 l/m 10,0 km/h (2 Bft) W-SW 252 0 min 0,000 mm 1,8 UV-I 325 W/m 1,9 C 2,3 C 12,9 km/h (3 Bft) 100,00 %
24.04.2016 10:26 5,2 C 79 % 1010,4 hPa 0,0 l/m 10,4 km/h (2 Bft) SW 228 0 min 0,000 mm 1,8 UV-I 343 W/m 1,9 C 2,0 C 16,1 km/h (3 Bft) 100,00 %
24.04.2016 10:27 5,2 C 78 % 1010,4 hPa 0,0 l/m 12,7 km/h (3 Bft) W-SW 258 1 min 0,000 mm 1,8 UV-I 382 W/m 1,7 C 0,6 C 20,9 km/h (4 Bft) 100,00 %
24.04.2016 10:28 5,2 C 76 % 1010,4 hPa 0,0 l/m 11,7 km/h (2 Bft) W-NW 288 1 min 0,000 mm 2,0 UV-I 421 W/m 1,3 C 1,2 C 19,3 km/h (3 Bft) 100,00 %
24.04.2016 10:29 5,2 C 76 % 1010,4 hPa 0,0 l/m 11,3 km/h (2 Bft) W 273 1 min 0,000 mm 2,0 UV-I 447 W/m 1,3 C 1,4 C 14,5 km/h (3 Bft) 96,55 %
24.04.2016 10:30 5,2 C 76 % 1010,4 hPa 0,0 l/m 12,0 km/h (2 Bft) W 281 1 min 0,000 mm 2,2 UV-I 492 W/m 1,3 C 1,0 C 17,7 km/h (3 Bft) 100,00 %
24.04.2016 10:31 5,2 C 76 % 1010,4 hPa 0,0 l/m 9,9 km/h (2 Bft) W-NW 294 1 min 0,000 mm 2,2 UV-I 513 W/m 1,3 C 2,4 C 14,5 km/h (3 Bft) 91,67 %
24.04.2016 10:32 5,3 C 77 % 1010,4 hPa 0,0 l/m 8,4 km/h (2 Bft) W-SW 244 1 min 0,000 mm 2,3 UV-I 552 W/m 1,6 C 3,6 C 14,5 km/h (3 Bft) 100,00 %
24.04.2016 10:33 5,4 C 78 % 1010,4 hPa 0,0 l/m 11,0 km/h (2 Bft) W-SW 257 1 min 0,000 mm 2,2 UV-I 520 W/m 1,9 C 1,8 C 17,7 km/h (3 Bft) 100,00 %
24.04.2016 10:34 5,6 C 77 % 1010,4 hPa 0,0 l/m 14,6 km/h (3 Bft) W 262 1 min 0,000 mm 2,4 UV-I 544 W/m 1,9 C 0,0 C 22,5 km/h (4 Bft) 100,00 %
24.04.2016 10:35 5,6 C 75 % 1010,4 hPa 0,0 l/m 16,9 km/h (3 Bft) SW 227 1 min 0,000 mm 2,4 UV-I 563 W/m 1,5 C -1,1 C 22,5 km/h (4 Bft) 100,00 %
24.04.2016 10:36 5,6 C 74 % 1010,4 hPa 0,0 l/m 11,5 km/h (2 Bft) W-SW 257 1 min 0,000 mm 2,3 UV-I 610 W/m 1,3 C 1,8 C 20,9 km/h (4 Bft) 100,00 %
24.04.2016 10:37 5,7 C 75 % 1010,4 hPa 0,0 l/m 12,7 km/h (3 Bft) W-SW 250 1 min 0,000 mm 2,5 UV-I 610 W/m 1,6 C 1,2 C 17,7 km/h (3 Bft) 100,00 %
24.04.2016 10:38 5,7 C 76 % 1010,4 hPa 0,0 l/m 16,1 km/h (3 Bft) SW 234 1 min 0,000 mm 2,6 UV-I 625 W/m 1,8 C -0,6 C 20,9 km/h (4 Bft) 92,31 %
24.04.2016 10:39 5,7 C 74 % 1010,4 hPa 0,0 l/m 8,6 km/h (2 Bft) W-SW 253 1 min 0,000 mm 2,6 UV-I 615 W/m 1,4 C 3,9 C 14,5 km/h (3 Bft) 91,67 %
24.04.2016 10:40 5,8 C 73 % 1010,4 hPa 0,0 l/m 8,4 km/h (2 Bft) W-SW 249 1 min 0,000 mm 2,5 UV-I 654 W/m 1,3 C 4,1 C 14,5 km/h (3 Bft) 96,55 %
24.04.2016 10:41 5,8 C 73 % 1010,4 hPa 0,0 l/m 8,0 km/h (2 Bft) W-SW 252 1 min 0,000 mm 2,5 UV-I 598 W/m 1,3 C 4,4 C 14,5 km/h (3 Bft) 100,00 %
24.04.2016 10:42 5,8 C 74 % 1010,3 hPa 0,0 l/m 7,5 km/h (2 Bft) W 269 1 min 0,000 mm 2,5 UV-I 598 W/m 1,5 C 4,9 C 11,3 km/h (2 Bft) 100,00 %
24.04.2016 10:43 5,9 C 77 % 1010,5 hPa 0,0 l/m 12,9 km/h (3 Bft) W 269 1 min 0,000 mm 2,5 UV-I 614 W/m 2,2 C 1,3 C 22,5 km/h (4 Bft) 96,30 %
24.04.2016 10:44 6,0 C 72 % 1010,4 hPa 0,0 l/m 12,5 km/h (3 Bft) W-SW 242 1 min 0,000 mm 2,6 UV-I 660 W/m 1,3 C 1,6 C 17,7 km/h (3 Bft) 100,00 %
24.04.2016 10:45 6,1 C 73 % 1010,3 hPa 0,0 l/m 5,8 km/h (2 Bft) W-SW 250 1 min 0,000 mm 2,5 UV-I 668 W/m 1,6 C 6,1 C 12,9 km/h (3 Bft) 100,00 %
24.04.2016 10:46 6,1 C 74 % 1010,3 hPa 0,0 l/m 10,1 km/h (2 Bft) SW 232 1 min 0,000 mm 2,4 UV-I 640 W/m 1,8 C 3,2 C 17,7 km/h (3 Bft) 100,00 %
24.04.2016 10:47 6,2 C 75 % 1010,3 hPa 0,0 l/m 9,6 km/h (2 Bft) W 271 1 min 0,000 mm 2,0 UV-I 599 W/m 2,1 C 3,7 C 20,9 km/h (4 Bft) 100,00 %
24.04.2016 10:48 6,2 C 72 % 1010,3 hPa 0,0 l/m 3,7 km/h (1 Bft) NW 311 1 min 0,000 mm 1,9 UV-I 418 W/m 1,5 C 6,2 C 6,4 km/h (2 Bft) 100,00 %
24.04.2016 10:49 6,2 C 75 % 1010,3 hPa 0,0 l/m 6,8 km/h (2 Bft) W-NW 288 1 min 0,000 mm 2,1 UV-I 473 W/m 2,1 C 5,9 C 12,9 km/h (3 Bft) 100,00 %
24.04.2016 10:50 6,3 C 75 % 1010,3 hPa 0,0 l/m 7,6 km/h (2 Bft) W 265 1 min 0,000 mm 2,3 UV-I 572 W/m 2,2 C 5,3 C 11,3 km/h (2 Bft) 100,00 %
24.04.2016 10:51 6,4 C 73 % 1010,3 hPa 0,0 l/m 14,2 km/h (3 Bft) W-SW 246 1 min 0,000 mm 2,2 UV-I 672 W/m 1,9 C 1,2 C 20,9 km/h (4 Bft) 100,00 %
24.04.2016 10:52 6,3 C 70 % 1010,3 hPa 0,0 l/m 10,0 km/h (2 Bft) W-SW 249 1 min 0,000 mm 2,1 UV-I 677 W/m 1,2 C 3,5 C 17,7 km/h (3 Bft) 100,00 %
24.04.2016 10:53 6,3 C 72 % 1010,2 hPa 0,0 l/m 8,5 km/h (2 Bft) W-SW 248 1 min 0,000 mm 1,6 UV-I 677 W/m 1,6 C 4,6 C 17,7 km/h (3 Bft) 100,00 %
24.04.2016 10:54 6,2 C 72 % 1010,2 hPa 0,0 l/m 15,0 km/h (3 Bft) W 263 1 min 0,000 mm 1,0 UV-I 520 W/m 1,5 C 0,5 C 19,3 km/h (3 Bft) 95,83 %
24.04.2016 10:55 6,2 C 71 % 1010,3 hPa 0,0 l/m 11,2 km/h (2 Bft) W-NW 292 0 min 0,000 mm 0,8 UV-I 195 W/m 1,3 C 2,6 C 14,5 km/h (3 Bft) 100,00 %
24.04.2016 10:56 6,1 C 72 % 1010,2 hPa 0,0 l/m 8,6 km/h (2 Bft) W-NW 282 0 min 0,000 mm 0,7 UV-I 160 W/m 1,4 C 4,3 C 14,5 km/h (3 Bft) 100,00 %
24.04.2016 10:57 5,9 C 71 % 1010,3 hPa 0,0 l/m 3,6 km/h (1 Bft) W 259 0 min 0,000 mm 0,6 UV-I 139 W/m 1,1 C 5,9 C 9,7 km/h (2 Bft) 100,00 %
24.04.2016 10:58 5,8 C 73 % 1010,3 hPa 0,0 l/m 3,1 km/h (1 Bft) W 263 0 min 0,000 mm 0,6 UV-I 128 W/m 1,3 C 5,8 C 4,8 km/h (1 Bft) 100,00 %
24.04.2016 10:59 5,7 C 72 % 1010,2 hPa 0,0 l/m 2,5 km/h (1 Bft) W-SW 246 0 min 0,000 mm 0,6 UV-I 125 W/m 1,1 C 5,7 C 4,8 km/h (1 Bft) 100,00 %
24.04.2016 11:00 5,7 C 74 % 1010,3 hPa 0,0 l/m 3,0 km/h (1 Bft) W-NW 290 0 min 0,177 mm 0,6 UV-I 123 W/m 1,4 C 5,7 C 4,8 km/h (1 Bft) 100,00 %
24.04.2016 11:02 5,7 C 74 % 1010,3 hPa 0,0 l/m 4,0 km/h (1 Bft) W-NW 299 0 min 0,000 mm 0,6 UV-I 118 W/m 1,4 C 5,7 C 11,3 km/h (2 Bft) 100,00 %
24.04.2016 11:03 5,6 C 75 % 1010,3 hPa 0,0 l/m 6,8 km/h (2 Bft) W 267 0 min 0,000 mm 0,7 UV-I 123 W/m 1,5 C 5,3 C 11,3 km/h (2 Bft) 100,00 %
24.04.2016 11:04 5,6 C 74 % 1010,2 hPa 0,0 l/m 2,1 km/h (1 Bft) W 267 0 min 0,000 mm 0,7 UV-I 133 W/m 1,3 C 5,6 C 6,4 km/h (2 Bft) 100,00 %
24.04.2016 11:05 5,6 C 74 % 1010,3 hPa 0,0 l/m 3,9 km/h (1 Bft) W-SW 246 0 min 0,000 mm 0,7 UV-I 132 W/m 1,3 C 5,6 C 6,4 km/h (2 Bft) 100,00 %
24.04.2016 11:06 5,6 C 73 % 1010,2 hPa 0,0 l/m 2,0 km/h (1 Bft) W-SW 246 0 min 0,000 mm 0,6 UV-I 120 W/m 1,2 C 5,6 C 3,2 km/h (1 Bft) 95,83 %
24.04.2016 11:07 5,6 C 74 % 1010,3 hPa 0,0 l/m 2,8 km/h (1 Bft) W-SW 251 0 min 0,000 mm 0,6 UV-I 106 W/m 1,3 C 5,6 C 4,8 km/h (1 Bft) 100,00 %
24.04.2016 11:08 5,6 C 72 % 1010,3 hPa 0,0 l/m 10,0 km/h (2 Bft) W-NW 293 0 min 0,000 mm 0,5 UV-I 96 W/m 1,0 C 2,7 C 19,3 km/h (3 Bft) 100,00 %
24.04.2016 11:09 5,5 C 71 % 1010,3 hPa 0,0 l/m 9,9 km/h (2 Bft) W 279 0 min 0,000 mm 0,2 UV-I 89 W/m 0,7 C 2,7 C 16,1 km/h (3 Bft) 100,00 %
24.04.2016 11:10 5,4 C 70 % 1010,3 hPa 0,0 l/m 6,4 km/h (2 Bft) W-NW 290 0 min 0,000 mm 0,0 UV-I 83 W/m 0,4 C 5,4 C 11,3 km/h (2 Bft) 100,00 %
24.04.2016 11:11 5,4 C 72 % 1010,3 hPa 0,0 l/m 7,2 km/h (2 Bft) SW 220 0 min 0,000 mm 0,0 UV-I 78 W/m 0,8 C 4,7 C 14,5 km/h (3 Bft) 100,00 %
24.04.2016 11:12 5,4 C 71 % 1010,3 hPa 0,0 l/m 5,5 km/h (1 Bft) W-SW 252 0 min 0,000 mm 0,0 UV-I 74 W/m 0,6 C 5,4 C 12,9 km/h (3 Bft) 100,00 %
24.04.2016 11:13 5,3 C 71 % 1010,3 hPa 0,0 l/m 2,8 km/h (1 Bft) W 276 0 min 0,000 mm 0,0 UV-I 72 W/m 0,5 C 5,3 C 6,4 km/h (2 Bft) 96,15 %
24.04.2016 11:14 5,3 C 73 % 1010,3 hPa 0,0 l/m 3,8 km/h (1 Bft) NW 304 0 min 0,000 mm 0,0 UV-I 75 W/m 0,9 C 5,3 C 9,7 km/h (2 Bft) 100,00 %
24.04.2016 11:15 5,3 C 72 % 1010,3 hPa 0,0 l/m 2,6 km/h (1 Bft) W-NW 300 0 min 0,000 mm 0,4 UV-I 86 W/m 0,7 C 5,3 C 6,4 km/h (2 Bft) 100,00 %
24.04.2016 11:16 5,3 C 72 % 1010,3 hPa 0,0 l/m 3,8 km/h (1 Bft) W 281 0 min 0,000 mm 0,7 UV-I 94 W/m 0,7 C 5,3 C 9,7 km/h (2 Bft) 91,30 %
24.04.2016 11:17 5,3 C 72 % 1010,3 hPa 0,0 l/m 4,7 km/h (1 Bft) W 265 0 min 0,000 mm 0,9 UV-I 137 W/m 0,7 C 5,3 C 9,7 km/h (2 Bft) 100,00 %
24.04.2016 11:19 5,2 C 74 % 1010,2 hPa 0,0 l/m 0,9 km/h (0 Bft) W 267 0 min 0,000 mm 1,3 UV-I 167 W/m 1,0 C 5,2 C 3,2 km/h (1 Bft) 97,67 %
24.04.2016 11:20 5,3 C 75 % 1010,2 hPa 0,0 l/m 1,8 km/h (1 Bft) N-NO 22 0 min 0,000 mm 1,6 UV-I 202 W/m 1,2 C 5,3 C 4,8 km/h (1 Bft) 95,83 %
24.04.2016 11:21 5,3 C 75 % 1010,2 hPa 0,0 l/m 4,6 km/h (1 Bft) W 261 0 min 0,000 mm 1,8 UV-I 236 W/m 1,2 C 5,3 C 9,7 km/h (2 Bft) 95,83 %
24.04.2016 11:22 5,4 C 75 % 1010,2 hPa 0,0 l/m 7,8 km/h (2 Bft) W 261 0 min 0,000 mm 2,0 UV-I 252 W/m 1,3 C 4,2 C 14,5 km/h (3 Bft) 95,65 %
24.04.2016 11:23 5,4 C 74 % 1010,2 hPa 0,0 l/m 4,0 km/h (1 Bft) W 281 0 min 0,000 mm 2,1 UV-I 260 W/m 1,1 C 5,4 C 9,7 km/h (2 Bft) 91,67 %
24.04.2016 11:24 5,6 C 76 % 1010,2 hPa 0,0 l/m 5,0 km/h (1 Bft) NW 321 0 min 0,000 mm 2,7 UV-I 404 W/m 1,7 C 5,6 C 8,0 km/h (2 Bft) 100,00 %
24.04.2016 11:25 5,7 C 71 % 1010,2 hPa 0,0 l/m 6,4 km/h (2 Bft) N-NW 339 1 min 0,000 mm 2,9 UV-I 615 W/m 0,9 C 5,7 C 12,9 km/h (3 Bft) 95,65 %
24.04.2016 11:26 5,8 C 71 % 1010,3 hPa 0,0 l/m 5,4 km/h (1 Bft) W-SW 249 1 min 0,000 mm 2,8 UV-I 602 W/m 1,0 C 5,8 C 9,7 km/h (2 Bft) 100,00 %
24.04.2016 11:27 5,9 C 71 % 1010,3 hPa 0,0 l/m 8,4 km/h (2 Bft) W-NW 288 1 min 0,000 mm 2,7 UV-I 560 W/m 1,1 C 4,2 C 17,7 km/h (3 Bft) 95,65 %
24.04.2016 11:28 6,0 C 71 % 1010,3 hPa 0,0 l/m 9,1 km/h (2 Bft) NW 320 1 min 0,000 mm 2,4 UV-I 515 W/m 1,1 C 3,8 C 16,1 km/h (3 Bft) 100,00 %
24.04.2016 11:29 6,1 C 69 % 1010,2 hPa 0,0 l/m 11,0 km/h (2 Bft) W-SW 258 1 min 0,000 mm 2,2 UV-I 515 W/m 0,8 C 2,6 C 19,3 km/h (3 Bft) 95,65 %
24.04.2016 11:30 6,1 C 69 % 1010,2 hPa 0,0 l/m 9,1 km/h (2 Bft) W 277 1 min 0,000 mm 1,8 UV-I 474 W/m 0,8 C 3,9 C 19,3 km/h (3 Bft) 100,00 %
24.04.2016 11:31 6,1 C 67 % 1010,2 hPa 0,0 l/m 9,9 km/h (2 Bft) W 259 1 min 0,000 mm 1,5 UV-I 425 W/m 0,4 C 3,4 C 16,1 km/h (3 Bft) 95,65 %
24.04.2016 11:32 6,1 C 68 % 1010,3 hPa 0,0 l/m 11,8 km/h (2 Bft) W-NW 290 0 min 0,000 mm 1,3 UV-I 275 W/m 0,6 C 2,1 C 19,3 km/h (3 Bft) 95,83 %
24.04.2016 11:33 6,0 C 67 % 1010,2 hPa 0,0 l/m 4,5 km/h (1 Bft) O-SO 123 0 min 0,000 mm 1,0 UV-I 186 W/m 0,3 C 6,0 C 16,1 km/h (3 Bft) 100,00 %
24.04.2016 11:34 5,9 C 68 % 1010,3 hPa 0,0 l/m 8,2 km/h (2 Bft) W-NW 285 0 min 0,000 mm 0,8 UV-I 163 W/m 0,5 C 4,4 C 16,1 km/h (3 Bft) 95,83 %
24.04.2016 11:35 5,8 C 66 % 1010,3 hPa 0,0 l/m 7,2 km/h (2 Bft) N-NW 327 0 min 0,000 mm 0,8 UV-I 152 W/m -0,0 C 5,1 C 12,9 km/h (3 Bft) 95,65 %
24.04.2016 11:36 5,7 C 68 % 1010,3 hPa 0,0 l/m 5,6 km/h (1 Bft) NW 319 0 min 0,000 mm 0,8 UV-I 143 W/m 0,3 C 5,7 C 12,9 km/h (3 Bft) 95,83 %
24.04.2016 11:37 5,6 C 69 % 1010,3 hPa 0,0 l/m 4,3 km/h (1 Bft) NW 321 0 min 0,000 mm 0,8 UV-I 138 W/m 0,4 C 5,6 C 6,4 km/h (2 Bft) 100,00 %
24.04.2016 11:38 5,6 C 69 % 1010,3 hPa 0,0 l/m 4,4 km/h (1 Bft) W 265 0 min 0,000 mm 0,8 UV-I 135 W/m 0,4 C 5,6 C 9,7 km/h (2 Bft) 95,83 %
24.04.2016 11:39 5,5 C 70 % 1010,3 hPa 0,0 l/m 7,8 km/h (2 Bft) W 273 0 min 0,000 mm 0,8 UV-I 130 W/m 0,5 C 4,3 C 14,5 km/h (3 Bft) 95,65 %
24.04.2016 11:40 5,5 C 69 % 1010,3 hPa 0,0 l/m 14,2 km/h (3 Bft) W-NW 297 0 min 0,000 mm 0,7 UV-I 121 W/m 0,3 C 0,1 C 20,9 km/h (4 Bft) 95,83 %
24.04.2016 11:41 5,4 C 70 % 1010,3 hPa 0,0 l/m 12,7 km/h (3 Bft) W 281 0 min 0,000 mm 0,7 UV-I 110 W/m 0,4 C 0,8 C 20,9 km/h (4 Bft) 95,65 %
24.04.2016 11:42 5,4 C 67 % 1010,4 hPa 0,0 l/m 8,2 km/h (2 Bft) N-NW 329 0 min 0,000 mm 0,7 UV-I 101 W/m -0,2 C 3,9 C 22,5 km/h (4 Bft) 100,00 %
24.04.2016 11:43 5,3 C 68 % 1010,3 hPa 0,0 l/m 9,7 km/h (2 Bft) W-NW 286 0 min 0,000 mm 0,7 UV-I 97 W/m -0,1 C 2,6 C 17,7 km/h (3 Bft) 95,65 %
24.04.2016 11:44 5,3 C 67 % 1010,3 hPa 0,0 l/m 12,0 km/h (2 Bft) W-SW 257 0 min 0,000 mm 0,7 UV-I 98 W/m -0,3 C 1,1 C 19,3 km/h (3 Bft) 96,30 %
24.04.2016 11:45 5,2 C 67 % 1010,4 hPa 0,0 l/m 9,7 km/h (2 Bft) W 265 0 min 0,000 mm 0,8 UV-I 104 W/m -0,4 C 2,5 C 20,9 km/h (4 Bft) 95,65 %
24.04.2016 11:46 5,2 C 67 % 1010,4 hPa 0,0 l/m 7,8 km/h (2 Bft) S-SW 207 0 min 0,000 mm 0,8 UV-I 107 W/m -0,4 C 4,0 C 17,7 km/h (3 Bft) 100,00 %
24.04.2016 11:47 5,1 C 68 % 1010,4 hPa 0,0 l/m 5,4 km/h (1 Bft) W-SW 247 0 min 0,000 mm 0,8 UV-I 110 W/m -0,3 C 5,1 C 12,9 km/h (3 Bft) 95,65 %
24.04.2016 11:48 5,1 C 67 % 1010,3 hPa 0,0 l/m 11,1 km/h (2 Bft) W 261 0 min 0,000 mm 0,9 UV-I 120 W/m -0,5 C 1,4 C 17,7 km/h (3 Bft) 95,83 %
24.04.2016 11:49 5,1 C 67 % 1010,3 hPa 0,0 l/m 7,7 km/h (2 Bft) N-NO 18 0 min 0,000 mm 1,1 UV-I 134 W/m -0,5 C 4,0 C 14,5 km/h (3 Bft) 100,00 %
24.04.2016 11:50 5,0 C 68 % 1010,3 hPa 0,0 l/m 4,5 km/h (1 Bft) W-SW 247 0 min 0,000 mm 1,1 UV-I 152 W/m -0,4 C 5,0 C 6,4 km/h (2 Bft) 95,65 %
24.04.2016 11:51 5,0 C 70 % 1010,3 hPa 0,0 l/m 8,4 km/h (2 Bft) W-NW 286 0 min 0,000 mm 1,4 UV-I 184 W/m -0,0 C 3,3 C 16,1 km/h (3 Bft) 100,00 %
24.04.2016 11:52 5,0 C 68 % 1010,3 hPa 0,0 l/m 9,0 km/h (2 Bft) W 259 0 min 0,000 mm 1,6 UV-I 218 W/m -0,4 C 2,8 C 16,1 km/h (3 Bft) 100,00 %
24.04.2016 11:53 5,0 C 69 % 1010,3 hPa 0,0 l/m 7,1 km/h (2 Bft) W 265 0 min 0,000 mm 1,8 UV-I 253 W/m -0,2 C 4,4 C 11,3 km/h (2 Bft) 100,00 %
24.04.2016 11:54 5,1 C 70 % 1010,3 hPa 0,0 l/m 6,0 km/h (2 Bft) W-SW 240 0 min 0,000 mm 2,1 UV-I 289 W/m 0,1 C 5,1 C 11,3 km/h (2 Bft) 95,65 %
24.04.2016 11:55 5,1 C 69 % 1010,3 hPa 0,0 l/m 9,1 km/h (2 Bft) W-NW 292 0 min 0,000 mm 2,4 UV-I 339 W/m -0,1 C 2,8 C 16,1 km/h (3 Bft) 100,00 %
24.04.2016 11:56 5,2 C 68 % 1010,3 hPa 0,0 l/m 6,6 km/h (2 Bft) SW 220 0 min 0,000 mm 2,4 UV-I 366 W/m -0,2 C 5,0 C 12,9 km/h (3 Bft) 95,65 %
24.04.2016 11:57 5,3 C 71 % 1010,2 hPa 0,0 l/m 8,3 km/h (2 Bft) W 267 0 min 0,000 mm 2,6 UV-I 388 W/m 0,5 C 3,7 C 12,9 km/h (3 Bft) 100,00 %
24.04.2016 11:58 5,4 C 72 % 1010,2 hPa 0,0 l/m 10,3 km/h (2 Bft) W-NW 294 1 min 0,000 mm 2,8 UV-I 478 W/m 0,8 C 2,3 C 14,5 km/h (3 Bft) 100,00 %
24.04.2016 11:59 5,6 C 71 % 1010,2 hPa 0,0 l/m 7,1 km/h (2 Bft) W 274 1 min 0,000 mm 2,8 UV-I 503 W/m 0,8 C 5,0 C 14,5 km/h (3 Bft) 96,30 %
24.04.2016 12:00 5,7 C 68 % 1010,2 hPa 0,0 l/m 14,6 km/h (3 Bft) W 265 1 min 0,102 mm 2,9 UV-I 494 W/m 0,3 C 0,1 C 19,3 km/h (3 Bft) 96,15 %
24.04.2016 12:02 5,8 C 66 % 1010,1 hPa 0,0 l/m 9,5 km/h (2 Bft) W-SW 248 2 min 0,000 mm 2,8 UV-I 455 W/m -0,0 C 3,3 C 17,7 km/h (3 Bft) 100,00 %
24.04.2016 12:03 5,8 C 68 % 1010,1 hPa 0,0 l/m 7,8 km/h (2 Bft) W 261 1 min 0,000 mm 2,8 UV-I 544 W/m 0,4 C 4,6 C 12,9 km/h (3 Bft) 100,00 %
24.04.2016 12:04 5,9 C 70 % 1010,0 hPa 0,0 l/m 3,9 km/h (1 Bft) W-SW 248 1 min 0,000 mm 2,9 UV-I 490 W/m 0,9 C 5,9 C 6,4 km/h (2 Bft) 100,00 %
24.04.2016 12:05 6,0 C 68 % 1010,1 hPa 0,0 l/m 5,6 km/h (1 Bft) NW 322 1 min 0,000 mm 2,9 UV-I 472 W/m 0,6 C 6,0 C 12,9 km/h (3 Bft) 100,00 %
24.04.2016 12:06 6,2 C 69 % 1010,1 hPa 0,0 l/m 8,9 km/h (2 Bft) W-SW 258 1 min 0,000 mm 2,5 UV-I 459 W/m 0,9 C 4,2 C 19,3 km/h (3 Bft) 95,65 %
24.04.2016 12:07 6,2 C 68 % 1010,1 hPa 0,0 l/m 11,9 km/h (2 Bft) W-SW 254 0 min 0,000 mm 2,3 UV-I 393 W/m 0,7 C 2,2 C 14,5 km/h (3 Bft) 95,83 %
24.04.2016 12:08 6,2 C 66 % 1010,1 hPa 0,0 l/m 12,0 km/h (2 Bft) W-SW 242 0 min 0,000 mm 2,2 UV-I 364 W/m 0,3 C 2,1 C 17,7 km/h (3 Bft) 100,00 %
24.04.2016 12:09 6,2 C 66 % 1010,1 hPa 0,0 l/m 10,5 km/h (2 Bft) W-SW 257 0 min 0,000 mm 2,2 UV-I 369 W/m 0,3 C 3,1 C 14,5 km/h (3 Bft) 100,00 %
24.04.2016 12:10 6,2 C 66 % 1010,1 hPa 0,0 l/m 14,7 km/h (3 Bft) W 266 0 min 0,000 mm 2,2 UV-I 369 W/m 0,3 C 0,7 C 20,9 km/h (4 Bft) 100,00 %
24.04.2016 12:11 6,2 C 66 % 1010,1 hPa 0,0 l/m 9,9 km/h (2 Bft) W 265 0 min 0,000 mm 2,2 UV-I 362 W/m 0,3 C 3,5 C 17,7 km/h (3 Bft) 100,00 %
24.04.2016 12:12 6,3 C 65 % 1010,1 hPa 0,0 l/m 15,3 km/h (3 Bft) W-NW 290 0 min 0,000 mm 2,1 UV-I 360 W/m 0,2 C 0,5 C 20,9 km/h (4 Bft) 100,00 %
24.04.2016 12:13 6,3 C 61 % 1010,0 hPa 0,0 l/m 8,2 km/h (2 Bft) W-NW 292 0 min 0,000 mm 1,9 UV-I 350 W/m -0,7 C 4,8 C 14,5 km/h (3 Bft) 100,00 %
24.04.2016 12:14 6,3 C 63 % 1010,0 hPa 0,0 l/m 11,9 km/h (2 Bft) NW 305 0 min 0,000 mm 1,8 UV-I 325 W/m -0,2 C 2,3 C 22,5 km/h (4 Bft) 100,00 %
24.04.2016 12:15 6,2 C 61 % 1010,1 hPa 0,0 l/m 6,8 km/h (2 Bft) W-SW 254 0 min 0,000 mm 1,8 UV-I 305 W/m -0,7 C 5,9 C 11,3 km/h (2 Bft) 100,00 %
24.04.2016 12:16 6,2 C 62 % 1010,1 hPa 0,0 l/m 10,2 km/h (2 Bft) W-SW 256 0 min 0,000 mm 1,7 UV-I 295 W/m -0,5 C 3,3 C 19,3 km/h (3 Bft) 100,00 %
24.04.2016 12:17 6,2 C 62 % 1010,1 hPa 0,0 l/m 7,9 km/h (2 Bft) W-NW 282 0 min 0,000 mm 1,8 UV-I 307 W/m -0,5 C 4,9 C 17,7 km/h (3 Bft) 100,00 %
24.04.2016 12:18 6,2 C 66 % 1010,1 hPa 0,0 l/m 5,3 km/h (1 Bft) W-SW 239 0 min 0,000 mm 1,8 UV-I 306 W/m 0,3 C 6,2 C 11,3 km/h (2 Bft) 100,00 %
24.04.2016 12:19 6,3 C 68 % 1010,1 hPa 0,0 l/m 5,9 km/h (2 Bft) W 269 0 min 0,000 mm 1,6 UV-I 289 W/m 0,8 C 6,3 C 9,7 km/h (2 Bft) 100,00 %
24.04.2016 12:20 6,3 C 65 % 1010,1 hPa 0,0 l/m 5,0 km/h (1 Bft) W-SW 244 0 min 0,000 mm 1,6 UV-I 265 W/m 0,2 C 6,3 C 9,7 km/h (2 Bft) 95,83 %
24.04.2016 12:21 6,3 C 64 % 1010,1 hPa 0,0 l/m 5,5 km/h (1 Bft) W-NW 290 0 min 0,000 mm 1,5 UV-I 246 W/m 0,0 C 6,3 C 11,3 km/h (2 Bft) 100,00 %
24.04.2016 12:22 6,3 C 63 % 1010,1 hPa 0,0 l/m 3,7 km/h (1 Bft) W-SW 242 0 min 0,000 mm 1,4 UV-I 230 W/m -0,2 C 6,3 C 4,8 km/h (1 Bft) 95,83 %
24.04.2016 12:23 6,2 C 64 % 1010,1 hPa 0,0 l/m 9,5 km/h (2 Bft) W 259 0 min 0,000 mm 1,3 UV-I 216 W/m -0,1 C 3,7 C 16,1 km/h (3 Bft) 100,00 %
24.04.2016 12:24 6,2 C 65 % 1010,1 hPa 0,0 l/m 11,6 km/h (2 Bft) W-SW 244 0 min 0,000 mm 1,3 UV-I 205 W/m 0,1 C 2,4 C 19,3 km/h (3 Bft) 100,00 %
24.04.2016 12:25 6,2 C 63 % 1010,1 hPa 0,0 l/m 16,4 km/h (3 Bft) W 264 0 min 0,000 mm 1,2 UV-I 200 W/m -0,3 C -0,1 C 24,1 km/h (4 Bft) 100,00 %
24.04.2016 12:26 6,1 C 64 % 1010,1 hPa 0,0 l/m 15,5 km/h (3 Bft) SW 234 0 min 0,000 mm 1,2 UV-I 199 W/m -0,2 C 0,2 C 19,3 km/h (3 Bft) 100,00 %
24.04.2016 12:27 6,1 C 64 % 1010,1 hPa 0,0 l/m 16,2 km/h (3 Bft) W-SW 242 0 min 0,000 mm 1,2 UV-I 196 W/m -0,2 C -0,2 C 24,1 km/h (4 Bft) 100,00 %
24.04.2016 12:28 6,0 C 62 % 1010,1 hPa 0,0 l/m 20,3 km/h (4 Bft) W-NW 290 0 min 0,000 mm 1,1 UV-I 188 W/m -0,7 C -2,0 C 25,7 km/h (4 Bft) 100,00 %
24.04.2016 12:29 5,9 C 63 % 1010,1 hPa 0,0 l/m 10,9 km/h (2 Bft) W-SW 248 0 min 0,000 mm 1,1 UV-I 177 W/m -0,6 C 2,5 C 14,5 km/h (3 Bft) 100,00 %
24.04.2016 12:30 5,9 C 65 % 1010,1 hPa 0,0 l/m 11,1 km/h (2 Bft) W 269 0 min 0,000 mm 1,0 UV-I 165 W/m -0,2 C 2,3 C 14,5 km/h (3 Bft) 100,00 %
24.04.2016 12:31 5,9 C 66 % 1010,1 hPa 0,0 l/m 10,5 km/h (2 Bft) W 265 0 min 0,000 mm 0,9 UV-I 157 W/m 0,0 C 2,7 C 19,3 km/h (3 Bft) 100,00 %
24.04.2016 12:32 5,9 C 66 % 1010,1 hPa 0,0 l/m 8,8 km/h (2 Bft) W-SW 253 0 min 0,000 mm 0,9 UV-I 156 W/m 0,0 C 3,9 C 12,9 km/h (3 Bft) 91,30 %
24.04.2016 12:33 5,9 C 66 % 1010,1 hPa 0,0 l/m 5,3 km/h (1 Bft) W-SW 247 0 min 0,000 mm 0,9 UV-I 156 W/m 0,0 C 5,9 C 11,3 km/h (2 Bft) 100,00 %
24.04.2016 12:34 5,9 C 66 % 1010,1 hPa 0,0 l/m 8,2 km/h (2 Bft) W 263 0 min 0,000 mm 0,9 UV-I 157 W/m 0,0 C 4,4 C 16,1 km/h (3 Bft) 91,30 %
24.04.2016 12:35 5,9 C 68 % 1010,2 hPa 0,0 l/m 3,2 km/h (1 Bft) S-SW 205 0 min 0,000 mm 0,9 UV-I 155 W/m 0,5 C 5,9 C 12,9 km/h (3 Bft) 100,00 %
24.04.2016 12:36 5,8 C 69 % 1010,2 hPa 0,0 l/m 6,1 km/h (2 Bft) W 273 0 min 0,000 mm 0,8 UV-I 150 W/m 0,6 C 5,8 C 14,5 km/h (3 Bft) 100,00 %
24.04.2016 12:37 5,8 C 66 % 1010,1 hPa 0,0 l/m 15,0 km/h (3 Bft) W-SW 251 0 min 0,000 mm 0,9 UV-I 151 W/m -0,0 C 0,0 C 20,9 km/h (4 Bft) 100,00 %
24.04.2016 12:38 5,8 C 67 % 1010,2 hPa 0,0 l/m 6,8 km/h (2 Bft) W-SW 255 0 min 0,000 mm 0,9 UV-I 155 W/m 0,2 C 5,5 C 12,9 km/h (3 Bft) 100,00 %
24.04.2016 12:39 5,7 C 68 % 1010,3 hPa 0,0 l/m 10,3 km/h (2 Bft) W-NW 287 0 min 0,000 mm 0,9 UV-I 168 W/m 0,3 C 2,6 C 16,1 km/h (3 Bft) 100,00 %
24.04.2016 12:40 5,6 C 68 % 1010,2 hPa 0,0 l/m 7,9 km/h (2 Bft) W-SW 250 0 min 0,000 mm 1,2 UV-I 195 W/m 0,2 C 4,3 C 14,5 km/h (3 Bft) 100,00 %
24.04.2016 12:41 5,5 C 70 % 1010,2 hPa 0,0 l/m 10,4 km/h (2 Bft) W-SW 246 0 min 0,000 mm 1,5 UV-I 231 W/m 0,5 C 2,4 C 20,9 km/h (4 Bft) 100,00 %
24.04.2016 12:42 5,4 C 69 % 1010,2 hPa 0,0 l/m 8,1 km/h (2 Bft) W 267 0 min 0,000 mm 1,7 UV-I 258 W/m 0,2 C 3,9 C 11,3 km/h (2 Bft) 100,00 %
24.04.2016 12:43 5,4 C 69 % 1010,2 hPa 0,0 l/m 5,0 km/h (1 Bft) W-SW 240 0 min 0,000 mm 1,7 UV-I 271 W/m 0,2 C 5,4 C 11,3 km/h (2 Bft) 100,00 %
24.04.2016 12:44 5,4 C 71 % 1010,2 hPa 0,0 l/m 4,3 km/h (1 Bft) W-NW 288 0 min 0,000 mm 1,7 UV-I 276 W/m 0,6 C 5,4 C 6,4 km/h (2 Bft) 100,00 %
24.04.2016 12:45 5,4 C 72 % 1010,1 hPa 0,0 l/m 12,1 km/h (2 Bft) SW 229 0 min 0,000 mm 1,7 UV-I 279 W/m 0,8 C 1,2 C 16,1 km/h (3 Bft) 100,00 %
24.04.2016 12:46 5,5 C 72 % 1010,2 hPa 0,0 l/m 8,4 km/h (2 Bft) W 269 0 min 0,000 mm 1,7 UV-I 284 W/m 0,9 C 3,8 C 14,5 km/h (3 Bft) 100,00 %
24.04.2016 12:47 5,6 C 73 % 1010,1 hPa 0,0 l/m 5,4 km/h (1 Bft) NW 313 0 min 0,000 mm 1,7 UV-I 293 W/m 1,2 C 5,6 C 9,7 km/h (2 Bft) 100,00 %
24.04.2016 12:48 5,7 C 72 % 1010,1 hPa 0,0 l/m 6,0 km/h (2 Bft) NW 325 0 min 0,000 mm 1,9 UV-I 310 W/m 1,1 C 5,7 C 9,7 km/h (2 Bft) 100,00 %
24.04.2016 12:49 5,7 C 72 % 1010,1 hPa 0,0 l/m 6,0 km/h (2 Bft) W-NW 288 0 min 0,000 mm 2,0 UV-I 341 W/m 1,1 C 5,7 C 11,3 km/h (2 Bft) 100,00 %
24.04.2016 12:50 5,8 C 72 % 1010,1 hPa 0,0 l/m 5,5 km/h (1 Bft) NW 309 0 min 0,000 mm 2,2 UV-I 385 W/m 1,2 C 5,8 C 11,3 km/h (2 Bft) 100,00 %
24.04.2016 12:51 6,0 C 72 % 1010,1 hPa 0,0 l/m 7,6 km/h (2 Bft) NW 321 0 min 0,000 mm 2,3 UV-I 419 W/m 1,3 C 5,0 C 12,9 km/h (3 Bft) 100,00 %
24.04.2016 12:52 6,1 C 70 % 1010,1 hPa 0,0 l/m 6,9 km/h (2 Bft) W 263 0 min 0,000 mm 2,3 UV-I 430 W/m 1,0 C 5,7 C 11,3 km/h (2 Bft) 100,00 %
24.04.2016 12:53 6,1 C 65 % 1010,0 hPa 0,0 l/m 19,9 km/h (4 Bft) SW 236 0 min 0,000 mm 2,3 UV-I 407 W/m 0,0 C -1,7 C 32,2 km/h (5 Bft) 100,00 %
24.04.2016 12:54 6,1 C 65 % 1010,0 hPa 0,0 l/m 21,1 km/h (4 Bft) W 269 0 min 0,000 mm 2,2 UV-I 395 W/m 0,0 C -2,2 C 29,0 km/h (5 Bft) 100,00 %
24.04.2016 12:55 6,0 C 64 % 1009,9 hPa 0,0 l/m 18,2 km/h (3 Bft) W-SW 254 0 min 0,000 mm 2,2 UV-I 388 W/m -0,3 C -1,2 C 27,4 km/h (4 Bft) 100,00 %
24.04.2016 12:56 6,0 C 64 % 1010,0 hPa 0,0 l/m 14,2 km/h (3 Bft) W 262 0 min 0,000 mm 2,2 UV-I 381 W/m -0,3 C 0,7 C 19,3 km/h (3 Bft) 100,00 %
24.04.2016 12:57 5,9 C 65 % 1009,9 hPa 0,0 l/m 12,9 km/h (3 Bft) W-NW 292 0 min 0,000 mm 2,2 UV-I 379 W/m -0,2 C 1,3 C 22,5 km/h (4 Bft) 100,00 %
24.04.2016 12:58 6,0 C 65 % 1009,9 hPa 0,0 l/m 12,7 km/h (3 Bft) W-SW 249 0 min 0,000 mm 2,2 UV-I 376 W/m -0,1 C 1,5 C 17,7 km/h (3 Bft) 100,00 %
24.04.2016 12:59 6,0 C 65 % 1009,9 hPa 0,0 l/m 12,9 km/h (3 Bft) W 265 0 min 0,000 mm 2,2 UV-I 378 W/m -0,1 C 1,4 C 20,9 km/h (4 Bft) 95,65 %
24.04.2016 13:00 6,0 C 66 % 1010,0 hPa 0,0 l/m 8,6 km/h (2 Bft) W-SW 257 0 min 0,152 mm 2,2 UV-I 379 W/m 0,1 C 4,2 C 16,1 km/h (3 Bft) 100,00 %
24.04.2016 13:02 6,2 C 68 % 1009,9 hPa 0,0 l/m 6,5 km/h (2 Bft) W-SW 254 0 min 0,000 mm 2,2 UV-I 368 W/m 0,7 C 6,1 C 16,1 km/h (3 Bft) 100,00 %
24.04.2016 13:03 6,3 C 69 % 1009,9 hPa 0,0 l/m 9,9 km/h (2 Bft) W-SW 246 0 min 0,000 mm 2,2 UV-I 372 W/m 1,0 C 3,6 C 16,1 km/h (3 Bft) 100,00 %
24.04.2016 13:04 6,3 C 68 % 1009,9 hPa 0,0 l/m 10,9 km/h (2 Bft) W-SW 240 0 min 0,000 mm 2,2 UV-I 381 W/m 0,8 C 2,9 C 16,1 km/h (3 Bft) 100,00 %
24.04.2016 13:05 6,3 C 65 % 1009,9 hPa 0,0 l/m 9,1 km/h (2 Bft) SW 221 0 min 0,000 mm 2,3 UV-I 397 W/m 0,2 C 4,1 C 14,5 km/h (3 Bft) 100,00 %
24.04.2016 13:06 6,3 C 63 % 1009,9 hPa 0,0 l/m 10,3 km/h (2 Bft) W-SW 241 0 min 0,000 mm 2,5 UV-I 419 W/m -0,2 C 3,3 C 20,9 km/h (4 Bft) 95,83 %
24.04.2016 13:07 6,3 C 65 % 1009,9 hPa 0,0 l/m 8,5 km/h (2 Bft) S-SW 198 0 min 0,000 mm 2,5 UV-I 437 W/m 0,2 C 4,6 C 12,9 km/h (3 Bft) 100,00 %
24.04.2016 13:08 6,3 C 65 % 1009,9 hPa 0,0 l/m 6,4 km/h (2 Bft) W-NW 297 0 min 0,000 mm 2,6 UV-I 438 W/m 0,2 C 6,3 C 14,5 km/h (3 Bft) 100,00 %
24.04.2016 13:09 6,3 C 65 % 1009,9 hPa 0,0 l/m 5,0 km/h (1 Bft) W 267 0 min 0,000 mm 2,6 UV-I 442 W/m 0,2 C 6,3 C 8,0 km/h (2 Bft) 95,83 %
24.04.2016 13:10 6,4 C 68 % 1009,9 hPa 0,0 l/m 4,1 km/h (1 Bft) W-SW 240 1 min 0,000 mm 2,6 UV-I 463 W/m 0,9 C 6,4 C 6,4 km/h (2 Bft) 100,00 %
24.04.2016 13:11 6,4 C 66 % 1009,9 hPa 0,0 l/m 10,9 km/h (2 Bft) W 259 1 min 0,000 mm 2,8 UV-I 479 W/m 0,5 C 3,0 C 16,1 km/h (3 Bft) 100,00 %
24.04.2016 13:12 6,5 C 64 % 1009,8 hPa 0,0 l/m 12,4 km/h (3 Bft) SW 228 1 min 0,000 mm 2,8 UV-I 502 W/m 0,2 C 2,3 C 22,5 km/h (4 Bft) 100,00 %
24.04.2016 13:13 6,6 C 64 % 1009,8 hPa 0,0 l/m 10,3 km/h (2 Bft) W-NW 288 1 min 0,000 mm 3,1 UV-I 542 W/m 0,3 C 3,6 C 17,7 km/h (3 Bft) 100,00 %
24.04.2016 13:14 6,6 C 62 % 1009,8 hPa 0,0 l/m 9,3 km/h (2 Bft) W 270 1 min 0,000 mm 3,1 UV-I 557 W/m -0,1 C 4,3 C 16,1 km/h (3 Bft) 100,00 %
24.04.2016 13:15 6,7 C 64 % 1009,8 hPa 0,0 l/m 7,8 km/h (2 Bft) W-NW 300 1 min 0,000 mm 3,1 UV-I 550 W/m 0,4 C 5,5 C 12,9 km/h (3 Bft) 100,00 %
24.04.2016 13:16 6,7 C 64 % 1009,8 hPa 0,0 l/m 5,2 km/h (1 Bft) SW 229 1 min 0,000 mm 2,9 UV-I 542 W/m 0,4 C 6,7 C 12,9 km/h (3 Bft) 95,65 %
24.04.2016 13:17 6,8 C 63 % 1009,8 hPa 0,0 l/m 4,4 km/h (1 Bft) W-SW 258 1 min 0,000 mm 3,0 UV-I 590 W/m 0,3 C 6,8 C 9,7 km/h (2 Bft) 100,00 %
24.04.2016 13:18 6,9 C 64 % 1009,7 hPa 0,0 l/m 3,8 km/h (1 Bft) N 5 1 min 0,000 mm 2,8 UV-I 608 W/m 0,6 C 6,9 C 8,0 km/h (2 Bft) 95,65 %
24.04.2016 13:19 7,0 C 67 % 1009,7 hPa 0,0 l/m 7,0 km/h (2 Bft) W 263 1 min 0,000 mm 2,7 UV-I 586 W/m 1,3 C 6,5 C 14,5 km/h (3 Bft) 95,83 %
24.04.2016 13:20 7,1 C 62 % 1009,8 hPa 0,0 l/m 7,7 km/h (2 Bft) W-NW 302 0 min 0,000 mm 2,2 UV-I 413 W/m 0,3 C 6,0 C 17,7 km/h (3 Bft) 81,82 %
24.04.2016 13:21 7,0 C 62 % 1009,7 hPa 0,0 l/m 6,0 km/h (2 Bft) NW 313 0 min 0,000 mm 2,1 UV-I 378 W/m 0,2 C 7,0 C 11,3 km/h (2 Bft) 95,83 %
24.04.2016 13:22 6,9 C 60 % 1009,7 hPa 0,0 l/m 5,1 km/h (1 Bft) W 268 0 min 0,000 mm 1,9 UV-I 371 W/m -0,3 C 6,9 C 14,5 km/h (3 Bft) 95,83 %
24.04.2016 13:23 6,8 C 63 % 1009,7 hPa 0,0 l/m 6,8 km/h (2 Bft) W 266 0 min 0,000 mm 1,9 UV-I 354 W/m 0,3 C 6,5 C 12,9 km/h (3 Bft) 96,15 %
24.04.2016 13:24 6,8 C 63 % 1009,7 hPa 0,0 l/m 10,3 km/h (2 Bft) W-NW 294 0 min 0,000 mm 1,8 UV-I 336 W/m 0,3 C 3,9 C 16,1 km/h (3 Bft) 95,83 %
24.04.2016 13:25 6,7 C 62 % 1009,8 hPa 0,0 l/m 8,2 km/h (2 Bft) W-NW 286 0 min 0,000 mm 1,8 UV-I 331 W/m -0,1 C 5,2 C 12,9 km/h (3 Bft) 91,30 %
24.04.2016 13:26 6,7 C 64 % 1009,7 hPa 0,0 l/m 12,1 km/h (2 Bft) W 260 0 min 0,000 mm 1,9 UV-I 346 W/m 0,4 C 2,7 C 19,3 km/h (3 Bft) 100,00 %
24.04.2016 13:27 6,7 C 65 % 1009,8 hPa 0,0 l/m 10,3 km/h (2 Bft) SW 234 0 min 0,000 mm 2,0 UV-I 369 W/m 0,6 C 3,8 C 20,9 km/h (4 Bft) 91,30 %
24.04.2016 13:28 6,8 C 63 % 1009,8 hPa 0,0 l/m 18,3 km/h (3 Bft) W-SW 250 0 min 0,000 mm 2,1 UV-I 403 W/m 0,3 C -0,2 C 22,5 km/h (4 Bft) 100,00 %
24.04.2016 13:29 6,8 C 62 % 1009,8 hPa 0,0 l/m 14,8 km/h (3 Bft) W-NW 284 0 min 0,000 mm 2,2 UV-I 405 W/m 0,0 C 1,4 C 20,9 km/h (4 Bft) 91,30 %
24.04.2016 13:30 6,7 C 60 % 1009,7 hPa 0,0 l/m 21,3 km/h (4 Bft) W 274 0 min 0,000 mm 2,2 UV-I 413 W/m -0,5 C -1,4 C 27,4 km/h (4 Bft) 95,83 %
24.04.2016 13:31 6,7 C 61 % 1009,6 hPa 0,0 l/m 15,6 km/h (3 Bft) W-SW 250 0 min 0,000 mm 2,2 UV-I 405 W/m -0,3 C 0,9 C 20,9 km/h (4 Bft) 100,00 %
24.04.2016 13:32 6,6 C 61 % 1009,6 hPa 0,0 l/m 21,3 km/h (4 Bft) W 262 0 min 0,000 mm 2,2 UV-I 393 W/m -0,4 C -1,6 C 32,2 km/h (5 Bft) 95,83 %
24.04.2016 13:33 6,6 C 60 % 1009,7 hPa 0,0 l/m 22,6 km/h (4 Bft) W 268 0 min 0,000 mm 2,2 UV-I 402 W/m -0,6 C -2,0 C 29,0 km/h (5 Bft) 100,00 %
24.04.2016 13:34 6,5 C 60 % 1009,6 hPa 0,0 l/m 18,8 km/h (3 Bft) W 261 0 min 0,000 mm 2,2 UV-I 408 W/m -0,7 C -0,8 C 25,7 km/h (4 Bft) 95,83 %
24.04.2016 13:35 6,5 C 61 % 1009,7 hPa 0,0 l/m 13,4 km/h (3 Bft) W-NW 288 0 min 0,000 mm 2,2 UV-I 420 W/m -0,5 C 1,7 C 20,9 km/h (4 Bft) 100,00 %
24.04.2016 13:36 6,5 C 63 % 1009,6 hPa 0,0 l/m 11,7 km/h (2 Bft) W-SW 248 0 min 0,000 mm 2,2 UV-I 414 W/m -0,0 C 2,7 C 20,9 km/h (4 Bft) 95,83 %
24.04.2016 13:37 6,6 C 65 % 1009,6 hPa 0,0 l/m 11,0 km/h (2 Bft) SW 225 0 min 0,000 mm 2,2 UV-I 412 W/m 0,5 C 3,2 C 19,3 km/h (3 Bft) 100,00 %
24.04.2016 13:38 6,7 C 63 % 1009,6 hPa 0,0 l/m 16,9 km/h (3 Bft) W-SW 254 1 min 0,000 mm 2,2 UV-I 452 W/m 0,2 C 0,3 C 29,0 km/h (5 Bft) 87,50 %
24.04.2016 13:39 6,7 C 62 % 1009,6 hPa 0,0 l/m 16,6 km/h (3 Bft) W 263 1 min 0,000 mm 2,4 UV-I 464 W/m -0,1 C 0,4 C 24,1 km/h (4 Bft) 95,65 %
24.04.2016 13:40 6,7 C 60 % 1009,6 hPa 0,0 l/m 14,9 km/h (3 Bft) W 265 1 min 0,000 mm 2,4 UV-I 461 W/m -0,5 C 1,2 C 22,5 km/h (4 Bft) 100,00 %
24.04.2016 13:41 6,7 C 61 % 1009,7 hPa 0,0 l/m 11,8 km/h (2 Bft) W 272 1 min 0,000 mm 2,5 UV-I 450 W/m -0,3 C 2,8 C 19,3 km/h (3 Bft) 96,15 %
24.04.2016 13:42 6,6 C 61 % 1009,6 hPa 0,0 l/m 9,4 km/h (2 Bft) W-NW 298 1 min 0,000 mm 2,5 UV-I 455 W/m -0,4 C 4,2 C 20,9 km/h (4 Bft) 100,00 %
24.04.2016 13:43 6,7 C 61 % 1009,5 hPa 0,0 l/m 10,2 km/h (2 Bft) W-SW 257 1 min 0,000 mm 2,5 UV-I 456 W/m -0,3 C 3,8 C 14,5 km/h (3 Bft) 95,65 %
24.04.2016 13:44 6,7 C 62 % 1009,6 hPa 0,0 l/m 5,5 km/h (1 Bft) SW 232 0 min 0,000 mm 2,4 UV-I 439 W/m -0,1 C 6,7 C 12,9 km/h (3 Bft) 100,00 %
24.04.2016 13:45 6,7 C 62 % 1009,7 hPa 0,0 l/m 8,4 km/h (2 Bft) W-SW 242 0 min 0,000 mm 2,4 UV-I 440 W/m -0,1 C 5,1 C 16,1 km/h (3 Bft) 95,65 %
24.04.2016 13:46 6,8 C 63 % 1009,7 hPa 0,0 l/m 9,0 km/h (2 Bft) SW 221 0 min 0,000 mm 2,4 UV-I 434 W/m 0,3 C 4,7 C 16,1 km/h (3 Bft) 95,83 %
24.04.2016 13:47 6,8 C 60 % 1009,7 hPa 0,0 l/m 13,6 km/h (3 Bft) W 273 0 min 0,000 mm 2,3 UV-I 412 W/m -0,4 C 2,0 C 19,3 km/h (3 Bft) 100,00 %
24.04.2016 13:49 6,9 C 62 % 1009,6 hPa 0,0 l/m 9,2 km/h (2 Bft) W-SW 252 0 min 0,000 mm 2,3 UV-I 410 W/m 0,1 C 4,7 C 16,1 km/h (3 Bft) 100,00 %
24.04.2016 13:50 6,9 C 60 % 1009,5 hPa 0,0 l/m 8,3 km/h (2 Bft) W 261 0 min 0,000 mm 2,3 UV-I 398 W/m -0,3 C 5,4 C 20,9 km/h (4 Bft) 100,00 %
24.04.2016 13:51 6,9 C 60 % 1009,6 hPa 0,0 l/m 7,1 km/h (2 Bft) W 260 0 min 0,000 mm 2,3 UV-I 387 W/m -0,3 C 6,3 C 14,5 km/h (3 Bft) 100,00 %
24.04.2016 13:52 6,9 C 62 % 1009,6 hPa 0,0 l/m 11,0 km/h (2 Bft) NW 322 0 min 0,000 mm 2,2 UV-I 379 W/m 0,1 C 3,5 C 17,7 km/h (3 Bft) 100,00 %
24.04.2016 13:53 6,9 C 60 % 1009,6 hPa 0,0 l/m 10,9 km/h (2 Bft) W-SW 238 0 min 0,000 mm 2,2 UV-I 371 W/m -0,3 C 3,6 C 19,3 km/h (3 Bft) 100,00 %
24.04.2016 13:54 6,9 C 58 % 1009,6 hPa 0,0 l/m 6,2 km/h (2 Bft) S-SW 213 0 min 0,000 mm 2,2 UV-I 364 W/m -0,8 C 6,9 C 11,3 km/h (2 Bft) 100,00 %
24.04.2016 13:55 6,8 C 58 % 1009,6 hPa 0,0 l/m 11,1 km/h (2 Bft) W-NW 300 0 min 0,000 mm 2,2 UV-I 360 W/m -0,9 C 3,4 C 19,3 km/h (3 Bft) 100,00 %
24.04.2016 13:56 6,8 C 59 % 1009,6 hPa 0,0 l/m 12,1 km/h (2 Bft) W 277 0 min 0,000 mm 2,2 UV-I 371 W/m -0,6 C 2,8 C 19,3 km/h (3 Bft) 96,15 %
24.04.2016 13:57 6,8 C 59 % 1009,6 hPa 0,0 l/m 9,2 km/h (2 Bft) N-NW 338 0 min 0,000 mm 2,1 UV-I 356 W/m -0,6 C 4,6 C 12,9 km/h (3 Bft) 100,00 %
24.04.2016 13:58 6,8 C 59 % 1009,5 hPa 0,0 l/m 9,2 km/h (2 Bft) N-NW 338 0 min 0,000 mm 2,1 UV-I 336 W/m -0,6 C 4,6 C 17,7 km/h (3 Bft) 100,00 %
24.04.2016 13:59 6,8 C 58 % 1009,5 hPa 0,0 l/m 10,9 km/h (2 Bft) W-SW 250 0 min 0,000 mm 2,0 UV-I 330 W/m -0,9 C 3,5 C 17,7 km/h (3 Bft) 100,00 %
24.04.2016 14:00 6,7 C 57 % 1009,5 hPa 0,0 l/m 10,2 km/h (2 Bft) SW 223 0 min 0,204 mm 2,1 UV-I 343 W/m -1,2 C 3,8 C 14,5 km/h (3 Bft) 95,65 %
24.04.2016 14:02 6,7 C 58 % 1009,5 hPa 0,0 l/m 14,9 km/h (3 Bft) W-SW 246 0 min 0,000 mm 2,2 UV-I 380 W/m -1,0 C 1,2 C 27,4 km/h (4 Bft) 100,00 %
24.04.2016 14:03 6,7 C 57 % 1009,5 hPa 0,0 l/m 16,3 km/h (3 Bft) W 277 1 min 0,000 mm 2,4 UV-I 443 W/m -1,2 C 0,5 C 22,5 km/h (4 Bft) 100,00 %
24.04.2016 14:04 6,7 C 57 % 1009,5 hPa 0,0 l/m 17,1 km/h (3 Bft) W-SW 257 1 min 0,000 mm 2,5 UV-I 466 W/m -1,2 C 0,2 C 22,5 km/h (4 Bft) 95,65 %
24.04.2016 14:05 6,7 C 60 % 1009,5 hPa 0,0 l/m 18,8 km/h (3 Bft) W 261 1 min 0,000 mm 2,5 UV-I 468 W/m -0,5 C -0,5 C 22,5 km/h (4 Bft) 100,00 %
24.04.2016 14:06 6,7 C 59 % 1009,5 hPa 0,0 l/m 10,9 km/h (2 Bft) W-SW 248 1 min 0,000 mm 2,5 UV-I 454 W/m -0,7 C 3,4 C 16,1 km/h (3 Bft) 100,00 %
24.04.2016 14:07 6,7 C 59 % 1009,5 hPa 0,0 l/m 12,7 km/h (3 Bft) W-SW 252 0 min 0,000 mm 2,4 UV-I 428 W/m -0,7 C 2,3 C 17,7 km/h (3 Bft) 100,00 %
24.04.2016 14:08 6,7 C 58 % 1009,5 hPa 0,0 l/m 10,5 km/h (2 Bft) SO 134 0 min 0,000 mm 2,3 UV-I 410 W/m -1,0 C 3,6 C 16,1 km/h (3 Bft) 100,00 %
24.04.2016 14:09 6,8 C 59 % 1009,4 hPa 0,0 l/m 7,5 km/h (2 Bft) W-SW 253 0 min 0,000 mm 2,3 UV-I 416 W/m -0,6 C 5,9 C 14,5 km/h (3 Bft) 100,00 %
24.04.2016 14:10 6,8 C 59 % 1009,5 hPa 0,0 l/m 10,9 km/h (2 Bft) W-SW 246 0 min 0,000 mm 2,3 UV-I 425 W/m -0,6 C 3,5 C 16,1 km/h (3 Bft) 100,00 %
24.04.2016 14:11 6,8 C 61 % 1009,5 hPa 0,0 l/m 7,8 km/h (2 Bft) W 261 1 min 0,000 mm 2,4 UV-I 440 W/m -0,2 C 5,6 C 11,3 km/h (2 Bft) 100,00 %
24.04.2016 14:12 6,9 C 61 % 1009,5 hPa 0,0 l/m 7,4 km/h (2 Bft) W-SW 241 1 min 0,000 mm 2,4 UV-I 454 W/m -0,1 C 6,1 C 11,3 km/h (2 Bft) 100,00 %
24.04.2016 14:13 7,1 C 62 % 1009,5 hPa 0,0 l/m 5,2 km/h (1 Bft) W 281 1 min 0,000 mm 2,4 UV-I 449 W/m 0,3 C 7,1 C 9,7 km/h (2 Bft) 100,00 %
24.04.2016 14:14 7,1 C 60 % 1009,5 hPa 0,0 l/m 10,6 km/h (2 Bft) W 260 1 min 0,000 mm 2,3 UV-I 446 W/m -0,1 C 4,0 C 16,1 km/h (3 Bft) 100,00 %
24.04.2016 14:15 7,1 C 55 % 1009,5 hPa 0,0 l/m 9,5 km/h (2 Bft) W 277 1 min 0,000 mm 2,3 UV-I 442 W/m -1,3 C 4,7 C 16,1 km/h (3 Bft) 100,00 %
24.04.2016 14:16 7,0 C 54 % 1009,4 hPa 0,0 l/m 9,6 km/h (2 Bft) SW 222 1 min 0,000 mm 2,3 UV-I 445 W/m -1,7 C 4,5 C 12,9 km/h (3 Bft) 100,00 %
24.04.2016 14:17 6,9 C 56 % 1009,4 hPa 0,0 l/m 9,5 km/h (2 Bft) W-SW 255 1 min 0,000 mm 2,3 UV-I 439 W/m -1,3 C 4,5 C 12,9 km/h (3 Bft) 95,65 %
24.04.2016 14:18 6,9 C 57 % 1009,5 hPa 0,0 l/m 8,9 km/h (2 Bft) SW 232 1 min 0,000 mm 2,2 UV-I 440 W/m -1,0 C 4,9 C 12,9 km/h (3 Bft) 100,00 %
24.04.2016 14:19 6,9 C 58 % 1009,5 hPa 0,0 l/m 14,2 km/h (3 Bft) SW 230 1 min 0,000 mm 2,2 UV-I 440 W/m -0,8 C 1,8 C 20,9 km/h (4 Bft) 100,00 %
24.04.2016 14:20 6,9 C 58 % 1009,4 hPa 0,0 l/m 19,8 km/h (3 Bft) W 259 1 min 0,000 mm 2,2 UV-I 432 W/m -0,8 C -0,6 C 30,6 km/h (5 Bft) 100,00 %
24.04.2016 14:21 6,9 C 57 % 1009,4 hPa 0,0 l/m 19,8 km/h (3 Bft) W 264 1 min 0,000 mm 2,2 UV-I 429 W/m -1,0 C -0,6 C 25,7 km/h (4 Bft) 100,00 %
24.04.2016 14:22 6,9 C 56 % 1009,4 hPa 0,0 l/m 18,8 km/h (3 Bft) W-SW 250 0 min 0,000 mm 2,1 UV-I 410 W/m -1,3 C -0,3 C 22,5 km/h (4 Bft) 100,00 %
24.04.2016 14:23 6,9 C 55 % 1009,4 hPa 0,0 l/m 12,9 km/h (3 Bft) SW 229 0 min 0,000 mm 2,0 UV-I 394 W/m -1,5 C 2,4 C 17,7 km/h (3 Bft) 100,00 %
24.04.2016 14:24 6,9 C 57 % 1009,4 hPa 0,0 l/m 18,1 km/h (3 Bft) SW 232 0 min 0,000 mm 2,0 UV-I 383 W/m -1,0 C 0,0 C 32,2 km/h (5 Bft) 100,00 %
24.04.2016 14:25 6,8 C 57 % 1009,4 hPa 0,0 l/m 20,3 km/h (4 Bft) W-SW 250 0 min 0,000 mm 1,9 UV-I 373 W/m -1,1 C -1,0 C 27,4 km/h (4 Bft) 100,00 %
24.04.2016 14:26 6,8 C 57 % 1009,4 hPa 0,0 l/m 15,4 km/h (3 Bft) W 259 0 min 0,000 mm 1,9 UV-I 369 W/m -1,1 C 1,1 C 20,9 km/h (4 Bft) 95,83 %
24.04.2016 14:27 6,8 C 58 % 1009,4 hPa 0,0 l/m 13,8 km/h (3 Bft) W-NW 292 0 min 0,000 mm 1,8 UV-I 360 W/m -0,9 C 1,9 C 19,3 km/h (3 Bft) 96,15 %
24.04.2016 14:28 6,8 C 58 % 1009,4 hPa 0,0 l/m 13,3 km/h (3 Bft) W 269 0 min 0,000 mm 1,8 UV-I 350 W/m -0,9 C 2,1 C 16,1 km/h (3 Bft) 100,00 %
24.04.2016 14:29 6,8 C 58 % 1009,4 hPa 0,0 l/m 11,5 km/h (2 Bft) SW 231 0 min 0,000 mm 1,8 UV-I 346 W/m -0,9 C 3,1 C 16,1 km/h (3 Bft) 95,65 %
24.04.2016 14:30 6,8 C 57 % 1009,4 hPa 0,0 l/m 8,6 km/h (2 Bft) W-SW 248 0 min 0,000 mm 1,7 UV-I 343 W/m -1,1 C 5,0 C 16,1 km/h (3 Bft) 100,00 %
24.04.2016 14:31 6,7 C 58 % 1009,4 hPa 0,0 l/m 13,1 km/h (3 Bft) W-SW 257 0 min 0,000 mm 1,7 UV-I 344 W/m -1,0 C 2,1 C 19,3 km/h (3 Bft) 95,65 %
24.04.2016 14:32 6,7 C 59 % 1009,4 hPa 0,0 l/m 11,4 km/h (2 Bft) W-SW 240 0 min 0,000 mm 1,7 UV-I 346 W/m -0,7 C 3,1 C 14,5 km/h (3 Bft) 100,00 %
24.04.2016 14:33 6,8 C 61 % 1009,4 hPa 0,0 l/m 12,3 km/h (3 Bft) W-SW 240 0 min 0,000 mm 1,7 UV-I 346 W/m -0,2 C 2,7 C 20,9 km/h (4 Bft) 100,00 %
24.04.2016 14:34 6,8 C 59 % 1009,3 hPa 0,0 l/m 7,8 km/h (2 Bft) W 271 0 min 0,000 mm 1,7 UV-I 346 W/m -0,6 C 5,6 C 12,9 km/h (3 Bft) 100,00 %
24.04.2016 14:35 6,8 C 60 % 1009,3 hPa 0,0 l/m 8,2 km/h (2 Bft) W-SW 247 0 min 0,000 mm 1,7 UV-I 346 W/m -0,4 C 5,3 C 12,9 km/h (3 Bft) 100,00 %
24.04.2016 14:36 6,9 C 61 % 1009,3 hPa 0,0 l/m 11,8 km/h (2 Bft) W-SW 243 0 min 0,000 mm 1,7 UV-I 349 W/m -0,1 C 3,1 C 14,5 km/h (3 Bft) 95,65 %
24.04.2016 14:37 6,9 C 61 % 1009,3 hPa 0,0 l/m 18,3 km/h (3 Bft) W-SW 245 0 min 0,000 mm 1,7 UV-I 356 W/m -0,1 C -0,1 C 25,7 km/h (4 Bft) 100,00 %
24.04.2016 14:38 6,9 C 60 % 1009,3 hPa 0,0 l/m 14,6 km/h (3 Bft) W 273 0 min 0,000 mm 1,8 UV-I 371 W/m -0,3 C 1,6 C 17,7 km/h (3 Bft) 100,00 %
24.04.2016 14:39 6,9 C 58 % 1009,3 hPa 0,0 l/m 15,4 km/h (3 Bft) W 266 0 min 0,000 mm 1,9 UV-I 390 W/m -0,8 C 1,2 C 22,5 km/h (4 Bft) 95,83 %
24.04.2016 14:40 6,8 C 59 % 1009,3 hPa 0,0 l/m 14,5 km/h (3 Bft) W-SW 256 0 min 0,000 mm 1,9 UV-I 404 W/m -0,6 C 1,5 C 20,9 km/h (4 Bft) 95,65 %
24.04.2016 14:41 6,8 C 60 % 1009,3 hPa 0,0 l/m 14,8 km/h (3 Bft) W-SW 258 0 min 0,000 mm 1,9 UV-I 402 W/m -0,4 C 1,4 C 20,9 km/h (4 Bft) 100,00 %
24.04.2016 14:42 6,8 C 58 % 1009,3 hPa 0,0 l/m 11,4 km/h (2 Bft) SW 233 0 min 0,000 mm 1,9 UV-I 392 W/m -0,9 C 3,2 C 16,1 km/h (3 Bft) 100,00 %
24.04.2016 14:43 6,8 C 59 % 1009,3 hPa 0,0 l/m 10,6 km/h (2 Bft) W-SW 249 0 min 0,000 mm 1,9 UV-I 387 W/m -0,6 C 3,7 C 17,7 km/h (3 Bft) 100,00 %
24.04.2016 14:44 6,8 C 61 % 1009,2 hPa 0,0 l/m 16,0 km/h (3 Bft) W 273 0 min 0,000 mm 1,9 UV-I 388 W/m -0,2 C 0,8 C 22,5 km/h (4 Bft) 100,00 %
24.04.2016 14:45 6,8 C 59 % 1009,3 hPa 0,0 l/m 12,7 km/h (3 Bft) W 260 0 min 0,000 mm 1,9 UV-I 389 W/m -0,6 C 2,4 C 20,9 km/h (4 Bft) 100,00 %
24.04.2016 14:46 6,8 C 57 % 1009,2 hPa 0,0 l/m 5,8 km/h (2 Bft) SW 234 0 min 0,000 mm 1,9 UV-I 388 W/m -1,1 C 6,8 C 12,9 km/h (3 Bft) 100,00 %
24.04.2016 14:47 6,9 C 60 % 1009,3 hPa 0,0 l/m 8,2 km/h (2 Bft) W 265 0 min 0,000 mm 1,9 UV-I 388 W/m -0,3 C 5,4 C 14,5 km/h (3 Bft) 100,00 %
24.04.2016 14:48 6,9 C 59 % 1009,2 hPa 0,0 l/m 12,0 km/h (2 Bft) W 259 0 min 0,000 mm 1,9 UV-I 398 W/m -0,5 C 2,9 C 16,1 km/h (3 Bft) 100,00 %
24.04.2016 14:49 6,9 C 59 % 1009,2 hPa 0,0 l/m 9,3 km/h (2 Bft) W 268 0 min 0,000 mm 2,0 UV-I 397 W/m -0,5 C 4,6 C 14,5 km/h (3 Bft) 100,00 %
24.04.2016 14:50 6,9 C 58 % 1009,2 hPa 0,0 l/m 9,1 km/h (2 Bft) W-NW 292 0 min 0,000 mm 1,9 UV-I 382 W/m -0,8 C 4,8 C 14,5 km/h (3 Bft) 100,00 %
24.04.2016 14:51 6,9 C 58 % 1009,2 hPa 0,0 l/m 9,4 km/h (2 Bft) S-SW 208 0 min 0,000 mm 1,8 UV-I 368 W/m -0,8 C 4,6 C 14,5 km/h (3 Bft) 100,00 %
24.04.2016 14:52 6,9 C 60 % 1009,2 hPa 0,0 l/m 6,9 km/h (2 Bft) NW 315 0 min 0,000 mm 1,8 UV-I 363 W/m -0,3 C 6,5 C 11,3 km/h (2 Bft) 100,00 %
24.04.2016 14:53 6,9 C 60 % 1009,2 hPa 0,0 l/m 9,0 km/h (2 Bft) SW 215 0 min 0,000 mm 1,8 UV-I 358 W/m -0,3 C 4,9 C 12,9 km/h (3 Bft) 95,65 %
24.04.2016 14:54 7,0 C 61 % 1009,2 hPa 0,0 l/m 13,3 km/h (3 Bft) W-SW 257 0 min 0,000 mm 1,7 UV-I 346 W/m 0,0 C 2,3 C 20,9 km/h (4 Bft) 100,00 %
24.04.2016 14:55 7,1 C 61 % 1009,3 hPa 0,0 l/m 12,3 km/h (3 Bft) W-NW 284 0 min 0,000 mm 1,7 UV-I 340 W/m 0,1 C 3,0 C 20,9 km/h (4 Bft) 95,65 %
24.04.2016 14:56 7,1 C 61 % 1009,3 hPa 0,0 l/m 8,2 km/h (2 Bft) W-SW 242 0 min 0,000 mm 1,7 UV-I 338 W/m 0,1 C 5,7 C 14,5 km/h (3 Bft) 100,00 %
24.04.2016 14:57 7,1 C 60 % 1009,3 hPa 0,0 l/m 11,2 km/h (2 Bft) W-SW 257 0 min 0,000 mm 1,7 UV-I 337 W/m -0,1 C 3,6 C 19,3 km/h (3 Bft) 100,00 %
24.04.2016 14:58 7,0 C 59 % 1009,2 hPa 0,0 l/m 13,7 km/h (3 Bft) SW 234 0 min 0,000 mm 1,6 UV-I 336 W/m -0,5 C 2,1 C 19,3 km/h (3 Bft) 100,00 %
24.04.2016 14:59 6,9 C 58 % 1009,2 hPa 0,0 l/m 13,5 km/h (3 Bft) W 259 0 min 0,000 mm 1,6 UV-I 330 W/m -0,8 C 2,1 C 19,3 km/h (3 Bft) 95,65 %
24.04.2016 15:00 6,8 C 61 % 1009,3 hPa 0,0 l/m 13,5 km/h (3 Bft) W-NW 286 0 min 0,203 mm 1,6 UV-I 318 W/m -0,2 C 2,0 C 19,3 km/h (3 Bft) 100,00 %
24.04.2016 15:02 6,8 C 60 % 1009,2 hPa 0,0 l/m 14,8 km/h (3 Bft) SW 232 0 min 0,000 mm 1,4 UV-I 294 W/m -0,4 C 1,4 C 27,4 km/h (4 Bft) 97,87 %
24.04.2016 15:03 6,8 C 61 % 1009,2 hPa 0,0 l/m 16,9 km/h (3 Bft) W 265 0 min 0,000 mm 1,3 UV-I 278 W/m -0,2 C 0,4 C 20,9 km/h (4 Bft) 100,00 %
24.04.2016 15:04 6,7 C 61 % 1009,2 hPa 0,0 l/m 12,7 km/h (3 Bft) W-SW 243 0 min 0,000 mm 1,3 UV-I 270 W/m -0,3 C 2,3 C 19,3 km/h (3 Bft) 100,00 %
24.04.2016 15:05 6,7 C 60 % 1009,2 hPa 0,0 l/m 8,0 km/h (2 Bft) W 262 0 min 0,000 mm 1,3 UV-I 265 W/m -0,5 C 5,4 C 12,9 km/h (3 Bft) 95,65 %
24.04.2016 15:06 6,7 C 62 % 1009,2 hPa 0,0 l/m 8,9 km/h (2 Bft) W 261 0 min 0,000 mm 1,3 UV-I 264 W/m -0,1 C 4,7 C 12,9 km/h (3 Bft) 100,00 %
24.04.2016 15:07 6,6 C 62 % 1009,2 hPa 0,0 l/m 14,1 km/h (3 Bft) W-SW 245 0 min 0,000 mm 1,2 UV-I 253 W/m -0,1 C 1,5 C 17,7 km/h (3 Bft) 100,00 %
24.04.2016 15:08 6,6 C 62 % 1009,3 hPa 0,0 l/m 12,2 km/h (2 Bft) W 263 0 min 0,000 mm 1,2 UV-I 240 W/m -0,1 C 2,5 C 19,3 km/h (3 Bft) 100,00 %
24.04.2016 15:09 6,6 C 64 % 1009,2 hPa 0,0 l/m 15,9 km/h (3 Bft) W 259 0 min 0,000 mm 1,1 UV-I 230 W/m 0,3 C 0,6 C 20,9 km/h (4 Bft) 95,83 %
24.04.2016 15:10 6,6 C 63 % 1009,2 hPa 0,0 l/m 12,6 km/h (3 Bft) W-SW 245 0 min 0,000 mm 1,0 UV-I 220 W/m 0,1 C 2,3 C 16,1 km/h (3 Bft) 100,00 %
24.04.2016 15:11 6,7 C 62 % 1009,3 hPa 0,0 l/m 9,8 km/h (2 Bft) W 269 0 min 0,000 mm 1,0 UV-I 210 W/m -0,1 C 4,1 C 14,5 km/h (3 Bft) 96,30 %
24.04.2016 15:12 6,6 C 62 % 1009,2 hPa 0,0 l/m 11,4 km/h (2 Bft) W-SW 249 0 min 0,000 mm 0,9 UV-I 207 W/m -0,1 C 3,0 C 14,5 km/h (3 Bft) 95,65 %
24.04.2016 15:13 6,6 C 62 % 1009,3 hPa 0,0 l/m 10,7 km/h (2 Bft) W 279 0 min 0,000 mm 1,0 UV-I 214 W/m -0,1 C 3,4 C 14,5 km/h (3 Bft) 91,67 %
24.04.2016 15:14 6,6 C 61 % 1009,2 hPa 0,0 l/m 13,8 km/h (3 Bft) W 260 0 min 0,000 mm 1,0 UV-I 226 W/m -0,4 C 1,6 C 20,9 km/h (4 Bft) 97,37 %
24.04.2016 15:15 6,7 C 64 % 1009,2 hPa 0,0 l/m 12,3 km/h (3 Bft) W-NW 290 0 min 0,000 mm 1,1 UV-I 235 W/m 0,4 C 2,5 C 16,1 km/h (3 Bft) 100,00 %
24.04.2016 15:16 6,7 C 64 % 1009,2 hPa 0,0 l/m 6,2 km/h (2 Bft) W-SW 254 0 min 0,000 mm 1,1 UV-I 236 W/m 0,4 C 6,7 C 11,3 km/h (2 Bft) 95,65 %
24.04.2016 15:17 6,7 C 67 % 1009,2 hPa 0,0 l/m 10,5 km/h (2 Bft) W-SW 257 0 min 0,000 mm 1,1 UV-I 233 W/m 1,0 C 3,6 C 16,1 km/h (3 Bft) 100,00 %
24.04.2016 15:18 6,7 C 63 % 1009,2 hPa 0,0 l/m 10,9 km/h (2 Bft) SW 230 0 min 0,000 mm 1,1 UV-I 231 W/m 0,2 C 3,4 C 14,5 km/h (3 Bft) 91,30 %
24.04.2016 15:19 6,7 C 62 % 1009,2 hPa 0,0 l/m 13,5 km/h (3 Bft) W 259 0 min 0,000 mm 1,1 UV-I 235 W/m -0,1 C 1,9 C 17,7 km/h (3 Bft) 100,00 %
24.04.2016 15:20 6,7 C 62 % 1009,2 hPa 0,0 l/m 10,6 km/h (2 Bft) SW 236 0 min 0,000 mm 1,1 UV-I 245 W/m -0,1 C 3,6 C 16,1 km/h (3 Bft) 91,30 %
24.04.2016 15:21 6,6 C 63 % 1009,2 hPa 0,0 l/m 5,8 km/h (2 Bft) N-NW 327 0 min 0,000 mm 1,2 UV-I 258 W/m 0,1 C 6,6 C 11,3 km/h (2 Bft) 100,00 %
24.04.2016 15:22 6,7 C 64 % 1009,2 hPa 0,0 l/m 10,8 km/h (2 Bft) W 265 0 min 0,000 mm 1,3 UV-I 271 W/m 0,4 C 3,4 C 16,1 km/h (3 Bft) 95,65 %
24.04.2016 15:23 6,7 C 64 % 1009,2 hPa 0,0 l/m 9,0 km/h (2 Bft) W-NW 288 0 min 0,000 mm 1,3 UV-I 278 W/m 0,4 C 4,6 C 14,5 km/h (3 Bft) 95,83 %
24.04.2016 15:24 6,7 C 60 % 1009,2 hPa 0,0 l/m 8,1 km/h (2 Bft) W-SW 241 0 min 0,000 mm 1,3 UV-I 284 W/m -0,5 C 5,3 C 12,9 km/h (3 Bft) 95,65 %
24.04.2016 15:25 6,7 C 62 % 1009,2 hPa 0,0 l/m 7,4 km/h (2 Bft) SW 234 0 min 0,000 mm 1,3 UV-I 296 W/m -0,1 C 5,9 C 11,3 km/h (2 Bft) 95,83 %
24.04.2016 15:26 6,7 C 64 % 1009,2 hPa 0,0 l/m 8,0 km/h (2 Bft) W 275 0 min 0,000 mm 1,3 UV-I 297 W/m 0,4 C 5,4 C 14,5 km/h (3 Bft) 100,00 %
24.04.2016 15:27 6,7 C 61 % 1009,1 hPa 0,0 l/m 16,3 km/h (3 Bft) W-SW 252 0 min 0,000 mm 1,3 UV-I 297 W/m -0,3 C 0,5 C 25,7 km/h (4 Bft) 91,67 %
24.04.2016 15:28 6,7 C 59 % 1009,2 hPa 0,0 l/m 14,0 km/h (3 Bft) W 260 0 min 0,000 mm 1,3 UV-I 287 W/m -0,7 C 1,6 C 22,5 km/h (4 Bft) 100,00 %
24.04.2016 15:29 6,7 C 60 % 1009,2 hPa 0,0 l/m 19,4 km/h (3 Bft) W 263 0 min 0,000 mm 1,3 UV-I 284 W/m -0,5 C -0,7 C 24,1 km/h (4 Bft) 95,83 %
24.04.2016 15:30 6,7 C 61 % 1009,2 hPa 0,0 l/m 16,3 km/h (3 Bft) W 259 0 min 0,000 mm 1,3 UV-I 293 W/m -0,3 C 0,5 C 22,5 km/h (4 Bft) 100,00 %
24.04.2016 15:31 6,7 C 61 % 1009,2 hPa 0,0 l/m 13,7 km/h (3 Bft) W-SW 256 0 min 0,000 mm 1,4 UV-I 324 W/m -0,3 C 1,8 C 20,9 km/h (4 Bft) 86,96 %
24.04.2016 15:32 6,7 C 61 % 1009,2 hPa 0,0 l/m 16,7 km/h (3 Bft) W 274 0 min 0,000 mm 1,5 UV-I 343 W/m -0,3 C 0,4 C 22,5 km/h (4 Bft) 95,83 %
24.04.2016 15:33 6,7 C 62 % 1009,1 hPa 0,0 l/m 15,0 km/h (3 Bft) W-SW 249 0 min 0,000 mm 1,5 UV-I 339 W/m -0,1 C 1,1 C 20,9 km/h (4 Bft) 100,00 %
24.04.2016 15:34 6,6 C 61 % 1009,2 hPa 0,0 l/m 16,2 km/h (3 Bft) W-SW 256 0 min 0,000 mm 1,5 UV-I 335 W/m -0,4 C 0,5 C 24,1 km/h (4 Bft) 95,83 %
24.04.2016 15:35 6,7 C 60 % 1009,2 hPa 0,0 l/m 8,9 km/h (2 Bft) W 259 0 min 0,000 mm 1,5 UV-I 332 W/m -0,5 C 4,7 C 16,1 km/h (3 Bft) 100,00 %
24.04.2016 15:36 6,6 C 60 % 1009,2 hPa 0,0 l/m 17,8 km/h (3 Bft) W-SW 253 0 min 0,000 mm 1,5 UV-I 331 W/m -0,6 C -0,2 C 25,7 km/h (4 Bft) 96,30 %
24.04.2016 15:37 6,6 C 60 % 1009,2 hPa 0,0 l/m 22,8 km/h (4 Bft) W 262 0 min 0,000 mm 1,5 UV-I 328 W/m -0,6 C -2,1 C 32,2 km/h (5 Bft) 100,00 %
24.04.2016 15:38 6,5 C 61 % 1009,2 hPa 0,0 l/m 19,5 km/h (3 Bft) W-SW 238 0 min 0,000 mm 1,5 UV-I 327 W/m -0,5 C -1,0 C 27,4 km/h (4 Bft) 96,30 %
24.04.2016 15:39 6,4 C 61 % 1009,2 hPa 0,0 l/m 16,3 km/h (3 Bft) W-NW 288 0 min 0,000 mm 1,5 UV-I 337 W/m -0,6 C 0,2 C 24,1 km/h (4 Bft) 100,00 %
24.04.2016 15:40 6,3 C 62 % 1009,2 hPa 0,0 l/m 14,8 km/h (3 Bft) W-SW 242 0 min 0,000 mm 1,5 UV-I 349 W/m -0,4 C 0,7 C 19,3 km/h (3 Bft) 95,83 %
24.04.2016 15:41 6,3 C 62 % 1009,1 hPa 0,0 l/m 16,2 km/h (3 Bft) W-NW 291 0 min 0,000 mm 1,5 UV-I 363 W/m -0,4 C 0,1 C 20,9 km/h (4 Bft) 95,65 %
24.04.2016 15:42 6,3 C 63 % 1009,2 hPa 0,0 l/m 20,0 km/h (4 Bft) W-NW 290 1 min 0,000 mm 1,5 UV-I 368 W/m -0,2 C -1,5 C 30,6 km/h (5 Bft) 100,00 %
24.04.2016 15:43 6,3 C 63 % 1009,2 hPa 0,0 l/m 16,8 km/h (3 Bft) W-SW 256 0 min 0,000 mm 1,5 UV-I 352 W/m -0,2 C -0,2 C 20,9 km/h (4 Bft) 95,65 %
24.04.2016 15:44 6,2 C 64 % 1009,2 hPa 0,0 l/m 18,1 km/h (3 Bft) W 269 0 min 0,000 mm 1,4 UV-I 328 W/m -0,1 C -0,9 C 22,5 km/h (4 Bft) 100,00 %
24.04.2016 15:45 6,2 C 65 % 1009,2 hPa 0,0 l/m 18,1 km/h (3 Bft) SW 234 0 min 0,000 mm 1,4 UV-I 309 W/m 0,1 C -0,9 C 24,1 km/h (4 Bft) 100,00 %
24.04.2016 15:46 6,2 C 66 % 1009,2 hPa 0,0 l/m 15,2 km/h (3 Bft) W 265 0 min 0,000 mm 1,3 UV-I 294 W/m 0,3 C 0,4 C 19,3 km/h (3 Bft) 100,00 %
24.04.2016 15:47 6,2 C 67 % 1009,2 hPa 0,0 l/m 17,2 km/h (3 Bft) W 262 0 min 0,000 mm 1,3 UV-I 297 W/m 0,5 C -0,5 C 25,7 km/h (4 Bft) 100,00 %
24.04.2016 15:48 6,1 C 66 % 1009,2 hPa 0,0 l/m 14,1 km/h (3 Bft) W-SW 239 0 min 0,000 mm 1,3 UV-I 314 W/m 0,2 C 0,9 C 20,9 km/h (4 Bft) 100,00 %
24.04.2016 15:49 6,0 C 66 % 1009,1 hPa 0,0 l/m 13,1 km/h (3 Bft) W-SW 246 0 min 0,000 mm 1,4 UV-I 333 W/m 0,1 C 1,3 C 17,7 km/h (3 Bft) 95,65 %
24.04.2016 15:50 5,9 C 66 % 1009,1 hPa 0,0 l/m 14,6 km/h (3 Bft) W-SW 244 0 min 0,000 mm 1,4 UV-I 346 W/m 0,0 C 0,4 C 19,3 km/h (3 Bft) 100,00 %
24.04.2016 15:51 5,9 C 66 % 1009,1 hPa 0,0 l/m 12,8 km/h (3 Bft) W 271 1 min 0,000 mm 1,4 UV-I 368 W/m 0,0 C 1,3 C 17,7 km/h (3 Bft) 100,00 %
24.04.2016 15:52 5,9 C 68 % 1009,1 hPa 0,0 l/m 11,1 km/h (2 Bft) W 264 1 min 0,000 mm 1,5 UV-I 376 W/m 0,5 C 2,3 C 17,7 km/h (3 Bft) 95,65 %
24.04.2016 15:53 6,1 C 67 % 1009,1 hPa 0,0 l/m 11,4 km/h (2 Bft) W-SW 255 1 min 0,000 mm 1,7 UV-I 376 W/m 0,4 C 2,4 C 17,7 km/h (3 Bft) 100,00 %
24.04.2016 15:54 6,1 C 69 % 1009,1 hPa 0,0 l/m 12,5 km/h (3 Bft) W-SW 248 1 min 0,000 mm 1,5 UV-I 375 W/m 0,8 C 1,7 C 17,7 km/h (3 Bft) 100,00 %
24.04.2016 15:55 6,2 C 66 % 1009,1 hPa 0,0 l/m 15,5 km/h (3 Bft) W-SW 240 1 min 0,000 mm 1,5 UV-I 367 W/m 0,3 C 0,3 C 20,9 km/h (4 Bft) 100,00 %
24.04.2016 15:56 6,2 C 66 % 1009,1 hPa 0,0 l/m 14,8 km/h (3 Bft) SW 223 0 min 0,000 mm 1,4 UV-I 345 W/m 0,3 C 0,6 C 22,5 km/h (4 Bft) 100,00 %
24.04.2016 15:57 6,2 C 65 % 1009,1 hPa 0,0 l/m 19,4 km/h (3 Bft) W-SW 248 1 min 0,000 mm 1,5 UV-I 356 W/m 0,1 C -1,4 C 25,7 km/h (4 Bft) 95,83 %
24.04.2016 15:58 6,2 C 64 % 1009,1 hPa 0,0 l/m 16,4 km/h (3 Bft) W-SW 245 1 min 0,000 mm 1,5 UV-I 402 W/m -0,1 C -0,1 C 22,5 km/h (4 Bft) 100,00 %
24.04.2016 15:59 6,2 C 65 % 1009,1 hPa 0,0 l/m 17,6 km/h (3 Bft) W-SW 245 1 min 0,000 mm 1,6 UV-I 444 W/m 0,1 C -0,7 C 22,5 km/h (4 Bft) 100,00 %
24.04.2016 16:00 6,2 C 65 % 1009,1 hPa 0,0 l/m 14,5 km/h (3 Bft) W 269 1 min 0,178 mm 1,6 UV-I 448 W/m 0,1 C 0,8 C 17,7 km/h (3 Bft) 100,00 %
24.04.2016 16:02 6,3 C 67 % 1009,0 hPa 0,0 l/m 11,5 km/h (2 Bft) W-SW 242 2 min 0,000 mm 1,6 UV-I 420 W/m 0,6 C 2,6 C 22,5 km/h (4 Bft) 100,00 %
24.04.2016 16:03 6,4 C 66 % 1009,0 hPa 0,0 l/m 9,2 km/h (2 Bft) W-SW 238 1 min 0,000 mm 1,5 UV-I 386 W/m 0,5 C 4,2 C 17,7 km/h (3 Bft) 100,00 %
24.04.2016 16:04 6,4 C 65 % 1009,0 hPa 0,0 l/m 12,7 km/h (3 Bft) SW 225 1 min 0,000 mm 1,5 UV-I 408 W/m 0,3 C 2,0 C 20,9 km/h (4 Bft) 100,00 %
24.04.2016 16:05 6,4 C 64 % 1009,0 hPa 0,0 l/m 13,9 km/h (3 Bft) W 275 1 min 0,000 mm 1,6 UV-I 457 W/m 0,1 C 1,3 C 17,7 km/h (3 Bft) 100,00 %
24.04.2016 16:06 6,6 C 65 % 1009,0 hPa 0,0 l/m 12,0 km/h (2 Bft) W-SW 243 1 min 0,000 mm 1,7 UV-I 503 W/m 0,5 C 2,6 C 14,5 km/h (3 Bft) 100,00 %
24.04.2016 16:07 6,7 C 66 % 1009,0 hPa 0,0 l/m 10,5 km/h (2 Bft) W-SW 255 1 min 0,000 mm 1,7 UV-I 514 W/m 0,8 C 3,6 C 14,5 km/h (3 Bft) 100,00 %
24.04.2016 16:08 6,8 C 66 % 1009,0 hPa 0,0 l/m 12,3 km/h (3 Bft) SW 216 1 min 0,000 mm 1,6 UV-I 462 W/m 0,9 C 2,7 C 14,5 km/h (3 Bft) 100,00 %
24.04.2016 16:09 6,9 C 64 % 1009,0 hPa 0,0 l/m 14,9 km/h (3 Bft) S-SW 198 1 min 0,000 mm 1,5 UV-I 392 W/m 0,6 C 1,4 C 25,7 km/h (4 Bft) 100,00 %
24.04.2016 16:10 6,8 C 64 % 1008,9 hPa 0,0 l/m 15,4 km/h (3 Bft) W-SW 248 1 min 0,000 mm 1,4 UV-I 362 W/m 0,5 C 1,1 C 19,3 km/h (3 Bft) 100,00 %
24.04.2016 16:11 6,8 C 64 % 1008,9 hPa 0,0 l/m 14,3 km/h (3 Bft) SW 227 1 min 0,000 mm 0,9 UV-I 454 W/m 0,5 C 1,6 C 20,9 km/h (4 Bft) 100,00 %
24.04.2016 16:12 6,7 C 62 % 1008,9 hPa 0,0 l/m 15,8 km/h (3 Bft) W-SW 239 1 min 0,000 mm 1,6 UV-I 483 W/m -0,1 C 0,8 C 20,9 km/h (4 Bft) 100,00 %
24.04.2016 16:13 6,7 C 63 % 1008,9 hPa 0,0 l/m 16,4 km/h (3 Bft) W-SW 252 1 min 0,000 mm 1,4 UV-I 379 W/m 0,2 C 0,5 C 20,9 km/h (4 Bft) 100,00 %
24.04.2016 16:14 6,7 C 62 % 1008,9 hPa 0,0 l/m 15,2 km/h (3 Bft) W-SW 248 1 min 0,000 mm 1,4 UV-I 342 W/m -0,1 C 1,0 C 20,9 km/h (4 Bft) 100,00 %
24.04.2016 16:15 6,6 C 64 % 1008,9 hPa 0,0 l/m 13,3 km/h (3 Bft) W 275 0 min 0,000 mm 1,3 UV-I 309 W/m 0,3 C 1,9 C 17,7 km/h (3 Bft) 95,65 %
24.04.2016 16:16 6,6 C 65 % 1008,9 hPa 0,0 l/m 7,3 km/h (2 Bft) SW 228 1 min 0,000 mm 1,4 UV-I 329 W/m 0,5 C 5,8 C 14,5 km/h (3 Bft) 100,00 %
24.04.2016 16:17 6,6 C 64 % 1008,9 hPa 0,0 l/m 10,9 km/h (2 Bft) W 260 1 min 0,000 mm 1,4 UV-I 395 W/m 0,3 C 3,3 C 16,1 km/h (3 Bft) 95,65 %
24.04.2016 16:18 6,7 C 66 % 1008,9 hPa 0,0 l/m 9,8 km/h (2 Bft) SW 229 1 min 0,000 mm 1,4 UV-I 396 W/m 0,8 C 4,1 C 14,5 km/h (3 Bft) 100,00 %
24.04.2016 16:19 6,7 C 65 % 1008,9 hPa 0,0 l/m 11,8 km/h (2 Bft) W-SW 254 1 min 0,000 mm 1,4 UV-I 379 W/m 0,6 C 2,8 C 19,3 km/h (3 Bft) 100,00 %
24.04.2016 16:20 6,8 C 65 % 1008,9 hPa 0,0 l/m 12,1 km/h (2 Bft) W-NW 300 1 min 0,000 mm 1,4 UV-I 359 W/m 0,7 C 2,8 C 22,5 km/h (4 Bft) 100,00 %
24.04.2016 16:21 6,8 C 65 % 1009,0 hPa 0,0 l/m 13,7 km/h (3 Bft) SW 235 1 min 0,000 mm 1,3 UV-I 346 W/m 0,7 C 1,9 C 20,9 km/h (4 Bft) 100,00 %
24.04.2016 16:22 6,8 C 65 % 1008,9 hPa 0,0 l/m 8,8 km/h (2 Bft) SW 236 1 min 0,000 mm 1,4 UV-I 374 W/m 0,7 C 4,9 C 17,7 km/h (3 Bft) 100,00 %
24.04.2016 16:23 6,8 C 64 % 1008,9 hPa 0,0 l/m 7,5 km/h (2 Bft) W 261 1 min 0,000 mm 1,3 UV-I 352 W/m 0,5 C 5,9 C 11,3 km/h (2 Bft) 100,00 %
24.04.2016 16:24 6,8 C 66 % 1008,9 hPa 0,0 l/m 10,3 km/h (2 Bft) W-SW 241 1 min 0,000 mm 1,3 UV-I 363 W/m 0,9 C 3,9 C 14,5 km/h (3 Bft) 100,00 %
24.04.2016 16:25 6,9 C 63 % 1008,9 hPa 0,0 l/m 12,9 km/h (3 Bft) W-SW 257 1 min 0,000 mm 1,3 UV-I 374 W/m 0,4 C 2,4 C 16,1 km/h (3 Bft) 95,83 %
24.04.2016 16:26 6,9 C 64 % 1008,9 hPa 0,0 l/m 13,8 km/h (3 Bft) SW 223 1 min 0,000 mm 1,4 UV-I 389 W/m 0,6 C 2,0 C 19,3 km/h (3 Bft) 100,00 %
24.04.2016 16:27 6,9 C 64 % 1008,9 hPa 0,0 l/m 16,4 km/h (3 Bft) W-SW 244 1 min 0,000 mm 1,4 UV-I 413 W/m 0,6 C 0,7 C 20,9 km/h (4 Bft) 100,00 %
24.04.2016 16:28 7,0 C 64 % 1008,9 hPa 0,0 l/m 12,2 km/h (2 Bft) W-SW 256 1 min 0,000 mm 1,4 UV-I 462 W/m 0,7 C 2,9 C 16,1 km/h (3 Bft) 100,00 %
24.04.2016 16:29 7,1 C 65 % 1008,8 hPa 0,0 l/m 14,9 km/h (3 Bft) SW 226 1 min 0,000 mm 1,5 UV-I 438 W/m 1,0 C 1,7 C 19,3 km/h (3 Bft) 100,00 %
24.04.2016 16:30 7,2 C 63 % 1008,8 hPa 0,0 l/m 13,2 km/h (3 Bft) SW 235 1 min 0,000 mm 1,4 UV-I 390 W/m 0,6 C 2,6 C 22,5 km/h (4 Bft) 100,00 %
24.04.2016 16:31 7,2 C 63 % 1008,8 hPa 0,0 l/m 8,5 km/h (2 Bft) W 268 1 min 0,000 mm 1,4 UV-I 439 W/m 0,6 C 5,5 C 16,1 km/h (3 Bft) 100,00 %
24.04.2016 16:32 7,1 C 63 % 1008,8 hPa 0,0 l/m 8,5 km/h (2 Bft) SW 227 1 min 0,000 mm 1,4 UV-I 425 W/m 0,5 C 5,4 C 19,3 km/h (3 Bft) 95,65 %
24.04.2016 16:33 7,1 C 63 % 1008,8 hPa 0,0 l/m 12,2 km/h (2 Bft) W 261 1 min 0,000 mm 1,2 UV-I 327 W/m 0,5 C 3,1 C 17,7 km/h (3 Bft) 100,00 %
24.04.2016 16:34 7,1 C 63 % 1008,8 hPa 0,0 l/m 11,8 km/h (2 Bft) W-SW 251 0 min 0,000 mm 1,1 UV-I 296 W/m 0,5 C 3,3 C 19,3 km/h (3 Bft) 100,00 %
24.04.2016 16:35 7,0 C 62 % 1008,8 hPa 0,0 l/m 13,7 km/h (3 Bft) W-NW 286 1 min 0,000 mm 1,3 UV-I 362 W/m 0,2 C 2,1 C 19,3 km/h (3 Bft) 96,30 %
24.04.2016 16:36 7,1 C 66 % 1008,8 hPa 0,0 l/m 11,3 km/h (2 Bft) S 186 1 min 0,000 mm 1,2 UV-I 357 W/m 1,2 C 3,6 C 16,1 km/h (3 Bft) 100,00 %
24.04.2016 16:37 7,1 C 64 % 1008,8 hPa 0,0 l/m 13,5 km/h (3 Bft) W-SW 251 1 min 0,000 mm 1,3 UV-I 348 W/m 0,8 C 2,4 C 20,9 km/h (4 Bft) 95,83 %
24.04.2016 16:38 7,1 C 64 % 1008,8 hPa 0,0 l/m 16,4 km/h (3 Bft) W-SW 255 1 min 0,000 mm 1,4 UV-I 490 W/m 0,8 C 1,0 C 22,5 km/h (4 Bft) 100,00 %
24.04.2016 16:39 7,1 C 64 % 1008,8 hPa 0,0 l/m 12,5 km/h (3 Bft) W 267 1 min 0,000 mm 1,2 UV-I 427 W/m 0,8 C 2,9 C 17,7 km/h (3 Bft) 100,00 %
24.04.2016 16:40 7,1 C 65 % 1008,8 hPa 0,0 l/m 11,8 km/h (2 Bft) SW 219 1 min 0,000 mm 1,1 UV-I 378 W/m 1,0 C 3,3 C 17,7 km/h (3 Bft) 95,65 %
24.04.2016 16:41 7,1 C 65 % 1008,8 hPa 0,0 l/m 14,1 km/h (3 Bft) SW 221 1 min 0,000 mm 1,1 UV-I 305 W/m 1,0 C 2,1 C 20,9 km/h (4 Bft) 100,00 %
24.04.2016 16:42 7,0 C 65 % 1008,9 hPa 0,0 l/m 14,9 km/h (3 Bft) SW 226 1 min 0,000 mm 1,1 UV-I 304 W/m 0,9 C 1,5 C 19,3 km/h (3 Bft) 100,00 %
24.04.2016 16:43 6,9 C 64 % 1008,8 hPa 0,0 l/m 14,6 km/h (3 Bft) W 265 0 min 0,000 mm 1,1 UV-I 289 W/m 0,6 C 1,6 C 22,5 km/h (4 Bft) 100,00 %
24.04.2016 16:44 6,9 C 65 % 1008,9 hPa 0,0 l/m 11,8 km/h (2 Bft) W-SW 240 0 min 0,000 mm 1,1 UV-I 287 W/m 0,8 C 3,1 C 14,5 km/h (3 Bft) 100,00 %
24.04.2016 16:45 6,9 C 64 % 1008,8 hPa 0,0 l/m 11,4 km/h (2 Bft) W-SW 255 1 min 0,000 mm 1,3 UV-I 318 W/m 0,6 C 3,3 C 14,5 km/h (3 Bft) 96,15 %
24.04.2016 16:46 6,9 C 65 % 1008,8 hPa 0,0 l/m 11,5 km/h (2 Bft) SW 236 1 min 0,000 mm 1,0 UV-I 411 W/m 0,8 C 3,2 C 16,1 km/h (3 Bft) 95,65 %
24.04.2016 16:47 6,9 C 66 % 1008,9 hPa 0,0 l/m 10,3 km/h (2 Bft) W-SW 246 1 min 0,000 mm 0,9 UV-I 309 W/m 1,0 C 4,0 C 16,1 km/h (3 Bft) 95,83 %
24.04.2016 16:48 6,8 C 64 % 1008,8 hPa 0,0 l/m 11,7 km/h (2 Bft) W-SW 258 0 min 0,000 mm 0,8 UV-I 210 W/m 0,5 C 3,0 C 17,7 km/h (3 Bft) 100,00 %
24.04.2016 16:49 6,8 C 66 % 1008,9 hPa 0,0 l/m 8,3 km/h (2 Bft) W 279 0 min 0,000 mm 0,8 UV-I 192 W/m 0,9 C 5,3 C 12,9 km/h (3 Bft) 100,00 %
24.04.2016 16:50 6,8 C 67 % 1008,9 hPa 0,0 l/m 9,6 km/h (2 Bft) SW 232 0 min 0,000 mm 0,7 UV-I 183 W/m 1,1 C 4,3 C 14,5 km/h (3 Bft) 100,00 %
24.04.2016 16:51 6,8 C 65 % 1008,9 hPa 0,0 l/m 8,4 km/h (2 Bft) W-SW 249 0 min 0,000 mm 0,7 UV-I 176 W/m 0,7 C 5,2 C 11,3 km/h (2 Bft) 95,65 %
24.04.2016 16:52 6,8 C 65 % 1008,8 hPa 0,0 l/m 8,7 km/h (2 Bft) W-SW 242 0 min 0,000 mm 0,7 UV-I 170 W/m 0,7 C 5,0 C 16,1 km/h (3 Bft) 100,00 %
24.04.2016 16:53 6,8 C 68 % 1008,9 hPa 0,0 l/m 13,9 km/h (3 Bft) W-SW 237 0 min 0,000 mm 0,6 UV-I 166 W/m 1,3 C 1,8 C 17,7 km/h (3 Bft) 100,00 %
24.04.2016 16:54 6,7 C 70 % 1008,8 hPa 0,0 l/m 13,1 km/h (3 Bft) S-SW 206 0 min 0,000 mm 0,6 UV-I 163 W/m 1,6 C 2,1 C 20,9 km/h (4 Bft) 100,00 %
24.04.2016 16:55 6,7 C 71 % 1008,9 hPa 0,0 l/m 16,8 km/h (3 Bft) S-SW 195 0 min 0,000 mm 0,5 UV-I 154 W/m 1,8 C 0,3 C 22,5 km/h (4 Bft) 100,00 %
24.04.2016 16:56 6,6 C 71 % 1008,8 hPa 0,0 l/m 17,8 km/h (3 Bft) S 190 0 min 0,000 mm 0,5 UV-I 143 W/m 1,7 C -0,2 C 22,5 km/h (4 Bft) 100,00 %
24.04.2016 16:57 6,4 C 71 % 1008,8 hPa 0,0 l/m 16,5 km/h (3 Bft) S 175 0 min 0,000 mm 0,5 UV-I 135 W/m 1,5 C 0,1 C 25,7 km/h (4 Bft) 100,00 %
24.04.2016 16:58 6,3 C 73 % 1008,8 hPa 0,0 l/m 12,1 km/h (2 Bft) S 188 0 min 0,000 mm 0,4 UV-I 128 W/m 1,8 C 2,2 C 17,7 km/h (3 Bft) 100,00 %
24.04.2016 16:59 6,3 C 75 % 1008,8 hPa 0,0 l/m 10,5 km/h (2 Bft) S 169 0 min 0,000 mm 0,0 UV-I 123 W/m 2,2 C 3,2 C 17,7 km/h (3 Bft) 100,00 %
24.04.2016 17:00 6,3 C 75 % 1008,8 hPa 0,0 l/m 7,6 km/h (2 Bft) S-SW 202 0 min 0,177 mm 0,0 UV-I 121 W/m 2,2 C 5,3 C 11,3 km/h (2 Bft) 91,67 %
24.04.2016 17:02 6,3 C 74 % 1008,8 hPa 0,0 l/m 10,2 km/h (2 Bft) S-SW 205 0 min 0,000 mm 0,0 UV-I 120 W/m 2,0 C 3,4 C 17,7 km/h (3 Bft) 95,74 %
24.04.2016 17:03 6,3 C 75 % 1008,8 hPa 0,0 l/m 14,7 km/h (3 Bft) SW 222 0 min 0,000 mm 0,6 UV-I 235 W/m 2,2 C 0,8 C 19,3 km/h (3 Bft) 100,00 %
24.04.2016 17:04 6,4 C 74 % 1008,8 hPa 0,0 l/m 14,9 km/h (3 Bft) S-SW 196 1 min 0,000 mm 0,5 UV-I 515 W/m 2,1 C 0,8 C 19,3 km/h (3 Bft) 91,67 %
24.04.2016 17:05 6,4 C 73 % 1008,8 hPa 0,0 l/m 15,9 km/h (3 Bft) SW 233 1 min 0,000 mm 0,0 UV-I 303 W/m 1,9 C 0,3 C 22,5 km/h (4 Bft) 100,00 %
24.04.2016 17:06 6,4 C 74 % 1008,8 hPa 0,0 l/m 12,2 km/h (2 Bft) S-SW 205 0 min 0,000 mm 0,0 UV-I 128 W/m 2,1 C 2,3 C 22,5 km/h (4 Bft) 96,15 %
24.04.2016 17:07 6,3 C 73 % 1008,8 hPa 0,0 l/m 12,6 km/h (3 Bft) SO 142 0 min 0,000 mm 0,0 UV-I 128 W/m 1,8 C 1,9 C 22,5 km/h (4 Bft) 100,00 %
24.04.2016 17:08 6,3 C 73 % 1008,8 hPa 0,0 l/m 13,5 km/h (3 Bft) W-SW 238 0 min 0,000 mm 0,0 UV-I 123 W/m 1,8 C 1,4 C 22,5 km/h (4 Bft) 95,65 %
24.04.2016 17:09 6,2 C 73 % 1008,8 hPa 0,0 l/m 11,3 km/h (2 Bft) SW 230 0 min 0,000 mm 0,0 UV-I 122 W/m 1,7 C 2,6 C 20,9 km/h (4 Bft) 95,83 %
24.04.2016 17:10 6,1 C 72 % 1008,8 hPa 0,0 l/m 13,5 km/h (3 Bft) W-SW 240 0 min 0,000 mm 0,0 UV-I 130 W/m 1,4 C 1,2 C 20,9 km/h (4 Bft) 100,00 %
24.04.2016 17:11 6,1 C 74 % 1008,9 hPa 0,0 l/m 8,3 km/h (2 Bft) SW 218 0 min 0,000 mm 0,0 UV-I 162 W/m 1,8 C 4,5 C 12,9 km/h (3 Bft) 95,83 %
24.04.2016 17:12 6,0 C 73 % 1008,9 hPa 0,0 l/m 11,6 km/h (2 Bft) S 181 0 min 0,000 mm 0,3 UV-I 200 W/m 1,5 C 2,1 C 17,7 km/h (3 Bft) 95,65 %
24.04.2016 17:13 6,0 C 74 % 1008,9 hPa 0,0 l/m 15,2 km/h (3 Bft) W-SW 253 0 min 0,000 mm 0,5 UV-I 164 W/m 1,7 C 0,2 C 22,5 km/h (4 Bft) 95,83 %
24.04.2016 17:14 6,0 C 74 % 1008,9 hPa 0,0 l/m 9,7 km/h (2 Bft) S 173 0 min 0,000 mm 0,5 UV-I 165 W/m 1,7 C 3,4 C 16,1 km/h (3 Bft) 100,00 %
24.04.2016 17:15 6,1 C 75 % 1008,8 hPa 0,0 l/m 11,3 km/h (2 Bft) SW 229 0 min 0,000 mm 0,6 UV-I 171 W/m 2,0 C 2,4 C 17,7 km/h (3 Bft) 95,83 %
24.04.2016 17:16 6,1 C 74 % 1008,8 hPa 0,0 l/m 17,2 km/h (3 Bft) S-SW 212 0 min 0,000 mm 0,7 UV-I 171 W/m 1,8 C -0,6 C 33,8 km/h (5 Bft) 95,65 %
24.04.2016 17:17 6,1 C 73 % 1008,8 hPa 0,0 l/m 20,9 km/h (4 Bft) S 190 0 min 0,000 mm 0,7 UV-I 171 W/m 1,6 C -2,1 C 30,6 km/h (5 Bft) 95,83 %
24.04.2016 17:18 6,1 C 73 % 1008,8 hPa 0,0 l/m 19,6 km/h (3 Bft) S-SW 192 0 min 0,000 mm 0,8 UV-I 171 W/m 1,6 C -1,6 C 30,6 km/h (5 Bft) 91,30 %
24.04.2016 17:19 6,2 C 73 % 1008,9 hPa 0,0 l/m 19,5 km/h (3 Bft) SW 217 1 min 0,000 mm 0,8 UV-I 454 W/m 1,7 C -1,4 C 27,4 km/h (4 Bft) 100,00 %
24.04.2016 17:20 6,3 C 74 % 1008,9 hPa 0,0 l/m 17,7 km/h (3 Bft) S 186 1 min 0,000 mm 0,8 UV-I 490 W/m 2,0 C -0,6 C 24,1 km/h (4 Bft) 96,15 %
24.04.2016 17:21 6,3 C 73 % 1008,9 hPa 0,0 l/m 14,4 km/h (3 Bft) S 182 1 min 0,000 mm 0,9 UV-I 485 W/m 1,8 C 0,9 C 19,3 km/h (3 Bft) 100,00 %
24.04.2016 17:22 6,4 C 73 % 1009,0 hPa 0,0 l/m 17,2 km/h (3 Bft) SW 217 1 min 0,000 mm 0,9 UV-I 485 W/m 1,9 C -0,2 C 22,5 km/h (4 Bft) 95,65 %
24.04.2016 17:23 6,5 C 71 % 1008,9 hPa 0,0 l/m 17,5 km/h (3 Bft) S 190 1 min 0,000 mm 0,8 UV-I 306 W/m 1,6 C -0,2 C 24,1 km/h (4 Bft) 100,00 %
24.04.2016 17:24 6,4 C 72 % 1008,9 hPa 0,0 l/m 19,0 km/h (3 Bft) S-SW 194 0 min 0,000 mm 0,7 UV-I 170 W/m 1,7 C -1,0 C 24,1 km/h (4 Bft) 95,65 %
24.04.2016 17:25 6,3 C 71 % 1008,9 hPa 0,0 l/m 13,7 km/h (3 Bft) S-SW 207 0 min 0,000 mm 0,7 UV-I 146 W/m 1,4 C 1,3 C 25,7 km/h (4 Bft) 95,83 %
24.04.2016 17:26 6,3 C 72 % 1008,9 hPa 0,0 l/m 10,1 km/h (2 Bft) S-SW 192 0 min 0,000 mm 0,6 UV-I 132 W/m 1,6 C 3,4 C 14,5 km/h (3 Bft) 100,00 %
24.04.2016 17:27 6,2 C 72 % 1008,9 hPa 0,0 l/m 7,6 km/h (2 Bft) S-SW 194 0 min 0,000 mm 0,6 UV-I 122 W/m 1,5 C 5,2 C 14,5 km/h (3 Bft) 95,83 %
24.04.2016 17:28 6,1 C 73 % 1008,9 hPa 0,0 l/m 14,4 km/h (3 Bft) S-SW 194 0 min 0,000 mm 0,6 UV-I 130 W/m 1,6 C 0,7 C 20,9 km/h (4 Bft) 100,00 %
24.04.2016 17:29 5,9 C 73 % 1008,9 hPa 0,0 l/m 19,6 km/h (3 Bft) S 173 0 min 0,000 mm 0,5 UV-I 188 W/m 1,4 C -1,9 C 25,7 km/h (4 Bft) 91,30 %
24.04.2016 17:30 5,9 C 74 % 1008,9 hPa 0,0 l/m 14,5 km/h (3 Bft) S 190 0 min 0,000 mm 0,5 UV-I 185 W/m 1,6 C 0,4 C 20,9 km/h (4 Bft) 100,00 %
24.04.2016 17:31 5,8 C 74 % 1008,9 hPa 0,0 l/m 11,9 km/h (2 Bft) S 182 0 min 0,000 mm 0,6 UV-I 214 W/m 1,5 C 1,7 C 19,3 km/h (3 Bft) 95,65 %
24.04.2016 17:32 5,8 C 74 % 1008,8 hPa 0,0 l/m 15,4 km/h (3 Bft) SW 216 1 min 0,000 mm 0,6 UV-I 262 W/m 1,5 C -0,2 C 24,1 km/h (4 Bft) 100,00 %
24.04.2016 17:33 5,9 C 74 % 1008,9 hPa 0,0 l/m 15,1 km/h (3 Bft) S-SW 196 1 min 0,000 mm 0,7 UV-I 336 W/m 1,6 C 0,1 C 25,7 km/h (4 Bft) 100,00 %
24.04.2016 17:34 6,1 C 73 % 1008,8 hPa 0,0 l/m 18,4 km/h (3 Bft) S-SW 200 1 min 0,000 mm 0,7 UV-I 336 W/m 1,6 C -1,1 C 24,1 km/h (4 Bft) 100,00 %
24.04.2016 17:35 6,1 C 74 % 1008,8 hPa 0,0 l/m 16,8 km/h (3 Bft) S 186 1 min 0,000 mm 0,6 UV-I 274 W/m 1,8 C -0,4 C 22,5 km/h (4 Bft) 100,00 %
24.04.2016 17:36 6,1 C 73 % 1008,8 hPa 0,0 l/m 20,5 km/h (4 Bft) S 179 0 min 0,000 mm 0,7 UV-I 218 W/m 1,6 C -1,9 C 32,2 km/h (5 Bft) 100,00 %
24.04.2016 17:37 6,2 C 73 % 1008,8 hPa 0,0 l/m 16,7 km/h (3 Bft) W-SW 237 1 min 0,000 mm 0,6 UV-I 248 W/m 1,7 C -0,3 C 25,7 km/h (4 Bft) 91,30 %
24.04.2016 17:38 6,2 C 73 % 1008,8 hPa 0,0 l/m 19,3 km/h (3 Bft) S 185 1 min 0,000 mm 0,6 UV-I 493 W/m 1,7 C -1,4 C 27,4 km/h (4 Bft) 100,00 %
24.04.2016 17:39 6,3 C 72 % 1008,8 hPa 0,0 l/m 16,8 km/h (3 Bft) S-SW 207 1 min 0,000 mm 0,7 UV-I 494 W/m 1,6 C -0,2 C 22,5 km/h (4 Bft) 100,00 %
24.04.2016 17:40 6,3 C 73 % 1008,8 hPa 0,0 l/m 22,5 km/h (4 Bft) S 170 1 min 0,000 mm 0,6 UV-I 343 W/m 1,8 C -2,4 C 32,2 km/h (5 Bft) 95,83 %
24.04.2016 17:41 6,3 C 74 % 1008,8 hPa 0,0 l/m 14,6 km/h (3 Bft) SW 229 0 min 0,000 mm 0,7 UV-I 192 W/m 2,0 C 0,8 C 22,5 km/h (4 Bft) 96,15 %
24.04.2016 17:42 6,3 C 74 % 1008,8 hPa 0,0 l/m 13,2 km/h (3 Bft) S 175 1 min 0,000 mm 0,6 UV-I 427 W/m 2,0 C 1,6 C 20,9 km/h (4 Bft) 100,00 %
24.04.2016 17:43 6,4 C 73 % 1008,8 hPa 0,0 l/m 18,5 km/h (3 Bft) S-SO 152 1 min 0,000 mm 0,6 UV-I 448 W/m 1,9 C -0,8 C 27,4 km/h (4 Bft) 95,65 %
24.04.2016 17:44 6,4 C 74 % 1008,8 hPa 0,0 l/m 21,9 km/h (4 Bft) S-SO 160 1 min 0,000 mm 0,6 UV-I 442 W/m 2,1 C -2,0 C 27,4 km/h (4 Bft) 100,00 %
24.04.2016 17:45 6,3 C 72 % 1008,8 hPa 0,0 l/m 12,0 km/h (2 Bft) S-SW 204 1 min 0,000 mm 0,6 UV-I 436 W/m 1,6 C 2,3 C 17,7 km/h (3 Bft) 100,00 %
24.04.2016 17:46 6,3 C 75 % 1008,8 hPa 0,0 l/m 11,5 km/h (2 Bft) S-SW 198 1 min 0,000 mm 0,5 UV-I 255 W/m 2,2 C 2,6 C 17,7 km/h (3 Bft) 100,00 %
24.04.2016 17:47 6,3 C 74 % 1008,8 hPa 0,0 l/m 18,6 km/h (3 Bft) S-SW 192 0 min 0,000 mm 0,5 UV-I 125 W/m 2,0 C -0,9 C 22,5 km/h (4 Bft) 100,00 %
24.04.2016 17:48 6,2 C 74 % 1008,8 hPa 0,0 l/m 17,0 km/h (3 Bft) SW 220 0 min 0,000 mm 0,5 UV-I 128 W/m 1,9 C -0,4 C 24,1 km/h (4 Bft) 100,00 %
24.04.2016 17:49 6,1 C 74 % 1008,8 hPa 0,0 l/m 15,9 km/h (3 Bft) SW 215 0 min 0,000 mm 0,5 UV-I 126 W/m 1,8 C -0,0 C 20,9 km/h (4 Bft) 100,00 %
24.04.2016 17:50 6,0 C 75 % 1008,9 hPa 0,0 l/m 12,7 km/h (3 Bft) S-SW 205 0 min 0,000 mm 0,4 UV-I 115 W/m 1,9 C 1,5 C 22,5 km/h (4 Bft) 100,00 %
24.04.2016 17:51 5,8 C 75 % 1008,8 hPa 0,0 l/m 19,4 km/h (3 Bft) S 182 0 min 0,000 mm 0,0 UV-I 96 W/m 1,7 C -1,9 C 24,1 km/h (4 Bft) 100,00 %
24.04.2016 17:52 5,8 C 75 % 1008,9 hPa 0,0 l/m 16,5 km/h (3 Bft) SW 221 0 min 0,000 mm 0,0 UV-I 81 W/m 1,7 C -0,7 C 22,5 km/h (4 Bft) 100,00 %
24.04.2016 17:53 5,7 C 75 % 1008,9 hPa 0,0 l/m 11,7 km/h (2 Bft) S-SW 203 0 min 0,000 mm 0,0 UV-I 71 W/m 1,6 C 1,7 C 19,3 km/h (3 Bft) 100,00 %
24.04.2016 17:54 5,6 C 75 % 1008,8 hPa 0,0 l/m 13,9 km/h (3 Bft) W-SW 254 0 min 0,000 mm 0,0 UV-I 67 W/m 1,5 C 0,4 C 17,7 km/h (3 Bft) 100,00 %
24.04.2016 17:55 5,6 C 74 % 1008,9 hPa 0,0 l/m 11,5 km/h (2 Bft) SW 231 0 min 0,000 mm 0,0 UV-I 65 W/m 1,3 C 1,8 C 20,9 km/h (4 Bft) 100,00 %
24.04.2016 17:56 5,5 C 75 % 1008,9 hPa 0,0 l/m 11,3 km/h (2 Bft) S-SW 193 0 min 0,000 mm 0,0 UV-I 65 W/m 1,4 C 1,8 C 17,7 km/h (3 Bft) 100,00 %
24.04.2016 17:57 5,4 C 75 % 1008,8 hPa 0,0 l/m 11,5 km/h (2 Bft) S-SW 203 0 min 0,000 mm 0,0 UV-I 64 W/m 1,3 C 1,5 C 19,3 km/h (3 Bft) 95,83 %
24.04.2016 17:58 5,4 C 76 % 1008,9 hPa 0,0 l/m 12,7 km/h (3 Bft) S 174 0 min 0,000 mm 0,0 UV-I 66 W/m 1,5 C 0,8 C 24,1 km/h (4 Bft) 100,00 %
24.04.2016 17:59 5,3 C 76 % 1008,8 hPa 0,0 l/m 9,9 km/h (2 Bft) S-SO 157 0 min 0,000 mm 0,0 UV-I 73 W/m 1,4 C 2,5 C 16,1 km/h (3 Bft) 100,00 %
24.04.2016 18:00 5,3 C 76 % 1008,8 hPa 0,0 l/m 14,4 km/h (3 Bft) S-SW 201 0 min 0,127 mm 0,0 UV-I 84 W/m 1,4 C -0,3 C 19,3 km/h (3 Bft) 96,30 %
24.04.2016 18:02 5,3 C 76 % 1008,9 hPa 0,0 l/m 14,1 km/h (3 Bft) W-SW 240 0 min 0,000 mm 0,0 UV-I 94 W/m 1,4 C -0,1 C 25,7 km/h (4 Bft) 97,83 %
24.04.2016 18:03 5,3 C 76 % 1008,9 hPa 0,0 l/m 21,5 km/h (4 Bft) W 259 0 min 0,000 mm 0,0 UV-I 86 W/m 1,4 C -3,4 C 30,6 km/h (5 Bft) 100,00 %
24.04.2016 18:04 5,3 C 75 % 1008,9 hPa 0,0 l/m 16,4 km/h (3 Bft) W 274 0 min 0,000 mm 0,0 UV-I 80 W/m 1,2 C -1,2 C 24,1 km/h (4 Bft) 100,00 %
24.04.2016 18:05 5,3 C 75 % 1008,9 hPa 0,0 l/m 20,4 km/h (4 Bft) SW 231 0 min 0,000 mm 0,0 UV-I 87 W/m 1,2 C -2,9 C 27,4 km/h (4 Bft) 100,00 %
24.04.2016 18:06 5,3 C 75 % 1008,9 hPa 0,0 l/m 17,7 km/h (3 Bft) S 184 0 min 0,000 mm 0,0 UV-I 94 W/m 1,2 C -1,8 C 25,7 km/h (4 Bft) 100,00 %
24.04.2016 18:07 5,3 C 75 % 1008,8 hPa 0,0 l/m 16,2 km/h (3 Bft) W 262 0 min 0,000 mm 0,0 UV-I 89 W/m 1,2 C -1,1 C 29,0 km/h (5 Bft) 100,00 %
24.04.2016 18:08 5,2 C 76 % 1008,8 hPa 0,0 l/m 13,0 km/h (3 Bft) S 180 0 min 0,000 mm 0,0 UV-I 85 W/m 1,3 C 0,4 C 25,7 km/h (4 Bft) 100,00 %
24.04.2016 18:09 5,2 C 77 % 1008,9 hPa 0,0 l/m 11,3 km/h (2 Bft) SW 230 0 min 0,000 mm 0,0 UV-I 84 W/m 1,5 C 1,4 C 17,7 km/h (3 Bft) 100,00 %
24.04.2016 18:10 5,2 C 77 % 1008,9 hPa 0,0 l/m 12,9 km/h (3 Bft) S 178 0 min 0,000 mm 0,0 UV-I 83 W/m 1,5 C 0,5 C 20,9 km/h (4 Bft) 100,00 %
24.04.2016 18:11 5,2 C 77 % 1008,9 hPa 0,0 l/m 12,5 km/h (3 Bft) SW 234 0 min 0,000 mm 0,0 UV-I 80 W/m 1,5 C 0,7 C 22,5 km/h (4 Bft) 100,00 %
24.04.2016 18:12 5,2 C 76 % 1008,9 hPa 0,0 l/m 18,8 km/h (3 Bft) S-SW 208 0 min 0,000 mm 0,0 UV-I 74 W/m 1,3 C -2,4 C 25,7 km/h (4 Bft) 100,00 %
24.04.2016 18:13 5,2 C 75 % 1008,8 hPa 0,0 l/m 18,0 km/h (3 Bft) S 171 0 min 0,000 mm 0,0 UV-I 72 W/m 1,1 C -2,1 C 24,1 km/h (4 Bft) 100,00 %
24.04.2016 18:14 5,2 C 76 % 1008,9 hPa 0,0 l/m 16,8 km/h (3 Bft) S 169 0 min 0,000 mm 0,0 UV-I 71 W/m 1,3 C -1,6 C 30,6 km/h (5 Bft) 100,00 %
24.04.2016 18:15 5,1 C 77 % 1008,8 hPa 0,0 l/m 12,9 km/h (3 Bft) S 186 0 min 0,000 mm 0,0 UV-I 74 W/m 1,4 C 0,3 C 20,9 km/h (4 Bft) 91,30 %
24.04.2016 18:16 5,2 C 78 % 1008,9 hPa 0,0 l/m 13,7 km/h (3 Bft) SW 219 0 min 0,000 mm 0,0 UV-I 77 W/m 1,7 C 0,0 C 20,9 km/h (4 Bft) 100,00 %
24.04.2016 18:17 5,1 C 77 % 1008,9 hPa 0,0 l/m 17,6 km/h (3 Bft) SO 137 0 min 0,000 mm 0,0 UV-I 80 W/m 1,4 C -2,0 C 24,1 km/h (4 Bft) 100,00 %
24.04.2016 18:18 5,1 C 76 % 1008,9 hPa 0,0 l/m 19,6 km/h (3 Bft) S-SW 199 0 min 0,000 mm 0,0 UV-I 87 W/m 1,2 C -2,9 C 25,7 km/h (4 Bft) 100,00 %
24.04.2016 18:19 5,1 C 76 % 1008,9 hPa 0,0 l/m 15,8 km/h (3 Bft) S 189 0 min 0,000 mm 0,0 UV-I 94 W/m 1,2 C -1,2 C 25,7 km/h (4 Bft) 95,65 %
24.04.2016 18:20 5,1 C 76 % 1009,0 hPa 0,0 l/m 19,5 km/h (3 Bft) S 186 0 min 0,000 mm 0,0 UV-I 103 W/m 1,2 C -2,8 C 24,1 km/h (4 Bft) 100,00 %
24.04.2016 18:21 5,1 C 76 % 1009,0 hPa 0,0 l/m 15,5 km/h (3 Bft) S-SW 207 0 min 0,000 mm 0,0 UV-I 113 W/m 1,2 C -1,1 C 20,9 km/h (4 Bft) 96,15 %
24.04.2016 18:22 5,1 C 77 % 1008,9 hPa 0,0 l/m 13,3 km/h (3 Bft) W-SW 238 0 min 0,000 mm 0,0 UV-I 116 W/m 1,4 C 0,1 C 17,7 km/h (3 Bft) 100,00 %
24.04.2016 18:23 5,1 C 77 % 1009,0 hPa 0,0 l/m 9,4 km/h (2 Bft) S-SW 208 1 min 0,000 mm 0,0 UV-I 225 W/m 1,4 C 2,6 C 14,5 km/h (3 Bft) 100,00 %
24.04.2016 18:24 5,2 C 77 % 1008,9 hPa 0,0 l/m 9,9 km/h (2 Bft) SW 235 1 min 0,000 mm 0,0 UV-I 256 W/m 1,5 C 2,4 C 16,1 km/h (3 Bft) 100,00 %
24.04.2016 18:25 5,2 C 76 % 1009,0 hPa 0,0 l/m 13,1 km/h (3 Bft) S-SW 204 1 min 0,000 mm 0,0 UV-I 250 W/m 1,3 C 0,3 C 17,7 km/h (3 Bft) 100,00 %
24.04.2016 18:26 5,3 C 75 % 1008,9 hPa 0,0 l/m 15,9 km/h (3 Bft) S 184 1 min 0,000 mm 0,0 UV-I 240 W/m 1,2 C -1,0 C 22,5 km/h (4 Bft) 100,00 %
24.04.2016 18:27 5,3 C 75 % 1009,0 hPa 0,0 l/m 13,5 km/h (3 Bft) W-SW 246 1 min 0,000 mm 0,0 UV-I 231 W/m 1,2 C 0,2 C 19,3 km/h (3 Bft) 100,00 %
24.04.2016 18:28 5,3 C 75 % 1009,0 hPa 0,0 l/m 13,5 km/h (3 Bft) W-SW 238 1 min 0,000 mm 0,0 UV-I 226 W/m 1,2 C 0,2 C 22,5 km/h (4 Bft) 100,00 %
24.04.2016 18:29 5,3 C 74 % 1008,9 hPa 0,0 l/m 12,8 km/h (3 Bft) S-SW 205 1 min 0,000 mm 0,0 UV-I 220 W/m 1,0 C 0,6 C 20,9 km/h (4 Bft) 100,00 %
24.04.2016 18:30 5,3 C 74 % 1008,9 hPa 0,0 l/m 13,3 km/h (3 Bft) SW 229 1 min 0,000 mm 0,0 UV-I 213 W/m 1,0 C 0,3 C 24,1 km/h (4 Bft) 100,00 %
24.04.2016 18:31 5,3 C 74 % 1008,9 hPa 0,0 l/m 17,5 km/h (3 Bft) W-SW 244 1 min 0,000 mm 0,0 UV-I 210 W/m 1,0 C -1,7 C 29,0 km/h (5 Bft) 100,00 %
24.04.2016 18:32 5,4 C 75 % 1008,9 hPa 0,0 l/m 14,2 km/h (3 Bft) SW 230 1 min 0,000 mm 0,0 UV-I 205 W/m 1,3 C -0,0 C 22,5 km/h (4 Bft) 100,00 %
24.04.2016 18:33 5,4 C 75 % 1009,0 hPa 0,0 l/m 14,8 km/h (3 Bft) SW 216 1 min 0,000 mm 0,0 UV-I 200 W/m 1,3 C -0,3 C 19,3 km/h (3 Bft) 100,00 %
24.04.2016 18:34 5,4 C 76 % 1008,9 hPa 0,0 l/m 18,0 km/h (3 Bft) S-SW 199 1 min 0,000 mm 0,0 UV-I 195 W/m 1,5 C -1,8 C 29,0 km/h (5 Bft) 81,82 %
24.04.2016 18:35 5,4 C 75 % 1008,9 hPa 0,0 l/m 17,1 km/h (3 Bft) SW 235 1 min 0,000 mm 0,0 UV-I 190 W/m 1,3 C -1,4 C 24,1 km/h (4 Bft) 100,00 %
24.04.2016 18:36 5,4 C 75 % 1008,9 hPa 0,0 l/m 18,2 km/h (3 Bft) SW 222 1 min 0,000 mm 0,0 UV-I 185 W/m 1,3 C -1,9 C 25,7 km/h (4 Bft) 100,00 %
24.04.2016 18:37 5,5 C 75 % 1008,9 hPa 0,0 l/m 11,5 km/h (2 Bft) W-SW 248 1 min 0,000 mm 0,0 UV-I 182 W/m 1,4 C 1,6 C 17,7 km/h (3 Bft) 100,00 %
24.04.2016 18:38 5,5 C 75 % 1008,9 hPa 0,0 l/m 16,1 km/h (3 Bft) S-SW 208 1 min 0,000 mm 0,0 UV-I 178 W/m 1,4 C -0,9 C 22,5 km/h (4 Bft) 100,00 %
24.04.2016 18:39 5,5 C 76 % 1008,9 hPa 0,0 l/m 15,8 km/h (3 Bft) SW 224 1 min 0,000 mm 0,0 UV-I 174 W/m 1,6 C -0,7 C 20,9 km/h (4 Bft) 100,00 %
24.04.2016 18:40 5,6 C 76 % 1008,8 hPa 0,0 l/m 14,6 km/h (3 Bft) SW 217 1 min 0,000 mm 0,0 UV-I 170 W/m 1,7 C 0,0 C 20,9 km/h (4 Bft) 100,00 %
24.04.2016 18:41 5,6 C 76 % 1008,8 hPa 0,0 l/m 17,8 km/h (3 Bft) S 170 1 min 0,000 mm 0,0 UV-I 167 W/m 1,7 C -1,5 C 29,0 km/h (5 Bft) 96,30 %
24.04.2016 18:42 5,6 C 74 % 1008,9 hPa 0,0 l/m 14,6 km/h (3 Bft) SW 234 1 min 0,000 mm 0,0 UV-I 163 W/m 1,3 C 0,0 C 20,9 km/h (4 Bft) 96,15 %
24.04.2016 18:43 5,6 C 74 % 1008,8 hPa 0,0 l/m 13,3 km/h (3 Bft) W-SW 238 1 min 0,000 mm 0,0 UV-I 160 W/m 1,3 C 0,7 C 22,5 km/h (4 Bft) 100,00 %
24.04.2016 18:44 5,6 C 75 % 1008,8 hPa 0,0 l/m 16,9 km/h (3 Bft) SW 224 1 min 0,000 mm 0,0 UV-I 157 W/m 1,5 C -1,1 C 24,1 km/h (4 Bft) 100,00 %
24.04.2016 18:45 5,6 C 75 % 1008,9 hPa 0,0 l/m 11,9 km/h (2 Bft) SW 223 1 min 0,000 mm 0,0 UV-I 154 W/m 1,5 C 1,5 C 16,1 km/h (3 Bft) 100,00 %
24.04.2016 18:46 5,6 C 75 % 1008,8 hPa 0,0 l/m 14,1 km/h (3 Bft) SW 215 1 min 0,000 mm 0,0 UV-I 150 W/m 1,5 C 0,3 C 22,5 km/h (4 Bft) 95,65 %
24.04.2016 18:47 5,6 C 75 % 1008,9 hPa 0,0 l/m 13,5 km/h (3 Bft) W-SW 238 1 min 0,000 mm 0,0 UV-I 147 W/m 1,5 C 0,6 C 19,3 km/h (3 Bft) 100,00 %
24.04.2016 18:48 5,6 C 75 % 1008,9 hPa 0,0 l/m 17,0 km/h (3 Bft) SW 218 1 min 0,000 mm 0,0 UV-I 143 W/m 1,5 C -1,1 C 25,7 km/h (4 Bft) 100,00 %
24.04.2016 18:49 5,6 C 75 % 1008,8 hPa 0,0 l/m 11,8 km/h (2 Bft) SW 219 1 min 0,000 mm 0,0 UV-I 142 W/m 1,5 C 1,6 C 17,7 km/h (3 Bft) 100,00 %
24.04.2016 18:50 5,6 C 76 % 1008,8 hPa 0,0 l/m 15,9 km/h (3 Bft) SW 219 1 min 0,000 mm 0,0 UV-I 139 W/m 1,7 C -0,6 C 22,5 km/h (4 Bft) 95,83 %
24.04.2016 18:51 5,6 C 75 % 1008,8 hPa 0,0 l/m 10,1 km/h (2 Bft) S 178 1 min 0,000 mm 0,0 UV-I 136 W/m 1,5 C 2,7 C 19,3 km/h (3 Bft) 100,00 %
24.04.2016 18:52 5,6 C 75 % 1008,8 hPa 0,0 l/m 20,1 km/h (4 Bft) SW 231 1 min 0,000 mm 0,0 UV-I 132 W/m 1,5 C -2,4 C 25,7 km/h (4 Bft) 96,30 %
24.04.2016 18:53 5,6 C 76 % 1008,8 hPa 0,0 l/m 14,4 km/h (3 Bft) S-SW 213 1 min 0,000 mm 0,0 UV-I 130 W/m 1,7 C 0,1 C 20,9 km/h (4 Bft) 96,15 %
24.04.2016 18:54 5,6 C 76 % 1008,7 hPa 0,0 l/m 16,1 km/h (3 Bft) S-SW 196 1 min 0,000 mm 0,0 UV-I 126 W/m 1,7 C -0,7 C 24,1 km/h (4 Bft) 100,00 %
24.04.2016 18:55 5,6 C 76 % 1008,7 hPa 0,0 l/m 10,0 km/h (2 Bft) SW 231 1 min 0,000 mm 0,0 UV-I 122 W/m 1,7 C 2,7 C 16,1 km/h (3 Bft) 100,00 %
24.04.2016 18:56 5,6 C 75 % 1008,8 hPa 0,0 l/m 18,6 km/h (3 Bft) SW 217 1 min 0,000 mm 0,0 UV-I 120 W/m 1,5 C -1,8 C 24,1 km/h (4 Bft) 100,00 %
24.04.2016 18:57 5,6 C 75 % 1008,7 hPa 0,0 l/m 21,6 km/h (4 Bft) S-SW 199 1 min 0,000 mm 0,0 UV-I 117 W/m 1,5 C -3,0 C 29,0 km/h (5 Bft) 95,65 %
24.04.2016 18:58 5,6 C 75 % 1008,8 hPa 0,0 l/m 17,5 km/h (3 Bft) W 261 1 min 0,000 mm 0,0 UV-I 113 W/m 1,5 C -1,4 C 25,7 km/h (4 Bft) 95,83 %
24.04.2016 18:59 5,6 C 75 % 1008,8 hPa 0,0 l/m 17,8 km/h (3 Bft) SW 215 1 min 0,000 mm 0,0 UV-I 111 W/m 1,5 C -1,5 C 24,1 km/h (4 Bft) 95,65 %
24.04.2016 19:00 5,6 C 75 % 1008,8 hPa 0,0 l/m 18,4 km/h (3 Bft) W-SW 250 1 min 0,102 mm 0,0 UV-I 109 W/m 1,5 C -1,8 C 25,7 km/h (4 Bft) 95,83 %
24.04.2016 19:01 5,6 C 75 % 1008,8 hPa 0,0 l/m 16,8 km/h (3 Bft) SW 226 1 min 0,000 mm 0,0 UV-I 107 W/m 1,5 C -1,1 C 25,7 km/h (4 Bft) 100,00 %
24.04.2016 19:02 5,5 C 74 % 1008,8 hPa 0,0 l/m 14,4 km/h (3 Bft) W-SW 254 1 min 0,000 mm 0,0 UV-I 103 W/m 1,2 C -0,0 C 25,7 km/h (4 Bft) 95,83 %
24.04.2016 19:03 5,5 C 74 % 1008,8 hPa 0,0 l/m 14,5 km/h (3 Bft) W-SW 245 1 min 0,000 mm 0,0 UV-I 100 W/m 1,2 C -0,1 C 19,3 km/h (3 Bft) 100,00 %
24.04.2016 19:04 5,4 C 74 % 1008,9 hPa 0,0 l/m 15,1 km/h (3 Bft) W-SW 244 1 min 0,000 mm 0,0 UV-I 97 W/m 1,1 C -0,5 C 22,5 km/h (4 Bft) 95,83 %
24.04.2016 19:05 5,4 C 74 % 1008,9 hPa 0,0 l/m 15,3 km/h (3 Bft) SW 227 1 min 0,000 mm 0,0 UV-I 94 W/m 1,1 C -0,6 C 22,5 km/h (4 Bft) 100,00 %
24.04.2016 19:06 5,4 C 74 % 1008,9 hPa 0,0 l/m 14,1 km/h (3 Bft) SW 224 1 min 0,000 mm 0,0 UV-I 91 W/m 1,1 C 0,0 C 17,7 km/h (3 Bft) 95,83 %
24.04.2016 19:07 5,4 C 74 % 1008,9 hPa 0,0 l/m 12,7 km/h (3 Bft) SW 225 1 min 0,000 mm 0,0 UV-I 88 W/m 1,1 C 0,8 C 19,3 km/h (3 Bft) 100,00 %
24.04.2016 19:08 5,4 C 75 % 1009,0 hPa 0,0 l/m 17,5 km/h (3 Bft) SW 217 1 min 0,000 mm 0,0 UV-I 85 W/m 1,3 C -1,6 C 25,7 km/h (4 Bft) 91,67 %
24.04.2016 19:09 5,3 C 75 % 1008,9 hPa 0,0 l/m 15,6 km/h (3 Bft) SW 228 1 min 0,000 mm 0,0 UV-I 83 W/m 1,2 C -0,9 C 20,9 km/h (4 Bft) 100,00 %
24.04.2016 19:10 5,3 C 75 % 1009,0 hPa 0,0 l/m 16,4 km/h (3 Bft) W-SW 239 1 min 0,000 mm 0,0 UV-I 81 W/m 1,2 C -1,2 C 22,5 km/h (4 Bft) 95,65 %
24.04.2016 19:11 5,3 C 75 % 1009,0 hPa 0,0 l/m 17,8 km/h (3 Bft) SW 236 1 min 0,000 mm 0,0 UV-I 79 W/m 1,2 C -1,9 C 25,7 km/h (4 Bft) 95,83 %
24.04.2016 19:12 5,3 C 75 % 1009,0 hPa 0,0 l/m 17,5 km/h (3 Bft) SW 230 1 min 0,000 mm 0,0 UV-I 77 W/m 1,2 C -1,7 C 24,1 km/h (4 Bft) 95,65 %
24.04.2016 19:13 5,3 C 75 % 1009,0 hPa 0,0 l/m 19,3 km/h (3 Bft) SW 227 0 min 0,000 mm 0,0 UV-I 75 W/m 1,2 C -2,5 C 24,1 km/h (4 Bft) 95,83 %
24.04.2016 19:14 5,3 C 75 % 1009,0 hPa 0,0 l/m 17,4 km/h (3 Bft) SW 220 0 min 0,000 mm 0,0 UV-I 72 W/m 1,2 C -1,7 C 25,7 km/h (4 Bft) 100,00 %
24.04.2016 19:15 5,3 C 75 % 1009,0 hPa 0,0 l/m 19,7 km/h (3 Bft) W-SW 238 0 min 0,000 mm 0,0 UV-I 69 W/m 1,2 C -2,7 C 25,7 km/h (4 Bft) 96,30 %
24.04.2016 19:16 5,3 C 75 % 1009,0 hPa 0,0 l/m 21,7 km/h (4 Bft) W-SW 247 0 min 0,000 mm 0,0 UV-I 67 W/m 1,2 C -3,4 C 25,7 km/h (4 Bft) 100,00 %
24.04.2016 19:17 5,2 C 75 % 1009,0 hPa 0,0 l/m 17,5 km/h (3 Bft) S-SW 196 0 min 0,000 mm 0,0 UV-I 63 W/m 1,1 C -1,9 C 27,4 km/h (4 Bft) 95,83 %
24.04.2016 19:18 5,2 C 76 % 1009,0 hPa 0,0 l/m 14,3 km/h (3 Bft) W-SW 240 0 min 0,000 mm 0,0 UV-I 62 W/m 1,3 C -0,3 C 22,5 km/h (4 Bft) 95,65 %
24.04.2016 19:19 5,1 C 76 % 1009,1 hPa 0,0 l/m 15,9 km/h (3 Bft) SW 228 0 min 0,000 mm 0,0 UV-I 60 W/m 1,2 C -1,3 C 24,1 km/h (4 Bft) 100,00 %
24.04.2016 19:20 5,1 C 77 % 1009,1 hPa 0,0 l/m 15,0 km/h (3 Bft) S 180 0 min 0,000 mm 0,0 UV-I 55 W/m 1,4 C -0,8 C 24,1 km/h (4 Bft) 95,65 %
24.04.2016 19:21 5,1 C 77 % 1009,1 hPa 0,0 l/m 15,5 km/h (3 Bft) W-SW 250 0 min 0,000 mm 0,0 UV-I 53 W/m 1,4 C -1,1 C 25,7 km/h (4 Bft) 100,00 %
24.04.2016 19:22 5,0 C 77 % 1009,1 hPa 0,0 l/m 19,8 km/h (3 Bft) SW 233 0 min 0,000 mm 0,0 UV-I 49 W/m 1,3 C -3,1 C 25,7 km/h (4 Bft) 95,65 %
24.04.2016 19:23 4,9 C 77 % 1009,1 hPa 0,0 l/m 16,3 km/h (3 Bft) W-SW 250 0 min 0,000 mm 0,0 UV-I 47 W/m 1,2 C -1,7 C 22,5 km/h (4 Bft) 95,83 %
24.04.2016 19:24 4,9 C 77 % 1009,1 hPa 0,0 l/m 13,1 km/h (3 Bft) S-SO 167 0 min 0,000 mm 0,0 UV-I 44 W/m 1,2 C -0,0 C 20,9 km/h (4 Bft) 86,96 %
24.04.2016 19:25 4,9 C 78 % 1009,1 hPa 0,0 l/m 16,6 km/h (3 Bft) SW 227 0 min 0,000 mm 0,0 UV-I 38 W/m 1,4 C -1,8 C 24,1 km/h (4 Bft) 95,83 %
24.04.2016 19:26 4,9 C 78 % 1009,1 hPa 0,0 l/m 17,6 km/h (3 Bft) SW 230 0 min 0,000 mm 0,0 UV-I 36 W/m 1,4 C -2,3 C 22,5 km/h (4 Bft) 95,65 %
24.04.2016 19:27 4,8 C 78 % 1009,1 hPa 0,0 l/m 16,2 km/h (3 Bft) SW 216 0 min 0,000 mm 0,0 UV-I 35 W/m 1,3 C -1,8 C 22,5 km/h (4 Bft) 95,83 %
24.04.2016 19:28 4,8 C 78 % 1009,0 hPa 0,0 l/m 16,2 km/h (3 Bft) W-SW 238 0 min 0,000 mm 0,0 UV-I 35 W/m 1,3 C -1,8 C 20,9 km/h (4 Bft) 100,00 %
24.04.2016 19:29 4,8 C 78 % 1009,0 hPa 0,0 l/m 11,3 km/h (2 Bft) S-SW 202 0 min 0,000 mm 0,0 UV-I 35 W/m 1,3 C 1,0 C 14,5 km/h (3 Bft) 96,15 %
24.04.2016 19:30 4,8 C 79 % 1009,0 hPa 0,0 l/m 15,6 km/h (3 Bft) SW 232 0 min 0,000 mm 0,0 UV-I 35 W/m 1,5 C -1,5 C 22,5 km/h (4 Bft) 100,00 %
24.04.2016 19:31 4,8 C 79 % 1009,0 hPa 0,0 l/m 15,4 km/h (3 Bft) W-SW 241 0 min 0,000 mm 0,0 UV-I 34 W/m 1,5 C -1,4 C 22,5 km/h (4 Bft) 85,71 %
24.04.2016 19:32 4,7 C 80 % 1009,0 hPa 0,0 l/m 14,1 km/h (3 Bft) SW 235 0 min 0,000 mm 0,0 UV-I 32 W/m 1,6 C -0,8 C 17,7 km/h (3 Bft) 100,00 %
24.04.2016 19:33 4,7 C 80 % 1009,0 hPa 0,0 l/m 17,0 km/h (3 Bft) SW 214 0 min 0,000 mm 0,0 UV-I 32 W/m 1,6 C -2,3 C 24,1 km/h (4 Bft) 95,65 %
24.04.2016 19:34 4,7 C 80 % 1009,1 hPa 0,0 l/m 18,5 km/h (3 Bft) SW 230 0 min 0,000 mm 0,0 UV-I 30 W/m 1,6 C -2,9 C 25,7 km/h (4 Bft) 100,00 %
24.04.2016 19:35 4,6 C 81 % 1009,1 hPa 0,0 l/m 18,0 km/h (3 Bft) S-SW 209 0 min 0,000 mm 0,0 UV-I 26 W/m 1,6 C -2,8 C 25,7 km/h (4 Bft) 100,00 %
24.04.2016 19:36 4,6 C 81 % 1009,1 hPa 0,0 l/m 14,6 km/h (3 Bft) SW 233 0 min 0,000 mm 0,0 UV-I 26 W/m 1,6 C -1,2 C 24,1 km/h (4 Bft) 95,83 %
24.04.2016 19:37 4,6 C 80 % 1009,1 hPa 0,0 l/m 16,3 km/h (3 Bft) W-SW 244 0 min 0,000 mm 0,0 UV-I 25 W/m 1,5 C -2,1 C 24,1 km/h (4 Bft) 100,00 %
24.04.2016 19:38 4,6 C 81 % 1009,1 hPa 0,0 l/m 17,5 km/h (3 Bft) W-SW 237 0 min 0,000 mm 0,0 UV-I 24 W/m 1,6 C -2,6 C 24,1 km/h (4 Bft) 100,00 %
24.04.2016 19:39 4,6 C 81 % 1009,1 hPa 0,0 l/m 12,9 km/h (3 Bft) SW 229 0 min 0,000 mm 0,0 UV-I 21 W/m 1,6 C -0,2 C 20,9 km/h (4 Bft) 96,15 %
24.04.2016 19:40 4,6 C 81 % 1009,1 hPa 0,0 l/m 18,5 km/h (3 Bft) SW 217 0 min 0,000 mm 0,0 UV-I 19 W/m 1,6 C -3,1 C 25,7 km/h (4 Bft) 100,00 %
24.04.2016 19:41 4,5 C 81 % 1009,1 hPa 0,0 l/m 15,2 km/h (3 Bft) S-SW 213 0 min 0,000 mm 0,0 UV-I 19 W/m 1,5 C -1,6 C 25,7 km/h (4 Bft) 100,00 %
24.04.2016 19:42 4,5 C 80 % 1009,1 hPa 0,0 l/m 11,1 km/h (2 Bft) S-SW 205 0 min 0,000 mm 0,0 UV-I 19 W/m 1,4 C 0,8 C 16,1 km/h (3 Bft) 100,00 %
24.04.2016 19:43 4,4 C 81 % 1009,1 hPa 0,0 l/m 11,8 km/h (2 Bft) S 191 0 min 0,000 mm 0,0 UV-I 18 W/m 1,4 C 0,2 C 19,3 km/h (3 Bft) 95,65 %
24.04.2016 19:44 4,4 C 81 % 1009,1 hPa 0,0 l/m 11,1 km/h (2 Bft) S-SW 201 0 min 0,000 mm 0,0 UV-I 18 W/m 1,4 C 0,6 C 14,5 km/h (3 Bft) 100,00 %
24.04.2016 19:45 4,4 C 81 % 1009,1 hPa 0,0 l/m 13,4 km/h (3 Bft) W-SW 237 0 min 0,000 mm 0,0 UV-I 16 W/m 1,4 C -0,8 C 19,3 km/h (3 Bft) 100,00 %
24.04.2016 19:46 4,4 C 81 % 1009,1 hPa 0,0 l/m 11,4 km/h (2 Bft) SW 234 0 min 0,000 mm 0,0 UV-I 16 W/m 1,4 C 0,4 C 16,1 km/h (3 Bft) 100,00 %
24.04.2016 19:47 4,4 C 81 % 1009,1 hPa 0,0 l/m 14,6 km/h (3 Bft) SW 230 0 min 0,000 mm 0,0 UV-I 14 W/m 1,4 C -1,4 C 20,9 km/h (4 Bft) 100,00 %
24.04.2016 19:48 4,3 C 81 % 1009,1 hPa 0,0 l/m 15,4 km/h (3 Bft) S-SW 198 0 min 0,000 mm 0,0 UV-I 14 W/m 1,3 C -2,0 C 20,9 km/h (4 Bft) 100,00 %
24.04.2016 19:49 4,3 C 81 % 1009,1 hPa 0,0 l/m 15,1 km/h (3 Bft) SW 220 0 min 0,000 mm 0,0 UV-I 13 W/m 1,3 C -1,8 C 20,9 km/h (4 Bft) 95,83 %
24.04.2016 19:50 4,3 C 81 % 1009,1 hPa 0,0 l/m 13,0 km/h (3 Bft) SW 230 0 min 0,000 mm 0,0 UV-I 12 W/m 1,3 C -0,7 C 17,7 km/h (3 Bft) 95,65 %
24.04.2016 19:51 4,3 C 82 % 1009,1 hPa 0,0 l/m 11,3 km/h (2 Bft) W-SW 246 0 min 0,000 mm 0,0 UV-I 12 W/m 1,5 C 0,4 C 19,3 km/h (3 Bft) 100,00 %
24.04.2016 19:52 4,3 C 82 % 1009,2 hPa 0,0 l/m 13,2 km/h (3 Bft) SW 225 0 min 0,000 mm 0,0 UV-I 12 W/m 1,5 C -0,8 C 19,3 km/h (3 Bft) 95,65 %
24.04.2016 19:53 4,2 C 82 % 1009,2 hPa 0,0 l/m 13,5 km/h (3 Bft) W 262 0 min 0,000 mm 0,0 UV-I 11 W/m 1,4 C -1,1 C 20,9 km/h (4 Bft) 100,00 %
24.04.2016 19:54 4,2 C 82 % 1009,2 hPa 0,0 l/m 14,1 km/h (3 Bft) S-SW 197 0 min 0,000 mm 0,0 UV-I 11 W/m 1,4 C -1,4 C 20,9 km/h (4 Bft) 100,00 %
24.04.2016 19:55 4,2 C 83 % 1009,2 hPa 0,0 l/m 16,0 km/h (3 Bft) W-SW 243 1 min 0,000 mm 0,0 UV-I 11 W/m 1,6 C -2,4 C 24,1 km/h (4 Bft) 100,00 %
24.04.2016 19:56 4,2 C 83 % 1009,2 hPa 0,0 l/m 14,1 km/h (3 Bft) SW 236 0 min 0,000 mm 0,0 UV-I 9 W/m 1,6 C -1,4 C 20,9 km/h (4 Bft) 95,65 %
24.04.2016 20:00 4,1 C 83 % 1009,2 hPa 0,0 l/m 16,1 km/h (3 Bft) SW 225 0 min 0,051 mm 0,0 UV-I 9 W/m 1,5 C -2,6 C 25,7 km/h (4 Bft) 97,37 %
24.04.2016 20:05 3,9 C 82 % 1009,2 hPa 0,0 l/m 17,5 km/h (3 Bft) SW 216 0 min 0,000 mm 0,0 UV-I 6 W/m 1,1 C -3,5 C 25,7 km/h (4 Bft) 100,00 %
24.04.2016 20:06 3,9 C 82 % 1009,2 hPa 0,0 l/m 17,1 km/h (3 Bft) S-SW 211 0 min 0,000 mm 0,0 UV-I 5 W/m 1,1 C -3,3 C 25,7 km/h (4 Bft) 100,00 %
24.04.2016 20:07 3,9 C 83 % 1009,2 hPa 0,0 l/m 16,9 km/h (3 Bft) W-SW 241 0 min 0,000 mm 0,0 UV-I 5 W/m 1,3 C -3,2 C 24,1 km/h (4 Bft) 100,00 %
24.04.2016 20:08 3,8 C 83 % 1009,2 hPa 0,0 l/m 17,4 km/h (3 Bft) W-SW 257 0 min 0,000 mm 0,0 UV-I 5 W/m 1,2 C -3,6 C 24,1 km/h (4 Bft) 100,00 %
24.04.2016 20:09 3,8 C 83 % 1009,2 hPa 0,0 l/m 20,2 km/h (4 Bft) W-SW 238 0 min 0,000 mm 0,0 UV-I 5 W/m 1,2 C -4,8 C 27,4 km/h (4 Bft) 100,00 %
24.04.2016 20:10 3,8 C 83 % 1009,2 hPa 0,0 l/m 19,4 km/h (3 Bft) W-SW 246 0 min 0,000 mm 0,0 UV-I 4 W/m 1,2 C -4,5 C 24,1 km/h (4 Bft) 100,00 %
24.04.2016 20:11 3,8 C 83 % 1009,2 hPa 0,0 l/m 14,4 km/h (3 Bft) W 267 0 min 0,000 mm 0,0 UV-I 0 W/m 1,2 C -2,1 C 17,7 km/h (3 Bft) 100,00 %
24.04.2016 20:12 3,7 C 83 % 1009,2 hPa 0,0 l/m 19,4 km/h (3 Bft) W-SW 242 0 min 0,000 mm 0,0 UV-I 0 W/m 1,1 C -4,6 C 22,5 km/h (4 Bft) 95,65 %
24.04.2016 20:13 3,7 C 83 % 1009,3 hPa 0,0 l/m 19,2 km/h (3 Bft) W-SW 254 0 min 0,000 mm 0,0 UV-I 0 W/m 1,1 C -4,5 C 25,7 km/h (4 Bft) 100,00 %
24.04.2016 20:14 3,7 C 83 % 1009,3 hPa 0,0 l/m 19,4 km/h (3 Bft) W-SW 249 0 min 0,000 mm 0,0 UV-I 0 W/m 1,1 C -4,6 C 29,0 km/h (5 Bft) 95,65 %
24.04.2016 20:15 3,7 C 83 % 1009,3 hPa 0,0 l/m 14,9 km/h (3 Bft) S-SW 211 0 min 0,000 mm 0,0 UV-I 0 W/m 1,1 C -2,4 C 19,3 km/h (3 Bft) 100,00 %
24.04.2016 20:16 3,7 C 83 % 1009,3 hPa 0,0 l/m 12,7 km/h (3 Bft) W-SW 254 0 min 0,000 mm 0,0 UV-I 0 W/m 1,1 C -1,2 C 17,7 km/h (3 Bft) 100,00 %
24.04.2016 20:17 3,6 C 83 % 1009,3 hPa 0,0 l/m 20,8 km/h (4 Bft) W-SW 257 0 min 0,000 mm 0,0 UV-I 0 W/m 1,0 C -5,3 C 25,7 km/h (4 Bft) 100,00 %
24.04.2016 20:18 3,6 C 84 % 1009,3 hPa 0,0 l/m 16,9 km/h (3 Bft) S-SW 208 0 min 0,000 mm 0,0 UV-I 0 W/m 1,2 C -3,6 C 22,5 km/h (4 Bft) 100,00 %
24.04.2016 20:19 3,6 C 84 % 1009,3 hPa 0,0 l/m 17,0 km/h (3 Bft) SW 233 0 min 0,000 mm 0,0 UV-I 0 W/m 1,2 C -3,6 C 24,1 km/h (4 Bft) 95,65 %
24.04.2016 20:20 3,6 C 84 % 1009,3 hPa 0,0 l/m 18,0 km/h (3 Bft) SW 229 0 min 0,000 mm 0,0 UV-I 0 W/m 1,2 C -4,1 C 24,1 km/h (4 Bft) 100,00 %
24.04.2016 20:21 3,5 C 84 % 1009,4 hPa 0,0 l/m 18,6 km/h (3 Bft) S-SW 210 0 min 0,000 mm 0,0 UV-I 0 W/m 1,1 C -4,5 C 25,7 km/h (4 Bft) 100,00 %
24.04.2016 20:22 3,5 C 84 % 1009,4 hPa 0,0 l/m 15,9 km/h (3 Bft) SW 229 0 min 0,000 mm 0,0 UV-I 0 W/m 1,1 C -3,2 C 19,3 km/h (3 Bft) 100,00 %
24.04.2016 20:23 3,5 C 84 % 1009,4 hPa 0,0 l/m 19,6 km/h (3 Bft) W-SW 239 0 min 0,000 mm 0,0 UV-I 0 W/m 1,1 C -4,9 C 27,4 km/h (4 Bft) 100,00 %
24.04.2016 20:24 3,5 C 84 % 1009,4 hPa 0,0 l/m 15,7 km/h (3 Bft) SW 215 0 min 0,000 mm 0,0 UV-I 0 W/m 1,1 C -3,1 C 22,5 km/h (4 Bft) 96,30 %
24.04.2016 20:25 3,4 C 84 % 1009,4 hPa 0,0 l/m 18,7 km/h (3 Bft) SW 234 0 min 0,000 mm 0,0 UV-I 0 W/m 1,0 C -4,7 C 27,4 km/h (4 Bft) 100,00 %
24.04.2016 20:26 3,4 C 84 % 1009,6 hPa 0,0 l/m 15,6 km/h (3 Bft) SW 222 0 min 0,000 mm 0,0 UV-I 0 W/m 1,0 C -3,2 C 19,3 km/h (3 Bft) 100,00 %
24.04.2016 20:27 3,4 C 84 % 1009,5 hPa 0,0 l/m 18,1 km/h (3 Bft) W 264 0 min 0,000 mm 0,0 UV-I 0 W/m 1,0 C -4,4 C 22,5 km/h (4 Bft) 100,00 %
24.04.2016 20:28 3,4 C 84 % 1009,5 hPa 0,0 l/m 15,1 km/h (3 Bft) SW 232 0 min 0,000 mm 0,0 UV-I 0 W/m 1,0 C -2,9 C 22,5 km/h (4 Bft) 100,00 %
24.04.2016 20:29 3,4 C 84 % 1009,5 hPa 0,0 l/m 17,3 km/h (3 Bft) SW 234 0 min 0,000 mm 0,0 UV-I 0 W/m 1,0 C -4,0 C 22,5 km/h (4 Bft) 100,00 %
24.04.2016 20:30 3,4 C 84 % 1009,6 hPa 0,0 l/m 15,8 km/h (3 Bft) SW 229 0 min 0,000 mm 0,0 UV-I 0 W/m 1,0 C -3,3 C 19,3 km/h (3 Bft) 100,00 %
24.04.2016 20:31 3,4 C 84 % 1009,6 hPa 0,0 l/m 14,1 km/h (3 Bft) SW 222 0 min 0,000 mm 0,0 UV-I 0 W/m 1,0 C -2,4 C 19,3 km/h (3 Bft) 100,00 %
24.04.2016 20:32 3,3 C 84 % 1009,6 hPa 0,0 l/m 17,9 km/h (3 Bft) SW 224 0 min 0,000 mm 0,0 UV-I 0 W/m 0,9 C -4,4 C 24,1 km/h (4 Bft) 100,00 %
24.04.2016 20:33 3,3 C 84 % 1009,6 hPa 0,0 l/m 18,3 km/h (3 Bft) S-SW 194 0 min 0,000 mm 0,0 UV-I 0 W/m 0,9 C -4,6 C 25,7 km/h (4 Bft) 100,00 %
24.04.2016 20:34 3,3 C 84 % 1009,7 hPa 0,0 l/m 15,7 km/h (3 Bft) W-SW 244 0 min 0,000 mm 0,0 UV-I 0 W/m 0,9 C -3,4 C 24,1 km/h (4 Bft) 100,00 %
24.04.2016 20:35 3,3 C 84 % 1009,6 hPa 0,0 l/m 14,4 km/h (3 Bft) S 191 0 min 0,000 mm 0,0 UV-I 0 W/m 0,9 C -2,7 C 22,5 km/h (4 Bft) 100,00 %
24.04.2016 20:36 3,3 C 84 % 1009,6 hPa 0,0 l/m 15,4 km/h (3 Bft) W-SW 245 0 min 0,000 mm 0,0 UV-I 0 W/m 0,9 C -3,2 C 24,1 km/h (4 Bft) 100,00 %
24.04.2016 20:37 3,3 C 84 % 1009,7 hPa 0,0 l/m 11,9 km/h (2 Bft) SW 215 0 min 0,000 mm 0,0 UV-I 0 W/m 0,9 C -1,1 C 19,3 km/h (3 Bft) 100,00 %
24.04.2016 20:38 3,3 C 84 % 1009,7 hPa 0,0 l/m 14,7 km/h (3 Bft) SW 232 0 min 0,000 mm 0,0 UV-I 0 W/m 0,9 C -2,8 C 19,3 km/h (3 Bft) 100,00 %
24.04.2016 20:39 3,3 C 84 % 1009,7 hPa 0,0 l/m 12,7 km/h (3 Bft) SW 228 0 min 0,000 mm 0,0 UV-I 0 W/m 0,9 C -1,6 C 17,7 km/h (3 Bft) 95,83 %
24.04.2016 20:40 3,3 C 84 % 1009,7 hPa 0,0 l/m 15,4 km/h (3 Bft) SW 230 0 min 0,000 mm 0,0 UV-I 0 W/m 0,9 C -3,2 C 19,3 km/h (3 Bft) 91,30 %
24.04.2016 20:41 3,2 C 84 % 1009,7 hPa 0,0 l/m 16,4 km/h (3 Bft) W-SW 238 0 min 0,000 mm 0,0 UV-I 0 W/m 0,8 C -3,8 C 22,5 km/h (4 Bft) 95,83 %
24.04.2016 20:42 3,2 C 85 % 1009,7 hPa 0,0 l/m 13,0 km/h (3 Bft) SW 232 0 min 0,000 mm 0,0 UV-I 0 W/m 0,9 C -1,9 C 17,7 km/h (3 Bft) 100,00 %
24.04.2016 20:43 3,2 C 85 % 1009,7 hPa 0,0 l/m 12,3 km/h (3 Bft) SW 219 0 min 0,000 mm 0,0 UV-I 0 W/m 0,9 C -1,5 C 19,3 km/h (3 Bft) 100,00 %
24.04.2016 20:44 3,2 C 85 % 1009,7 hPa 0,0 l/m 14,2 km/h (3 Bft) SW 223 0 min 0,000 mm 0,0 UV-I 0 W/m 0,9 C -2,7 C 22,5 km/h (4 Bft) 100,00 %
24.04.2016 20:45 3,2 C 85 % 1009,7 hPa 0,0 l/m 16,4 km/h (3 Bft) W-SW 253 0 min 0,000 mm 0,0 UV-I 0 W/m 0,9 C -3,8 C 24,1 km/h (4 Bft) 95,83 %
24.04.2016 20:46 3,2 C 85 % 1009,7 hPa 0,0 l/m 13,3 km/h (3 Bft) W-SW 249 0 min 0,000 mm 0,0 UV-I 0 W/m 0,9 C -2,1 C 16,1 km/h (3 Bft) 100,00 %
24.04.2016 20:47 3,2 C 85 % 1009,7 hPa 0,0 l/m 13,3 km/h (3 Bft) W-SW 246 0 min 0,000 mm 0,0 UV-I 0 W/m 0,9 C -2,1 C 19,3 km/h (3 Bft) 100,00 %
24.04.2016 20:48 3,2 C 85 % 1009,7 hPa 0,0 l/m 13,5 km/h (3 Bft) W-SW 244 0 min 0,000 mm 0,0 UV-I 0 W/m 0,9 C -2,3 C 17,7 km/h (3 Bft) 100,00 %
24.04.2016 20:49 3,2 C 85 % 1009,7 hPa 0,0 l/m 14,7 km/h (3 Bft) W 265 0 min 0,000 mm 0,0 UV-I 0 W/m 0,9 C -2,9 C 20,9 km/h (4 Bft) 100,00 %
24.04.2016 20:50 3,2 C 85 % 1009,7 hPa 0,0 l/m 14,9 km/h (3 Bft) SW 234 0 min 0,000 mm 0,0 UV-I 0 W/m 0,9 C -3,0 C 22,5 km/h (4 Bft) 100,00 %
24.04.2016 20:51 3,2 C 85 % 1009,8 hPa 0,0 l/m 15,1 km/h (3 Bft) W-SW 252 0 min 0,000 mm 0,0 UV-I 0 W/m 0,9 C -3,2 C 20,9 km/h (4 Bft) 100,00 %
24.04.2016 20:52 3,1 C 85 % 1009,9 hPa 0,0 l/m 14,8 km/h (3 Bft) SW 233 0 min 0,000 mm 0,0 UV-I 0 W/m 0,8 C -3,1 C 19,3 km/h (3 Bft) 100,00 %
24.04.2016 20:53 3,1 C 85 % 1009,8 hPa 0,0 l/m 16,0 km/h (3 Bft) W-SW 237 0 min 0,000 mm 0,0 UV-I 0 W/m 0,8 C -3,8 C 20,9 km/h (4 Bft) 100,00 %
24.04.2016 20:54 3,2 C 85 % 1009,9 hPa 0,0 l/m 15,8 km/h (3 Bft) SW 229 0 min 0,000 mm 0,0 UV-I 0 W/m 0,9 C -3,5 C 20,9 km/h (4 Bft) 95,83 %
24.04.2016 20:55 3,1 C 85 % 1009,8 hPa 0,0 l/m 17,9 km/h (3 Bft) S-SW 205 0 min 0,000 mm 0,0 UV-I 0 W/m 0,8 C -4,7 C 20,9 km/h (4 Bft) 100,00 %
24.04.2016 20:56 3,1 C 85 % 1009,9 hPa 0,0 l/m 13,6 km/h (3 Bft) SW 218 0 min 0,000 mm 0,0 UV-I 0 W/m 0,8 C -2,4 C 19,3 km/h (3 Bft) 100,00 %
24.04.2016 20:57 3,1 C 85 % 1009,9 hPa 0,0 l/m 16,4 km/h (3 Bft) SW 236 0 min 0,000 mm 0,0 UV-I 0 W/m 0,8 C -4,0 C 22,5 km/h (4 Bft) 100,00 %
24.04.2016 20:58 3,1 C 85 % 1009,9 hPa 0,0 l/m 16,3 km/h (3 Bft) SW 228 0 min 0,000 mm 0,0 UV-I 0 W/m 0,8 C -3,9 C 22,5 km/h (4 Bft) 100,00 %
24.04.2016 20:59 3,1 C 85 % 1009,9 hPa 0,0 l/m 17,1 km/h (3 Bft) SW 229 0 min 0,000 mm 0,0 UV-I 0 W/m 0,8 C -4,3 C 22,5 km/h (4 Bft) 100,00 %
24.04.2016 21:00 3,1 C 85 % 1009,9 hPa 0,0 l/m 15,9 km/h (3 Bft) S-SW 211 0 min 0,025 mm 0,0 UV-I 0 W/m 0,8 C -3,7 C 20,9 km/h (4 Bft) 100,00 %
24.04.2016 21:02 3,0 C 86 % 1009,9 hPa 0,0 l/m 15,4 km/h (3 Bft) S-SW 213 0 min 0,000 mm 0,0 UV-I 0 W/m 0,9 C -3,6 C 24,1 km/h (4 Bft) 97,87 %
24.04.2016 21:03 3,0 C 86 % 1009,9 hPa 0,0 l/m 13,9 km/h (3 Bft) SW 224 0 min 0,000 mm 0,0 UV-I 0 W/m 0,9 C -2,7 C 20,9 km/h (4 Bft) 91,30 %
24.04.2016 21:04 3,0 C 86 % 1009,9 hPa 0,0 l/m 13,9 km/h (3 Bft) SW 215 0 min 0,000 mm 0,0 UV-I 0 W/m 0,9 C -2,7 C 20,9 km/h (4 Bft) 95,83 %
24.04.2016 21:05 3,0 C 86 % 1010,0 hPa 0,0 l/m 17,8 km/h (3 Bft) SW 226 0 min 0,000 mm 0,0 UV-I 0 W/m 0,9 C -4,8 C 24,1 km/h (4 Bft) 91,30 %
24.04.2016 21:06 3,0 C 86 % 1010,0 hPa 0,0 l/m 15,1 km/h (3 Bft) SW 236 0 min 0,000 mm 0,0 UV-I 0 W/m 0,9 C -3,4 C 22,5 km/h (4 Bft) 95,83 %
24.04.2016 21:07 3,0 C 86 % 1010,0 hPa 0,0 l/m 16,9 km/h (3 Bft) SW 225 0 min 0,000 mm 0,0 UV-I 0 W/m 0,9 C -4,3 C 25,7 km/h (4 Bft) 100,00 %
24.04.2016 21:08 3,0 C 86 % 1010,0 hPa 0,0 l/m 15,0 km/h (3 Bft) SW 229 0 min 0,000 mm 0,0 UV-I 0 W/m 0,9 C -3,3 C 20,9 km/h (4 Bft) 95,83 %
24.04.2016 21:09 3,0 C 86 % 1010,1 hPa 0,0 l/m 15,5 km/h (3 Bft) SW 236 0 min 0,000 mm 0,0 UV-I 0 W/m 0,9 C -3,6 C 22,5 km/h (4 Bft) 100,00 %
24.04.2016 21:10 2,9 C 86 % 1010,0 hPa 0,0 l/m 11,8 km/h (2 Bft) SW 232 0 min 0,000 mm 0,0 UV-I 0 W/m 0,8 C -1,5 C 20,9 km/h (4 Bft) 95,83 %
24.04.2016 21:11 2,9 C 86 % 1010,1 hPa 0,0 l/m 13,5 km/h (3 Bft) SW 233 0 min 0,000 mm 0,0 UV-I 0 W/m 0,8 C -2,6 C 17,7 km/h (3 Bft) 95,65 %
24.04.2016 21:12 2,9 C 86 % 1010,1 hPa 0,0 l/m 14,3 km/h (3 Bft) W-SW 247 0 min 0,000 mm 0,0 UV-I 0 W/m 0,8 C -3,1 C 20,9 km/h (4 Bft) 100,00 %
24.04.2016 21:13 3,0 C 86 % 1010,1 hPa 0,0 l/m 11,1 km/h (2 Bft) W-SW 251 0 min 0,000 mm 0,0 UV-I 0 W/m 0,9 C -0,9 C 16,1 km/h (3 Bft) 95,65 %
24.04.2016 21:14 2,9 C 86 % 1010,1 hPa 0,0 l/m 17,4 km/h (3 Bft) S-SW 200 0 min 0,000 mm 0,0 UV-I 0 W/m 0,8 C -4,7 C 24,1 km/h (4 Bft) 100,00 %
24.04.2016 21:15 3,0 C 86 % 1010,1 hPa 0,0 l/m 17,7 km/h (3 Bft) S-SW 209 0 min 0,000 mm 0,0 UV-I 0 W/m 0,9 C -4,7 C 22,5 km/h (4 Bft) 91,67 %
24.04.2016 21:16 2,9 C 86 % 1010,1 hPa 0,0 l/m 14,7 km/h (3 Bft) SW 235 0 min 0,000 mm 0,0 UV-I 0 W/m 0,8 C -3,3 C 19,3 km/h (3 Bft) 100,00 %
24.04.2016 21:17 2,9 C 86 % 1010,2 hPa 0,0 l/m 15,1 km/h (3 Bft) W-SW 252 0 min 0,000 mm 0,0 UV-I 0 W/m 0,8 C -3,5 C 22,5 km/h (4 Bft) 95,83 %
24.04.2016 21:18 2,9 C 86 % 1010,2 hPa 0,0 l/m 13,1 km/h (3 Bft) SW 234 0 min 0,000 mm 0,0 UV-I 0 W/m 0,8 C -2,4 C 17,7 km/h (3 Bft) 95,65 %
24.04.2016 21:19 2,9 C 86 % 1010,2 hPa 0,0 l/m 13,1 km/h (3 Bft) SW 227 0 min 0,000 mm 0,0 UV-I 0 W/m 0,8 C -2,4 C 20,9 km/h (4 Bft) 95,83 %
24.04.2016 21:20 2,9 C 86 % 1010,2 hPa 0,0 l/m 13,6 km/h (3 Bft) SW 228 0 min 0,000 mm 0,0 UV-I 0 W/m 0,8 C -2,7 C 20,9 km/h (4 Bft) 91,30 %
24.04.2016 21:21 2,9 C 86 % 1010,2 hPa 0,0 l/m 15,1 km/h (3 Bft) W 273 0 min 0,000 mm 0,0 UV-I 0 W/m 0,8 C -3,5 C 19,3 km/h (3 Bft) 100,00 %
24.04.2016 21:22 2,9 C 86 % 1010,3 hPa 0,0 l/m 12,8 km/h (3 Bft) SW 235 0 min 0,000 mm 0,0 UV-I 0 W/m 0,8 C -2,2 C 17,7 km/h (3 Bft) 92,31 %
24.04.2016 21:23 2,9 C 86 % 1010,3 hPa 0,0 l/m 10,3 km/h (2 Bft) W-SW 238 0 min 0,000 mm 0,0 UV-I 0 W/m 0,8 C -0,5 C 14,5 km/h (3 Bft) 100,00 %
24.04.2016 21:24 2,9 C 86 % 1010,2 hPa 0,0 l/m 12,7 km/h (3 Bft) W-SW 258 0 min 0,000 mm 0,0 UV-I 0 W/m 0,8 C -2,1 C 17,7 km/h (3 Bft) 95,65 %
24.04.2016 21:25 2,9 C 86 % 1010,3 hPa 0,0 l/m 17,6 km/h (3 Bft) W-SW 240 0 min 0,000 mm 0,0 UV-I 0 W/m 0,8 C -4,8 C 22,5 km/h (4 Bft) 95,83 %
24.04.2016 21:26 2,9 C 86 % 1010,3 hPa 0,0 l/m 14,0 km/h (3 Bft) W-SW 252 0 min 0,000 mm 0,0 UV-I 0 W/m 0,8 C -2,9 C 17,7 km/h (3 Bft) 95,65 %
24.04.2016 21:27 3,0 C 86 % 1010,3 hPa 0,0 l/m 12,8 km/h (3 Bft) SW 221 0 min 0,000 mm 0,0 UV-I 0 W/m 0,9 C -2,1 C 19,3 km/h (3 Bft) 95,83 %
24.04.2016 21:28 3,0 C 86 % 1010,3 hPa 0,0 l/m 11,9 km/h (2 Bft) W 269 0 min 0,000 mm 0,0 UV-I 0 W/m 0,9 C -1,5 C 20,9 km/h (4 Bft) 100,00 %
24.04.2016 21:29 3,0 C 86 % 1010,4 hPa 0,0 l/m 14,6 km/h (3 Bft) SW 228 0 min 0,000 mm 0,0 UV-I 0 W/m 0,9 C -3,1 C 19,3 km/h (3 Bft) 95,83 %
24.04.2016 21:30 3,0 C 86 % 1010,4 hPa 0,0 l/m 15,3 km/h (3 Bft) W-SW 239 0 min 0,000 mm 0,0 UV-I 0 W/m 0,9 C -3,5 C 19,3 km/h (3 Bft) 100,00 %
24.04.2016 21:31 3,1 C 86 % 1010,4 hPa 0,0 l/m 11,3 km/h (2 Bft) W 274 0 min 0,000 mm 0,0 UV-I 0 W/m 1,0 C -1,0 C 16,1 km/h (3 Bft) 96,67 %
24.04.2016 21:32 3,1 C 86 % 1010,4 hPa 0,0 l/m 13,6 km/h (3 Bft) W 261 0 min 0,000 mm 0,0 UV-I 0 W/m 1,0 C -2,4 C 17,7 km/h (3 Bft) 100,00 %
24.04.2016 21:33 3,1 C 86 % 1010,4 hPa 0,0 l/m 13,2 km/h (3 Bft) W-SW 254 0 min 0,000 mm 0,0 UV-I 0 W/m 1,0 C -2,2 C 16,1 km/h (3 Bft) 95,83 %
24.04.2016 21:34 3,1 C 86 % 1010,4 hPa 0,0 l/m 12,1 km/h (2 Bft) W-SW 239 0 min 0,000 mm 0,0 UV-I 0 W/m 1,0 C -1,5 C 16,1 km/h (3 Bft) 100,00 %
24.04.2016 21:35 3,1 C 86 % 1010,5 hPa 0,0 l/m 14,6 km/h (3 Bft) W-SW 252 0 min 0,000 mm 0,0 UV-I 0 W/m 1,0 C -3,0 C 22,5 km/h (4 Bft) 95,83 %
24.04.2016 21:36 3,1 C 86 % 1010,4 hPa 0,0 l/m 15,2 km/h (3 Bft) SW 218 0 min 0,000 mm 0,0 UV-I 0 W/m 1,0 C -3,3 C 22,5 km/h (4 Bft) 96,15 %
24.04.2016 21:37 3,1 C 86 % 1010,4 hPa 0,0 l/m 13,9 km/h (3 Bft) SW 227 0 min 0,000 mm 0,0 UV-I 0 W/m 1,0 C -2,6 C 20,9 km/h (4 Bft) 100,00 %
24.04.2016 21:38 3,2 C 86 % 1010,4 hPa 0,0 l/m 17,5 km/h (3 Bft) SW 236 0 min 0,000 mm 0,0 UV-I 0 W/m 1,1 C -4,4 C 24,1 km/h (4 Bft) 100,00 %
24.04.2016 21:39 3,2 C 86 % 1010,4 hPa 0,0 l/m 15,0 km/h (3 Bft) W-SW 239 0 min 0,000 mm 0,0 UV-I 0 W/m 1,1 C -3,1 C 19,3 km/h (3 Bft) 100,00 %
24.04.2016 21:40 3,2 C 86 % 1010,4 hPa 0,0 l/m 16,7 km/h (3 Bft) SW 225 0 min 0,000 mm 0,0 UV-I 0 W/m 1,1 C -4,0 C 19,3 km/h (3 Bft) 95,83 %
24.04.2016 21:41 3,2 C 86 % 1010,4 hPa 0,0 l/m 18,5 km/h (3 Bft) S-SW 206 0 min 0,000 mm 0,0 UV-I 0 W/m 1,1 C -4,8 C 25,7 km/h (4 Bft) 96,15 %
24.04.2016 21:42 3,2 C 86 % 1010,5 hPa 0,0 l/m 13,8 km/h (3 Bft) W-SW 247 0 min 0,000 mm 0,0 UV-I 0 W/m 1,1 C -2,4 C 20,9 km/h (4 Bft) 95,83 %
24.04.2016 21:43 3,3 C 86 % 1010,4 hPa 0,0 l/m 13,1 km/h (3 Bft) S-SW 213 0 min 0,000 mm 0,0 UV-I 0 W/m 1,2 C -1,9 C 17,7 km/h (3 Bft) 100,00 %
24.04.2016 21:44 3,3 C 85 % 1010,4 hPa 0,0 l/m 17,7 km/h (3 Bft) SW 229 0 min 0,000 mm 0,0 UV-I 0 W/m 1,0 C -4,3 C 25,7 km/h (4 Bft) 100,00 %
24.04.2016 21:45 3,3 C 85 % 1010,4 hPa 0,0 l/m 16,9 km/h (3 Bft) SW 233 0 min 0,000 mm 0,0 UV-I 0 W/m 1,0 C -4,0 C 20,9 km/h (4 Bft) 100,00 %
24.04.2016 21:46 3,3 C 85 % 1010,4 hPa 0,0 l/m 14,3 km/h (3 Bft) W-SW 250 0 min 0,000 mm 0,0 UV-I 0 W/m 1,0 C -2,6 C 19,3 km/h (3 Bft) 100,00 %
24.04.2016 21:47 3,3 C 85 % 1010,5 hPa 0,0 l/m 15,1 km/h (3 Bft) W-SW 237 0 min 0,000 mm 0,0 UV-I 0 W/m 1,0 C -3,0 C 20,9 km/h (4 Bft) 100,00 %
24.04.2016 21:48 3,3 C 85 % 1010,5 hPa 0,0 l/m 13,4 km/h (3 Bft) S-SO 148 0 min 0,000 mm 0,0 UV-I 0 W/m 1,0 C -2,1 C 20,9 km/h (4 Bft) 100,00 %
24.04.2016 21:49 3,4 C 85 % 1010,5 hPa 0,0 l/m 15,3 km/h (3 Bft) SW 236 0 min 0,000 mm 0,0 UV-I 0 W/m 1,1 C -3,0 C 19,3 km/h (3 Bft) 100,00 %
24.04.2016 21:50 3,4 C 85 % 1010,5 hPa 0,0 l/m 17,1 km/h (3 Bft) SW 236 0 min 0,000 mm 0,0 UV-I 0 W/m 1,1 C -3,9 C 24,1 km/h (4 Bft) 100,00 %
24.04.2016 21:51 3,4 C 85 % 1010,4 hPa 0,0 l/m 17,9 km/h (3 Bft) W-NW 285 0 min 0,000 mm 0,0 UV-I 0 W/m 1,1 C -4,3 C 22,5 km/h (4 Bft) 100,00 %
24.04.2016 21:52 3,4 C 85 % 1010,4 hPa 0,0 l/m 17,0 km/h (3 Bft) W-NW 284 0 min 0,000 mm 0,0 UV-I 0 W/m 1,1 C -3,9 C 29,0 km/h (5 Bft) 100,00 %
24.04.2016 21:53 3,4 C 85 % 1010,5 hPa 0,0 l/m 18,0 km/h (3 Bft) W-SW 250 0 min 0,000 mm 0,0 UV-I 0 W/m 1,1 C -4,4 C 25,7 km/h (4 Bft) 100,00 %
24.04.2016 21:54 3,4 C 85 % 1010,5 hPa 0,0 l/m 17,9 km/h (3 Bft) SW 225 0 min 0,000 mm 0,0 UV-I 0 W/m 1,1 C -4,3 C 24,1 km/h (4 Bft) 100,00 %
24.04.2016 21:55 3,4 C 85 % 1010,5 hPa 0,0 l/m 20,7 km/h (4 Bft) W-SW 256 0 min 0,000 mm 0,0 UV-I 0 W/m 1,1 C -5,5 C 29,0 km/h (5 Bft) 100,00 %
24.04.2016 21:56 3,4 C 85 % 1010,5 hPa 0,0 l/m 18,4 km/h (3 Bft) SW 234 0 min 0,000 mm 0,0 UV-I 0 W/m 1,1 C -4,5 C 22,5 km/h (4 Bft) 95,83 %
24.04.2016 21:57 3,4 C 85 % 1010,5 hPa 0,0 l/m 14,6 km/h (3 Bft) W 267 0 min 0,000 mm 0,0 UV-I 0 W/m 1,1 C -2,6 C 20,9 km/h (4 Bft) 100,00 %
24.04.2016 21:58 3,3 C 86 % 1010,4 hPa 0,0 l/m 11,9 km/h (2 Bft) W 261 0 min 0,000 mm 0,0 UV-I 0 W/m 1,2 C -1,1 C 19,3 km/h (3 Bft) 95,83 %
24.04.2016 21:59 3,3 C 86 % 1010,4 hPa 0,0 l/m 13,2 km/h (3 Bft) SW 217 0 min 0,000 mm 0,0 UV-I 0 W/m 1,2 C -2,0 C 17,7 km/h (3 Bft) 100,00 %
24.04.2016 22:00 3,3 C 86 % 1010,4 hPa 0,0 l/m 11,4 km/h (2 Bft) SW 214 0 min 0,026 mm 0,0 UV-I 0 W/m 1,2 C -0,8 C 16,1 km/h (3 Bft) 100,00 %
24.04.2016 22:02 3,3 C 86 % 1010,4 hPa 0,0 l/m 10,9 km/h (2 Bft) W-SW 255 0 min 0,000 mm 0,0 UV-I 0 W/m 1,2 C -0,5 C 16,1 km/h (3 Bft) 100,00 %
24.04.2016 22:03 3,3 C 86 % 1010,4 hPa 0,0 l/m 11,7 km/h (2 Bft) SW 227 0 min 0,000 mm 0,0 UV-I 0 W/m 1,2 C -1,0 C 14,5 km/h (3 Bft) 100,00 %
24.04.2016 22:04 3,2 C 86 % 1010,5 hPa 0,0 l/m 11,7 km/h (2 Bft) SW 232 0 min 0,000 mm 0,0 UV-I 0 W/m 1,1 C -1,1 C 14,5 km/h (3 Bft) 100,00 %
24.04.2016 22:05 3,2 C 86 % 1010,5 hPa 0,0 l/m 11,7 km/h (2 Bft) W-SW 253 0 min 0,000 mm 0,0 UV-I 0 W/m 1,1 C -1,1 C 17,7 km/h (3 Bft) 100,00 %
24.04.2016 22:06 3,2 C 86 % 1010,4 hPa 0,0 l/m 7,1 km/h (2 Bft) S 186 0 min 0,000 mm 0,0 UV-I 0 W/m 1,1 C 2,5 C 12,9 km/h (3 Bft) 95,65 %
24.04.2016 22:07 3,2 C 86 % 1010,5 hPa 0,0 l/m 10,9 km/h (2 Bft) S-SW 200 0 min 0,000 mm 0,0 UV-I 0 W/m 1,1 C -0,6 C 14,5 km/h (3 Bft) 100,00 %
24.04.2016 22:08 3,2 C 86 % 1010,5 hPa 0,0 l/m 11,0 km/h (2 Bft) S 189 0 min 0,000 mm 0,0 UV-I 0 W/m 1,1 C -0,6 C 20,9 km/h (4 Bft) 100,00 %
24.04.2016 22:09 3,2 C 85 % 1010,5 hPa 0,0 l/m 10,7 km/h (2 Bft) W-SW 244 0 min 0,000 mm 0,0 UV-I 0 W/m 0,9 C -0,4 C 19,3 km/h (3 Bft) 100,00 %
24.04.2016 22:10 3,2 C 85 % 1010,5 hPa 0,0 l/m 14,7 km/h (3 Bft) W-SW 239 0 min 0,000 mm 0,0 UV-I 0 W/m 0,9 C -2,9 C 20,9 km/h (4 Bft) 100,00 %
24.04.2016 22:11 3,2 C 85 % 1010,5 hPa 0,0 l/m 12,5 km/h (3 Bft) W-SW 257 0 min 0,000 mm 0,0 UV-I 0 W/m 0,9 C -1,6 C 20,9 km/h (4 Bft) 100,00 %
24.04.2016 22:12 3,2 C 85 % 1010,4 hPa 0,0 l/m 11,1 km/h (2 Bft) W 260 0 min 0,000 mm 0,0 UV-I 0 W/m 0,9 C -0,7 C 17,7 km/h (3 Bft) 95,65 %
24.04.2016 22:13 3,2 C 85 % 1010,4 hPa 0,0 l/m 12,3 km/h (3 Bft) SW 229 0 min 0,000 mm 0,0 UV-I 0 W/m 0,9 C -1,5 C 19,3 km/h (3 Bft) 100,00 %
24.04.2016 22:14 3,2 C 85 % 1010,5 hPa 0,0 l/m 10,1 km/h (2 Bft) SW 226 0 min 0,000 mm 0,0 UV-I 0 W/m 0,9 C 0,0 C 12,9 km/h (3 Bft) 100,00 %
24.04.2016 22:15 3,2 C 85 % 1010,5 hPa 0,0 l/m 11,4 km/h (2 Bft) SW 225 0 min 0,000 mm 0,0 UV-I 0 W/m 0,9 C -0,9 C 17,7 km/h (3 Bft) 100,00 %
24.04.2016 22:16 3,1 C 85 % 1010,5 hPa 0,0 l/m 12,9 km/h (3 Bft) W-SW 247 0 min 0,000 mm 0,0 UV-I 0 W/m 0,8 C -2,0 C 19,3 km/h (3 Bft) 100,00 %
24.04.2016 22:17 3,1 C 86 % 1010,5 hPa 0,0 l/m 13,0 km/h (3 Bft) SW 217 0 min 0,000 mm 0,0 UV-I 0 W/m 1,0 C -2,1 C 16,1 km/h (3 Bft) 100,00 %
24.04.2016 22:18 3,1 C 86 % 1010,5 hPa 0,0 l/m 12,1 km/h (2 Bft) S-SW 212 0 min 0,000 mm 0,0 UV-I 0 W/m 1,0 C -1,5 C 19,3 km/h (3 Bft) 100,00 %
24.04.2016 22:19 3,1 C 85 % 1010,4 hPa 0,0 l/m 12,5 km/h (3 Bft) W-SW 246 0 min 0,000 mm 0,0 UV-I 0 W/m 0,8 C -1,8 C 20,9 km/h (4 Bft) 95,83 %
24.04.2016 22:20 3,0 C 86 % 1010,5 hPa 0,0 l/m 16,6 km/h (3 Bft) W-SW 246 0 min 0,000 mm 0,0 UV-I 0 W/m 0,9 C -4,2 C 22,5 km/h (4 Bft) 100,00 %
24.04.2016 22:21 3,0 C 86 % 1010,4 hPa 0,0 l/m 14,5 km/h (3 Bft) SW 221 0 min 0,000 mm 0,0 UV-I 0 W/m 0,9 C -3,1 C 22,5 km/h (4 Bft) 95,65 %
24.04.2016 22:22 3,0 C 86 % 1010,4 hPa 0,0 l/m 15,2 km/h (3 Bft) SW 228 0 min 0,000 mm 0,0 UV-I 0 W/m 0,9 C -3,5 C 19,3 km/h (3 Bft) 100,00 %
24.04.2016 22:23 2,9 C 86 % 1010,4 hPa 0,0 l/m 11,4 km/h (2 Bft) W-SW 248 0 min 0,000 mm 0,0 UV-I 0 W/m 0,8 C -1,3 C 14,5 km/h (3 Bft) 100,00 %
24.04.2016 22:24 2,9 C 86 % 1010,4 hPa 0,0 l/m 12,3 km/h (3 Bft) SW 234 0 min 0,000 mm 0,0 UV-I 0 W/m 0,8 C -1,9 C 17,7 km/h (3 Bft) 100,00 %
24.04.2016 22:25 2,9 C 86 % 1010,4 hPa 0,0 l/m 12,6 km/h (3 Bft) SW 233 0 min 0,000 mm 0,0 UV-I 0 W/m 0,8 C -2,1 C 17,7 km/h (3 Bft) 90,91 %
24.04.2016 22:26 2,8 C 86 % 1010,5 hPa 0,0 l/m 14,8 km/h (3 Bft) S-SW 213 0 min 0,000 mm 0,0 UV-I 0 W/m 0,7 C -3,5 C 20,9 km/h (4 Bft) 100,00 %
24.04.2016 22:27 2,8 C 86 % 1010,4 hPa 0,0 l/m 14,3 km/h (3 Bft) SW 227 0 min 0,000 mm 0,0 UV-I 0 W/m 0,7 C -3,2 C 19,3 km/h (3 Bft) 91,30 %
24.04.2016 22:28 2,8 C 87 % 1010,5 hPa 0,0 l/m 15,5 km/h (3 Bft) SW 231 0 min 0,000 mm 0,0 UV-I 0 W/m 0,9 C -3,9 C 20,9 km/h (4 Bft) 100,00 %
24.04.2016 22:29 2,8 C 87 % 1010,5 hPa 0,0 l/m 14,2 km/h (3 Bft) W-SW 244 0 min 0,000 mm 0,0 UV-I 0 W/m 0,9 C -3,1 C 19,3 km/h (3 Bft) 100,00 %
24.04.2016 22:30 2,8 C 87 % 1010,4 hPa 0,0 l/m 11,9 km/h (2 Bft) SW 229 0 min 0,000 mm 0,0 UV-I 0 W/m 0,9 C -1,7 C 16,1 km/h (3 Bft) 100,00 %
24.04.2016 22:31 2,7 C 87 % 1010,4 hPa 0,0 l/m 13,7 km/h (3 Bft) W-SW 238 0 min 0,000 mm 0,0 UV-I 0 W/m 0,8 C -3,0 C 17,7 km/h (3 Bft) 100,00 %
24.04.2016 22:32 2,7 C 87 % 1010,4 hPa 0,0 l/m 13,8 km/h (3 Bft) SW 229 0 min 0,000 mm 0,0 UV-I 0 W/m 0,8 C -3,0 C 20,9 km/h (4 Bft) 100,00 %
24.04.2016 22:33 2,7 C 87 % 1010,4 hPa 0,0 l/m 15,6 km/h (3 Bft) SW 234 0 min 0,000 mm 0,0 UV-I 0 W/m 0,8 C -4,0 C 20,9 km/h (4 Bft) 100,00 %
24.04.2016 22:34 2,7 C 87 % 1010,4 hPa 0,0 l/m 16,7 km/h (3 Bft) W-SW 244 0 min 0,000 mm 0,0 UV-I 0 W/m 0,8 C -4,6 C 20,9 km/h (4 Bft) 95,83 %
24.04.2016 22:35 2,7 C 87 % 1010,4 hPa 0,0 l/m 14,7 km/h (3 Bft) W-SW 258 0 min 0,000 mm 0,0 UV-I 0 W/m 0,8 C -3,5 C 19,3 km/h (3 Bft) 100,00 %
24.04.2016 22:36 2,6 C 87 % 1010,4 hPa 0,0 l/m 15,1 km/h (3 Bft) W-SW 249 0 min 0,000 mm 0,0 UV-I 0 W/m 0,7 C -3,9 C 22,5 km/h (4 Bft) 100,00 %
24.04.2016 22:37 2,6 C 87 % 1010,4 hPa 0,0 l/m 13,4 km/h (3 Bft) SW 231 0 min 0,000 mm 0,0 UV-I 0 W/m 0,7 C -2,9 C 22,5 km/h (4 Bft) 100,00 %
24.04.2016 22:38 2,6 C 87 % 1010,4 hPa 0,0 l/m 16,6 km/h (3 Bft) SW 232 0 min 0,000 mm 0,0 UV-I 0 W/m 0,7 C -4,7 C 20,9 km/h (4 Bft) 95,65 %
24.04.2016 22:39 2,6 C 87 % 1010,4 hPa 0,0 l/m 14,0 km/h (3 Bft) S-SW 209 0 min 0,000 mm 0,0 UV-I 0 W/m 0,7 C -3,3 C 19,3 km/h (3 Bft) 100,00 %
24.04.2016 22:40 2,6 C 88 % 1010,4 hPa 0,0 l/m 12,2 km/h (2 Bft) W-SW 248 0 min 0,000 mm 0,0 UV-I 0 W/m 0,8 C -2,1 C 16,1 km/h (3 Bft) 100,00 %
24.04.2016 22:41 2,6 C 88 % 1010,3 hPa 0,0 l/m 10,3 km/h (2 Bft) W-SW 246 0 min 0,000 mm 0,0 UV-I 0 W/m 0,8 C -0,8 C 16,1 km/h (3 Bft) 95,83 %
24.04.2016 22:42 2,6 C 88 % 1010,4 hPa 0,0 l/m 13,5 km/h (3 Bft) W-SW 241 0 min 0,000 mm 0,0 UV-I 0 W/m 0,8 C -3,0 C 19,3 km/h (3 Bft) 95,65 %
24.04.2016 22:43 2,6 C 88 % 1010,3 hPa 0,0 l/m 13,4 km/h (3 Bft) S-SW 213 0 min 0,000 mm 0,0 UV-I 0 W/m 0,8 C -2,9 C 17,7 km/h (3 Bft) 100,00 %
24.04.2016 22:44 2,5 C 88 % 1010,3 hPa 0,0 l/m 18,1 km/h (3 Bft) W-SW 242 0 min 0,000 mm 0,0 UV-I 0 W/m 0,7 C -5,5 C 24,1 km/h (4 Bft) 100,00 %
24.04.2016 22:45 2,5 C 88 % 1010,3 hPa 0,0 l/m 13,8 km/h (3 Bft) SW 234 0 min 0,000 mm 0,0 UV-I 0 W/m 0,7 C -3,3 C 20,9 km/h (4 Bft) 100,00 %
24.04.2016 22:46 2,5 C 88 % 1010,4 hPa 0,0 l/m 12,5 km/h (3 Bft) W-SW 238 0 min 0,000 mm 0,0 UV-I 0 W/m 0,7 C -2,5 C 16,1 km/h (3 Bft) 95,65 %
24.04.2016 22:47 2,4 C 88 % 1010,4 hPa 0,0 l/m 11,4 km/h (2 Bft) W-SW 242 0 min 0,000 mm 0,0 UV-I 0 W/m 0,6 C -1,8 C 16,1 km/h (3 Bft) 100,00 %
24.04.2016 22:48 2,4 C 88 % 1010,4 hPa 0,0 l/m 11,3 km/h (2 Bft) W-SW 237 0 min 0,000 mm 0,0 UV-I 0 W/m 0,6 C -1,8 C 16,1 km/h (3 Bft) 95,65 %
24.04.2016 22:49 2,4 C 88 % 1010,4 hPa 0,0 l/m 13,1 km/h (3 Bft) SW 214 0 min 0,000 mm 0,0 UV-I 0 W/m 0,6 C -3,0 C 16,1 km/h (3 Bft) 100,00 %
24.04.2016 22:50 2,4 C 88 % 1010,4 hPa 0,0 l/m 10,8 km/h (2 Bft) S-SW 194 0 min 0,000 mm 0,0 UV-I 0 W/m 0,6 C -1,4 C 17,7 km/h (3 Bft) 100,00 %
24.04.2016 22:51 2,4 C 89 % 1010,4 hPa 0,0 l/m 14,8 km/h (3 Bft) W-SW 238 0 min 0,000 mm 0,0 UV-I 0 W/m 0,8 C -4,0 C 17,7 km/h (3 Bft) 100,00 %
24.04.2016 22:52 2,4 C 89 % 1010,4 hPa 0,0 l/m 13,0 km/h (3 Bft) SW 227 0 min 0,000 mm 0,0 UV-I 0 W/m 0,8 C -2,9 C 17,7 km/h (3 Bft) 100,00 %
24.04.2016 22:53 2,3 C 88 % 1010,4 hPa 0,0 l/m 14,8 km/h (3 Bft) S-SW 202 0 min 0,000 mm 0,0 UV-I 0 W/m 0,5 C -4,1 C 19,3 km/h (3 Bft) 100,00 %
24.04.2016 22:54 2,3 C 88 % 1010,4 hPa 0,0 l/m 13,2 km/h (3 Bft) SW 236 0 min 0,000 mm 0,0 UV-I 0 W/m 0,5 C -3,1 C 19,3 km/h (3 Bft) 100,00 %
24.04.2016 22:55 2,3 C 88 % 1010,3 hPa 0,0 l/m 11,3 km/h (2 Bft) W-SW 240 0 min 0,000 mm 0,0 UV-I 0 W/m 0,5 C -1,9 C 14,5 km/h (3 Bft) 95,83 %
24.04.2016 22:56 2,3 C 89 % 1010,3 hPa 0,0 l/m 10,6 km/h (2 Bft) SW 232 0 min 0,000 mm 0,0 UV-I 0 W/m 0,7 C -1,4 C 14,5 km/h (3 Bft) 100,00 %
24.04.2016 22:57 2,3 C 89 % 1010,4 hPa 0,0 l/m 13,3 km/h (3 Bft) W-SW 238 0 min 0,000 mm 0,0 UV-I 0 W/m 0,7 C -3,2 C 17,7 km/h (3 Bft) 96,15 %
24.04.2016 22:58 2,3 C 89 % 1010,3 hPa 0,0 l/m 9,8 km/h (2 Bft) SW 236 0 min 0,000 mm 0,0 UV-I 0 W/m 0,7 C -0,8 C 16,1 km/h (3 Bft) 100,00 %
24.04.2016 22:59 2,3 C 89 % 1010,4 hPa 0,0 l/m 11,7 km/h (2 Bft) W-SW 238 0 min 0,000 mm 0,0 UV-I 0 W/m 0,7 C -2,1 C 17,7 km/h (3 Bft) 100,00 %
24.04.2016 23:00 2,2 C 89 % 1010,4 hPa 0,0 l/m 10,4 km/h (2 Bft) SW 221 0 min 0,025 mm 0,0 UV-I 0 W/m 0,6 C -1,3 C 16,1 km/h (3 Bft) 100,00 %
24.04.2016 23:02 2,2 C 89 % 1010,4 hPa 0,0 l/m 10,5 km/h (2 Bft) W-SW 246 0 min 0,000 mm 0,0 UV-I 0 W/m 0,6 C -1,4 C 14,5 km/h (3 Bft) 100,00 %
24.04.2016 23:03 2,2 C 89 % 1010,4 hPa 0,0 l/m 15,7 km/h (3 Bft) W-SW 244 0 min 0,000 mm 0,0 UV-I 0 W/m 0,6 C -4,7 C 24,1 km/h (4 Bft) 95,65 %
24.04.2016 23:04 2,2 C 90 % 1010,4 hPa 0,0 l/m 13,9 km/h (3 Bft) W-SW 240 0 min 0,000 mm 0,0 UV-I 0 W/m 0,7 C -3,7 C 17,7 km/h (3 Bft) 100,00 %
24.04.2016 23:05 2,2 C 90 % 1010,3 hPa 0,0 l/m 11,5 km/h (2 Bft) SW 234 0 min 0,000 mm 0,0 UV-I 0 W/m 0,7 C -2,1 C 17,7 km/h (3 Bft) 100,00 %
24.04.2016 23:06 2,2 C 90 % 1010,3 hPa 0,0 l/m 11,1 km/h (2 Bft) S 188 0 min 0,000 mm 0,0 UV-I 0 W/m 0,7 C -1,8 C 16,1 km/h (3 Bft) 96,30 %
24.04.2016 23:07 2,2 C 90 % 1010,3 hPa 0,0 l/m 12,3 km/h (3 Bft) S-SW 204 0 min 0,000 mm 0,0 UV-I 0 W/m 0,7 C -2,7 C 17,7 km/h (3 Bft) 95,65 %
24.04.2016 23:08 2,2 C 90 % 1010,3 hPa 0,0 l/m 8,9 km/h (2 Bft) SW 232 0 min 0,000 mm 0,0 UV-I 0 W/m 0,7 C -0,1 C 12,9 km/h (3 Bft) 95,83 %
24.04.2016 23:09 2,1 C 90 % 1010,3 hPa 0,0 l/m 8,5 km/h (2 Bft) SW 223 0 min 0,000 mm 0,0 UV-I 0 W/m 0,6 C 0,1 C 16,1 km/h (3 Bft) 96,15 %
24.04.2016 23:10 2,1 C 90 % 1010,3 hPa 0,0 l/m 10,6 km/h (2 Bft) SW 232 0 min 0,000 mm 0,0 UV-I 0 W/m 0,6 C -1,6 C 14,5 km/h (3 Bft) 95,83 %
24.04.2016 23:11 2,1 C 90 % 1010,3 hPa 0,0 l/m 10,4 km/h (2 Bft) W-SW 237 0 min 0,000 mm 0,0 UV-I 0 W/m 0,6 C -1,4 C 17,7 km/h (3 Bft) 95,65 %
24.04.2016 23:12 2,1 C 90 % 1010,3 hPa 0,0 l/m 13,3 km/h (3 Bft) SW 227 0 min 0,000 mm 0,0 UV-I 0 W/m 0,6 C -3,4 C 16,1 km/h (3 Bft) 100,00 %
24.04.2016 23:13 2,1 C 90 % 1010,3 hPa 0,0 l/m 6,6 km/h (2 Bft) S-SW 205 0 min 0,000 mm 0,0 UV-I 0 W/m 0,6 C 1,9 C 8,0 km/h (2 Bft) 95,65 %
24.04.2016 23:14 2,1 C 91 % 1010,3 hPa 0,0 l/m 7,7 km/h (2 Bft) W-SW 244 0 min 0,000 mm 0,0 UV-I 0 W/m 0,8 C 0,8 C 11,3 km/h (2 Bft) 100,00 %
24.04.2016 23:15 2,1 C 91 % 1010,3 hPa 0,0 l/m 8,2 km/h (2 Bft) SW 236 0 min 0,000 mm 0,0 UV-I 0 W/m 0,8 C 0,4 C 11,3 km/h (2 Bft) 95,65 %
24.04.2016 23:16 2,1 C 91 % 1010,3 hPa 0,0 l/m 8,2 km/h (2 Bft) W-SW 250 0 min 0,000 mm 0,0 UV-I 0 W/m 0,8 C 0,4 C 11,3 km/h (2 Bft) 100,00 %
24.04.2016 23:17 2,1 C 91 % 1010,3 hPa 0,0 l/m 8,2 km/h (2 Bft) SW 232 0 min 0,000 mm 0,0 UV-I 0 W/m 0,8 C 0,4 C 11,3 km/h (2 Bft) 95,65 %
24.04.2016 23:18 2,1 C 91 % 1010,3 hPa 0,0 l/m 7,4 km/h (2 Bft) W-SW 255 0 min 0,000 mm 0,0 UV-I 0 W/m 0,8 C 1,1 C 12,9 km/h (3 Bft) 95,83 %
24.04.2016 23:19 2,1 C 91 % 1010,3 hPa 0,0 l/m 8,0 km/h (2 Bft) W-SW 246 0 min 0,000 mm 0,0 UV-I 0 W/m 0,8 C 0,6 C 9,7 km/h (2 Bft) 100,00 %
24.04.2016 23:20 2,1 C 91 % 1010,3 hPa 0,0 l/m 9,3 km/h (2 Bft) SW 220 0 min 0,000 mm 0,0 UV-I 0 W/m 0,8 C -0,6 C 12,9 km/h (3 Bft) 100,00 %
24.04.2016 23:21 2,1 C 91 % 1010,3 hPa 0,0 l/m 8,9 km/h (2 Bft) SW 235 0 min 0,000 mm 0,0 UV-I 0 W/m 0,8 C -0,2 C 14,5 km/h (3 Bft) 92,59 %
24.04.2016 23:22 2,1 C 91 % 1010,4 hPa 0,0 l/m 7,5 km/h (2 Bft) W-SW 246 0 min 0,000 mm 0,0 UV-I 0 W/m 0,8 C 1,0 C 11,3 km/h (2 Bft) 95,65 %
24.04.2016 23:23 2,1 C 91 % 1010,4 hPa 0,0 l/m 8,5 km/h (2 Bft) SW 219 0 min 0,000 mm 0,0 UV-I 0 W/m 0,8 C 0,1 C 16,1 km/h (3 Bft) 100,00 %
24.04.2016 23:24 2,1 C 91 % 1010,4 hPa 0,0 l/m 9,7 km/h (2 Bft) W-SW 241 0 min 0,000 mm 0,0 UV-I 0 W/m 0,8 C -0,9 C 12,9 km/h (3 Bft) 91,30 %
24.04.2016 23:25 2,1 C 91 % 1010,4 hPa 0,0 l/m 9,9 km/h (2 Bft) W-SW 253 0 min 0,000 mm 0,0 UV-I 0 W/m 0,8 C -1,1 C 12,9 km/h (3 Bft) 100,00 %
24.04.2016 23:26 2,1 C 91 % 1010,4 hPa 0,0 l/m 9,4 km/h (2 Bft) SW 233 0 min 0,000 mm 0,0 UV-I 0 W/m 0,8 C -0,7 C 12,9 km/h (3 Bft) 95,65 %
24.04.2016 23:27 2,1 C 91 % 1010,4 hPa 0,0 l/m 7,7 km/h (2 Bft) SW 236 0 min 0,000 mm 0,0 UV-I 0 W/m 0,8 C 0,8 C 14,5 km/h (3 Bft) 100,00 %
24.04.2016 23:28 2,1 C 91 % 1010,4 hPa 0,0 l/m 7,2 km/h (2 Bft) W-SW 240 0 min 0,000 mm 0,0 UV-I 0 W/m 0,8 C 1,3 C 11,3 km/h (2 Bft) 91,30 %
24.04.2016 23:29 2,1 C 91 % 1010,4 hPa 0,0 l/m 8,2 km/h (2 Bft) W-SW 254 0 min 0,000 mm 0,0 UV-I 0 W/m 0,8 C 0,4 C 9,7 km/h (2 Bft) 95,83 %
24.04.2016 23:30 2,1 C 91 % 1010,4 hPa 0,0 l/m 8,3 km/h (2 Bft) W-SW 252 0 min 0,000 mm 0,0 UV-I 0 W/m 0,8 C 0,3 C 12,9 km/h (3 Bft) 95,65 %
24.04.2016 23:31 2,2 C 91 % 1010,4 hPa 0,0 l/m 7,4 km/h (2 Bft) SW 234 0 min 0,000 mm 0,0 UV-I 0 W/m 0,9 C 1,2 C 11,3 km/h (2 Bft) 95,83 %
24.04.2016 23:32 2,2 C 91 % 1010,3 hPa 0,0 l/m 9,4 km/h (2 Bft) SW 234 0 min 0,000 mm 0,0 UV-I 0 W/m 0,9 C -0,5 C 12,9 km/h (3 Bft) 100,00 %
24.04.2016 23:33 2,2 C 91 % 1010,3 hPa 0,0 l/m 9,7 km/h (2 Bft) W-SW 252 0 min 0,000 mm 0,0 UV-I 0 W/m 0,9 C -0,8 C 14,5 km/h (3 Bft) 100,00 %
24.04.2016 23:34 2,2 C 91 % 1010,4 hPa 0,0 l/m 8,0 km/h (2 Bft) W-SW 255 0 min 0,000 mm 0,0 UV-I 0 W/m 0,9 C 0,7 C 12,9 km/h (3 Bft) 100,00 %
24.04.2016 23:35 2,2 C 91 % 1010,3 hPa 0,0 l/m 10,3 km/h (2 Bft) W-SW 257 0 min 0,000 mm 0,0 UV-I 0 W/m 0,9 C -1,3 C 16,1 km/h (3 Bft) 96,30 %
24.04.2016 23:36 2,2 C 91 % 1010,4 hPa 0,0 l/m 8,1 km/h (2 Bft) SW 234 0 min 0,000 mm 0,0 UV-I 0 W/m 0,9 C 0,6 C 9,7 km/h (2 Bft) 95,65 %
24.04.2016 23:37 2,2 C 91 % 1010,4 hPa 0,0 l/m 8,9 km/h (2 Bft) W-SW 248 0 min 0,000 mm 0,0 UV-I 0 W/m 0,9 C -0,1 C 11,3 km/h (2 Bft) 95,83 %
24.04.2016 23:38 2,3 C 91 % 1010,4 hPa 0,0 l/m 10,1 km/h (2 Bft) W 263 0 min 0,000 mm 0,0 UV-I 0 W/m 1,0 C -1,0 C 12,9 km/h (3 Bft) 100,00 %
24.04.2016 23:39 2,3 C 91 % 1010,4 hPa 0,0 l/m 12,2 km/h (2 Bft) W-NW 288 0 min 0,000 mm 0,0 UV-I 0 W/m 1,0 C -2,5 C 14,5 km/h (3 Bft) 95,65 %
24.04.2016 23:40 2,3 C 91 % 1010,4 hPa 0,0 l/m 5,4 km/h (1 Bft) W-SW 248 0 min 0,000 mm 0,0 UV-I 0 W/m 1,0 C 2,3 C 8,0 km/h (2 Bft) 95,83 %
24.04.2016 23:41 2,3 C 91 % 1010,4 hPa 0,0 l/m 5,8 km/h (2 Bft) W-SW 251 0 min 0,000 mm 0,0 UV-I 0 W/m 1,0 C 2,3 C 8,0 km/h (2 Bft) 100,00 %
24.04.2016 23:42 2,3 C 91 % 1010,4 hPa 0,0 l/m 7,0 km/h (2 Bft) SW 236 0 min 0,000 mm 0,0 UV-I 0 W/m 1,0 C 1,7 C 12,9 km/h (3 Bft) 100,00 %
24.04.2016 23:43 2,3 C 91 % 1010,4 hPa 0,0 l/m 10,0 km/h (2 Bft) W-SW 255 0 min 0,000 mm 0,0 UV-I 0 W/m 1,0 C -0,9 C 12,9 km/h (3 Bft) 95,65 %
24.04.2016 23:44 2,3 C 91 % 1010,4 hPa 0,0 l/m 8,0 km/h (2 Bft) SW 236 0 min 0,000 mm 0,0 UV-I 0 W/m 1,0 C 0,8 C 11,3 km/h (2 Bft) 100,00 %
24.04.2016 23:45 2,3 C 91 % 1010,4 hPa 0,0 l/m 12,3 km/h (3 Bft) W-SW 255 0 min 0,000 mm 0,0 UV-I 0 W/m 1,0 C -2,6 C 16,1 km/h (3 Bft) 100,00 %
24.04.2016 23:46 2,4 C 91 % 1010,4 hPa 0,0 l/m 9,6 km/h (2 Bft) W-SW 244 0 min 0,000 mm 0,0 UV-I 0 W/m 1,1 C -0,5 C 14,5 km/h (3 Bft) 100,00 %
24.04.2016 23:47 2,4 C 91 % 1010,3 hPa 0,0 l/m 14,2 km/h (3 Bft) W-SW 244 0 min 0,000 mm 0,0 UV-I 0 W/m 1,1 C -3,6 C 19,3 km/h (3 Bft) 100,00 %
24.04.2016 23:48 2,4 C 91 % 1010,4 hPa 0,0 l/m 12,8 km/h (3 Bft) SW 233 0 min 0,000 mm 0,0 UV-I 0 W/m 1,1 C -2,8 C 16,1 km/h (3 Bft) 96,30 %
24.04.2016 23:49 2,4 C 91 % 1010,3 hPa 0,0 l/m 13,5 km/h (3 Bft) W 266 0 min 0,000 mm 0,0 UV-I 0 W/m 1,1 C -3,2 C 19,3 km/h (3 Bft) 95,65 %
24.04.2016 23:50 2,4 C 91 % 1010,3 hPa 0,0 l/m 11,9 km/h (2 Bft) W 267 0 min 0,000 mm 0,0 UV-I 0 W/m 1,1 C -2,2 C 17,7 km/h (3 Bft) 100,00 %
24.04.2016 23:51 2,4 C 91 % 1010,4 hPa 0,0 l/m 9,5 km/h (2 Bft) W 267 0 min 0,000 mm 0,0 UV-I 0 W/m 1,1 C -0,4 C 16,1 km/h (3 Bft) 100,00 %
24.04.2016 23:52 2,4 C 91 % 1010,3 hPa 0,0 l/m 13,4 km/h (3 Bft) W-SW 248 0 min 0,000 mm 0,0 UV-I 0 W/m 1,1 C -3,1 C 17,7 km/h (3 Bft) 100,00 %
24.04.2016 23:53 2,4 C 91 % 1010,4 hPa 0,0 l/m 12,7 km/h (3 Bft) W-SW 248 0 min 0,000 mm 0,0 UV-I 0 W/m 1,1 C -2,7 C 17,7 km/h (3 Bft) 100,00 %
24.04.2016 23:54 2,5 C 91 % 1010,4 hPa 0,0 l/m 11,6 km/h (2 Bft) W 267 0 min 0,000 mm 0,0 UV-I 0 W/m 1,2 C -1,9 C 16,1 km/h (3 Bft) 100,00 %
24.04.2016 23:55 2,5 C 91 % 1010,4 hPa 0,0 l/m 14,2 km/h (3 Bft) SW 227 0 min 0,000 mm 0,0 UV-I 0 W/m 1,2 C -3,5 C 17,7 km/h (3 Bft) 100,00 %
24.04.2016 23:56 2,6 C 91 % 1010,4 hPa 0,0 l/m 10,3 km/h (2 Bft) SW 232 0 min 0,000 mm 0,0 UV-I 0 W/m 1,3 C -0,8 C 14,5 km/h (3 Bft) 100,00 %
24.04.2016 23:57 2,6 C 90 % 1010,4 hPa 0,0 l/m 13,3 km/h (3 Bft) SW 234 0 min 0,000 mm 0,0 UV-I 0 W/m 1,1 C -2,8 C 17,7 km/h (3 Bft) 100,00 %
24.04.2016 23:58 2,6 C 90 % 1010,4 hPa 0,0 l/m 7,2 km/h (2 Bft) W-SW 241 0 min 0,000 mm 0,0 UV-I 0 W/m 1,1 C 1,8 C 11,3 km/h (2 Bft) 100,00 %
24.04.2016 23:59 2,6 C 90 % 1010,5 hPa 0,0 l/m 10,0 km/h (2 Bft) SW 234 0 min 0,000 mm 0,0 UV-I 0 W/m 1,1 C -0,6 C 14,5 km/h (3 Bft) 100,00 %
_ Min-Zeit 23:08 14:16 00:00 - 11:19 - - - - - - 14:16 01:22 11:06 13:20
Minimum _ 2,1 C 54 % 1004,9 hPa - 0,9 km/h (0 Bft) - - - - - - -1,7 C -7,3 C 3,2 km/h (1 Bft) 81,82 %
_ Max-Zeit 00:00 02:36 10:22 00:02 00:25 - - 08:20 14:00 13:13 10:52 00:00 14:13 00:47 00:00
Maximum _ 7,8 C 94 % 1010,5 hPa 0,2 l/m 31,9 km/h
W (5 Bft)
- - 5 min 0,204 mm 3,1 UV-I 677 W/m 6,7 C 7,1 C 48,3 km/h
W (6 Bft)
100,00 %
Durchschnitt _ 4,7 C 81 % 1009,4 hPa #8,2 l/m 12,5 km/h (3 Bft) W-SW - #4:04 h #1,905 mm 1,5 UV-I 243 W/m 1,5 C 0,4 C 19,7 km/h (3 Bft) 98,55 %